[[{"header":{"parameterUnit":"m.s-1","parameterCategory":1,"la1":31.0,"la2":29.5877,"lo1":-88.7671,"lo2":-86.6584,"dy":0.0162,"dx":0.0185,"nx":115,"ny":88,"refTime":"2023-04-15T06:00:00:Z","depth":0,"parameterNumber":2,"parameterNumberName":"U-component_of_WINDS"},"data":[0.0,0.0,0.0,0.0,0.0,0.0,0.0,0.0,0.0,0.0,0.0,0.0,0.0,0.0,0.0,0.0,0.0,0.0,0.0,0.0,0.0,0.0,0.0,0.0,0.0,0.0,0.0,0.0,0.0,0.0,0.0,0.0,0.0,0.0,0.0,0.0,0.0,0.0,0.0,0.0,0.0,0.0,0.0,0.0,0.0,0.0,0.0,0.0,0.0,0.0,0.0,0.0,0.0,0.0,0.0,0.0,0.0,0.0,0.0,0.0,0.0,0.0,0.0,0.0,0.0,0.0,0.0,0.0,0.0,0.0,0.0,0.0,0.0,0.0,0.0,0.0,0.0,0.0,0.0,0.0,0.0,0.0,0.0,0.0,0.0,0.0,0.0,0.0,0.0,0.0,0.0,0.0,0.0,0.0,0.0,0.0,0.0,0.0,0.0,0.0,0.0,0.0,0.0,0.0,0.0,0.0,0.0,0.0,0.0,0.0,0.0,0.0,0.0,0.0,0.0,0.0,0.0,0.0,0.0,0.0,0.0,0.0,0.0,0.0,0.0,0.0,0.0,0.0,0.0,0.0,0.0,0.0,0.0,0.0,0.0,0.0,0.0,0.0,0.0,0.0,0.0,0.0,0.0,0.0,0.0,0.0,0.0,0.0,0.0,0.0,0.0,0.0,0.0,0.0,0.0,0.0,0.0,0.0,0.0,0.0,0.0,0.0,0.0,0.0,0.0,0.0,0.0,0.0,0.0,0.0,0.0,0.0,0.0,0.0,0.0,0.0,0.0,0.0,0.0,0.0,0.0,0.0,0.0,0.0,0.0,0.0,0.0,0.0,0.0,0.0,0.0,0.0,0.0,0.0,0.0,0.0,0.0,0.0,0.0,0.0,0.0,0.0,0.0,0.0,0.0,0.0,0.0,0.0,0.0,0.0,0.0,0.0,0.0,0.0,0.0,0.0,0.0,0.0,0.0,0.0,0.0,0.0,0.0,0.0,0.0,0.0,0.0,0.0,0.0,0.0,0.0,0.0,0.0,0.0,0.0,0.0,0.0,0.0,0.0,0.0,0.0,0.0,0.0,0.0,0.0,0.0,0.0,0.0,0.0,0.0,0.0,0.0,0.0,0.0,0.0,0.0,0.0,0.0,0.0,0.0,0.0,0.0,0.0,0.0,0.0,0.0,0.0,0.0,0.0,0.0,0.0,0.0,0.0,0.0,0.0,0.0,0.0,0.0,0.0,0.0,0.0,0.0,0.0,0.0,0.0,0.0,0.0,0.0,0.0,0.0,0.0,0.0,0.0,0.0,0.0,0.0,0.0,0.0,0.0,0.0,0.0,0.0,0.0,0.0,0.0,0.0,0.0,0.0,0.0,0.0,0.0,0.0,0.0,0.0,0.0,0.0,0.0,0.0,0.0,0.0,0.0,0.0,0.0,0.0,0.0,0.0,0.0,0.0,0.0,0.0,0.0,0.0,0.0,0.0,0.0,0.0,0.0,0.0,0.0,0.0,0.0,0.0,0.0,0.0,0.0,0.0,0.0,0.0,0.0,0.0,0.0,0.0,0.0,0.0,0.0,0.0,0.0,0.0,0.0,0.0,0.0,0.0,0.0,0.0,0.0,0.0,0.0,0.0,0.0,0.0,0.0,0.0,0.0,0.0,0.0,0.0,0.0,0.0,0.0,0.0,0.0,0.0,0.0,0.0,0.0,0.0,0.0,0.0,0.0,0.0,0.0,0.0,0.0,0.0,0.0,0.0,0.0,0.0,0.0,0.0,0.0,0.0,0.0,0.0,0.0,0.0,0.0,0.0,0.0,0.0,0.0,0.0,0.0,0.0,0.0,0.0,0.0,0.0,0.0,0.0,0.0,0.0,0.0,0.0,0.0,0.0,0.0,0.0,0.0,0.0,0.0,0.0,0.0,0.0,0.0,0.0,0.0,0.0,0.0,0.0,0.0,0.0,0.0,0.0,0.0,0.0,0.0,0.0,0.0,0.0,0.0,0.0,0.0,0.0,0.0,0.0,0.0,0.0,0.0,0.0,0.0,0.0,0.0,0.0,0.0,0.0,0.0,0.0,0.0,0.0,0.0,0.0,0.0,0.0,0.0,0.0,0.0,0.0,0.0,0.0,0.0,0.0,0.0,0.0,0.0,0.0,0.0,0.0,0.0,0.0,0.0,0.0,0.0,0.0,0.0,0.0,0.0,0.0,0.0,0.0,0.0,0.0,0.0,0.0,0.0,0.0,0.0,0.0,0.0,0.0,0.0,0.0,0.0,0.0,0.0,0.0,0.0,0.0,0.0,0.0,0.0,0.0,0.0,0.0,0.0,0.0,0.0,0.0,0.0,0.0,0.0,0.0,0.0,0.0,0.0,0.0,0.0,0.0,0.0,0.0,0.0,0.0,0.0,0.0,0.0,0.0,0.0,0.0,0.0,0.0,0.0,0.0,0.0,0.0,0.0,0.0,0.0,0.0,0.0,0.0,0.0,0.0,0.0,0.0,0.0,0.0,0.0,0.0,0.0,0.0,0.0,0.0,0.0,0.0,0.0,0.0,0.0,0.0,0.0,0.0,0.0,0.0,0.0,0.0,0.0,0.0,0.0,0.0,0.0,0.0,0.0,0.0,0.0,0.0,0.0,0.0,0.0,0.0,0.0,0.0,0.0,0.0,0.0,0.0,0.0,0.0,0.0,0.0,0.0,0.0,0.0,0.0,0.0,0.0,0.0,0.0,0.0,0.0,0.0,0.0,0.0,0.0,0.0,0.0,0.0,0.0,0.0,0.0,0.0,0.0,0.0,0.0,0.0,0.0,0.0,0.0,0.0,0.0,0.0,0.0,0.0,0.0,0.0,0.0,0.0,0.0,0.0,0.0,0.0,0.0,0.0,0.0,0.0,0.0,0.0,0.0,0.0,0.0,0.0,0.0,0.0,0.0,0.0,0.0,0.0,0.0,0.0,0.0,0.0,0.0,0.0,0.0,0.0,0.0,0.0,0.0,0.0,0.0,0.0,0.0,0.0,0.0,0.0,0.0,0.0,0.0,0.0,0.0,0.0,0.0,0.0,0.0,0.0,0.0,0.0,0.0,0.0,0.0,0.0,0.0,0.0,0.0,0.0,0.0,0.0,0.0,0.0,0.0,0.0,0.0,0.0,0.0,0.0,0.0,0.0,0.0,0.0,0.0,0.0,0.0,0.0,0.0,0.0,0.0,0.0,0.0,0.0,0.0,0.0,0.0,0.0,0.0,0.0,0.0,0.0,0.0,0.0,0.0,0.0,0.0,0.0,0.0,0.0,0.0,0.0,0.0,0.0,0.0,0.0,0.0,0.0,0.0,0.0,0.0,0.0,0.0,0.0,0.0,0.0,0.0,0.0,0.0,0.0,0.0,0.0,0.0,0.0,0.0,0.0,0.0,0.0,0.0,0.0,0.0,0.0,0.0,0.0,0.0,0.0,0.0,0.0,0.0,0.0,0.0,0.0,0.0,0.0,0.0,0.0,0.0,0.0,0.0,0.0,0.0,0.0,0.0,0.0,0.0,0.0,0.0,0.0,0.0,0.0,0.0,0.0,0.0,0.0,0.0,0.0,0.0,0.0,0.0,0.0,0.0,0.0,0.0,0.0,0.0,0.0,0.0,0.0,0.0,0.0,0.0,0.0,0.0,0.0,0.0,0.0,0.0,0.0,0.0,0.0,0.0,0.0,0.0,0.0,0.0,0.0,0.0,0.0,0.0,0.0,0.0,0.0,0.0,0.0,0.0,0.0,0.0,0.0,0.0,0.0,0.0,0.0,0.0,0.0,0.0,0.0,0.0,0.0,0.0,0.0,0.0,0.0,0.0,0.0,0.0,0.0,0.0,0.0,0.0,0.0,0.0,0.0,0.0,0.0,0.0,0.0,0.0,0.0,0.0,0.0,0.0,0.0,0.0,0.0,0.0,0.0,0.0,0.0,0.0,0.0,0.0,0.0,0.0,0.0,0.0,0.0,0.0,0.0,0.0,0.0,0.0,0.0,0.0,0.0,0.0,0.0,0.0,0.0,0.0,0.0,0.0,0.0,0.0,0.0,0.0,0.0,0.0,0.0,0.0,0.0,0.0,0.0,0.0,0.0,0.0,0.0,0.0,0.0,0.0,0.0,0.0,0.0,0.0,0.0,0.0,0.0,0.0,0.0,0.0,0.0,0.0,0.0,0.0,0.0,0.0,0.0,0.0,0.0,0.0,0.0,0.0,0.0,0.0,0.0,0.0,0.0,0.0,0.0,0.0,0.0,0.0,0.0,0.0,-0.2015,0.0,0.0,0.0,0.0,0.0,0.0,0.0,0.0,0.0,0.0,0.0,0.0,0.0,0.0,0.0,0.0,0.0,0.0,0.0,0.0,0.0,0.0,0.0,0.0,0.0,0.0,0.0,0.0,0.0,0.0,0.0,0.0,0.0,0.0,0.0,0.0,0.0,0.0,0.0,0.0,0.0,0.0,0.0,0.0,0.0,0.0,0.0,0.0,0.0,0.0,0.0,0.0,0.0,0.0,0.0,0.0,0.0,0.0,0.0,0.0,0.0,0.0,0.0,0.0,0.0,0.0,0.0,0.0,0.0,0.0,0.0,0.0,0.0,0.0,0.0,0.0,0.0,0.0,0.0,0.0,0.0,0.0,0.0,0.0,0.0,0.0,0.0,0.0,0.0,0.0,0.0,0.0,0.0,0.0,0.0,0.0,0.0,0.0,0.0,0.0,0.0,0.0,0.0,0.0,0.0,0.0,0.0,0.0,0.0,0.0,-0.2057,-0.2015,-0.2226,-0.2282,-0.2127,0.0,0.0,0.0,0.0,0.0,0.0,0.0,0.0,0.0,0.0,0.0,0.0,0.0,0.0,0.0,0.0,0.0,0.0,0.0,0.0,0.0,0.0,0.0,0.0,0.0,0.0,0.0,0.0,0.0,0.0,0.0,0.0,0.0,0.0,0.0,0.0,0.0,0.0,0.0,0.0,0.0,0.0,0.0,0.0,0.0,0.0,0.0,0.0,0.0,0.0,0.0,0.0,0.0,0.0,0.0,0.0,0.0,0.0,0.0,0.0,0.0,0.0,0.0,0.0,0.0,0.0,0.0,0.0,0.0,0.0,0.0,0.0,0.0,0.0,0.0,0.0,0.0,0.0,0.0,0.0,0.0,0.0,0.0,0.0,0.0,0.0,0.0,0.0,0.0,0.0,0.0,0.0,0.0,0.0,0.0,0.0,0.0,0.0,0.0,0.0,0.0,0.0,0.0,0.0,0.0,0.0,0.0,0.0,0.0,0.0,0.0,0.0,-0.2113,-0.2184,-0.2156,0.0,0.0,0.0,0.0,0.0,0.0,0.0,0.0,0.0,0.0,0.0,0.0,0.0,0.0,0.0,0.0,0.0,0.0,0.0,0.0,0.0,0.0,0.0,0.0,0.0,0.0,0.0,0.0,0.0,0.0,0.0,0.0,0.0,0.0,0.0,0.0,0.0,0.0,0.0,0.0,0.0,0.0,0.0,0.0,0.0,0.0,0.0,0.0,0.0,0.0,0.0,0.0,0.0,0.0,0.0,0.0,0.0,0.0,0.0,0.0,0.0,0.0,0.0,0.0,0.0,0.0,0.0,0.0,0.0,0.0,0.0,0.0,0.0,0.0,0.0,0.0,0.0,0.0,0.0,0.0,0.0,0.0,0.0,0.0,0.0,0.0,0.0,0.0,0.0,0.0,0.0,0.0,0.0,0.0,0.0,0.0,0.0,0.0,0.0,0.0,0.0,0.0,0.0,0.0,0.0,0.0,0.0,0.0,0.0,0.0,-0.1947,-0.1824,-0.2074,0.0,-0.2015,0.0,0.0,0.0,0.0,0.0,0.0,0.0,0.0,0.0,0.0,0.0,0.0,0.0,0.0,0.0,0.0,0.0,0.0,0.0,0.0,0.0,0.0,0.0,0.0,0.0,0.0,0.0,0.0,0.0,0.0,0.0,0.0,0.0,0.0,0.0,0.0,0.0,0.0,0.0,0.0,0.0,0.0,0.0,0.0,0.0,0.0,0.0,0.0,0.0,0.0,0.0,0.0,0.0,0.0,0.0,0.0,0.0,0.0,0.0,0.0,0.0,0.0,0.0,0.0,0.0,0.0,0.0,0.0,0.0,0.0,0.0,0.0,0.0,0.0,0.0,0.0,0.0,0.0,0.0,0.0,0.0,0.0,0.0,0.0,0.0,0.0,0.0,0.0,0.0,0.0,0.0,0.0,0.0,0.0,0.0,0.0,0.0,0.0,0.0,0.0,0.0,0.0,0.0,0.0,0.0,0.0,0.0,0.0,0.0,0.0,-0.199,-0.1862,-0.2048,-0.2099,0.0,0.0,0.0,0.0,0.0,0.0,0.0,0.0,0.0,0.0,0.0,0.0,0.0,0.0,0.0,0.0,0.0,0.0,0.0,0.0,0.0,0.0,0.0,0.0,0.0,0.0,0.0,0.0,0.0,0.0,0.0,0.0,0.0,0.0,0.0,0.0,0.0,0.0,0.0,0.0,0.0,0.0,0.0,0.0,0.0,0.0,0.0,0.0,0.0,0.0,0.0,0.0,0.0,0.0,0.0,0.0,0.0,0.0,0.0,0.0,0.0,0.0,0.0,0.0,0.0,0.0,0.0,0.0,0.0,0.0,0.0,0.0,0.0,0.0,0.0,0.0,0.0,0.0,0.0,0.0,0.0,0.0,0.0,0.0,0.0,0.0,0.0,0.0,0.0,0.0,0.0,0.0,0.0,0.0,0.0,0.0,0.0,0.0,0.0,0.0,0.0,0.0,0.0,0.0,0.0,0.0,0.0,0.0,0.0,0.0,-0.2046,-0.2016,-0.1926,-0.1983,-0.2019,-0.1988,0.0,0.0,0.0,0.0,0.0,0.0,0.0,0.0,0.0,0.0,0.0,0.0,0.0,0.0,0.0,0.0,0.0,0.0,0.0,0.0,0.0,0.0,0.0,0.0,0.0,0.0,0.0,0.0,0.0,0.0,0.0,0.0,0.0,0.0,0.0,0.0,0.0,0.0,0.0,0.0,0.0,0.0,0.0,0.0,0.0,0.0,0.0,0.0,0.0,0.0,0.0,0.0,0.0,0.0,0.0,0.0,0.0,0.0,0.0,0.0,0.0,0.0,0.0,0.0,0.0,0.0,0.0,0.0,0.0,0.0,0.0,0.0,0.0,0.0,0.0,0.0,0.0,0.0,0.0,0.0,0.0,0.0,0.0,0.0,0.0,0.0,0.0,0.0,0.0,0.0,0.0,0.0,0.0,0.0,0.0,0.0,0.0,0.0,0.0,0.0,0.0,0.0,0.0,0.0,0.0,0.0,0.0,0.0,-0.2011,-0.2013,-0.197,-0.1899,-0.183,-0.184,0.0,0.0,0.0,0.0,0.0,0.0,0.0,0.0,0.0,0.0,0.0,0.0,0.0,0.0,0.0,0.0,0.0,0.0,0.0,0.0,0.0,0.0,0.0,0.0,0.0,0.0,0.0,0.0,0.0,0.0,0.0,0.0,0.0,0.0,0.0,0.0,0.0,0.0,0.0,0.0,0.0,0.0,0.0,0.0,0.0,0.0,0.0,0.0,0.0,0.0,0.0,0.0,0.0,0.0,0.0,0.0,0.0,0.0,0.0,0.0,0.0,0.0,0.0,0.0,0.0,0.0,0.0,0.0,0.0,0.0,0.0,0.0,0.0,0.0,0.0,0.0,0.0,0.0,0.0,0.0,0.0,0.0,0.0,0.0,0.0,0.0,0.0,0.0,0.0,0.0,0.0,0.0,0.0,0.0,0.0,0.0,0.0,0.0,0.0,0.0,0.0,0.0,0.0,0.0,0.0,0.0,0.0,0.0,0.0,-0.201,-0.2042,-0.2048,-0.1958,-0.1987,-0.199,0.0,0.0,0.0,0.0,0.0,0.0,0.0,0.0,0.0,0.0,0.0,0.0,0.0,0.0,0.0,0.0,0.0,0.0,0.0,0.0,0.0,0.0,0.0,0.0,0.0,0.0,0.0,0.0,0.0,0.0,0.0,0.0,0.0,0.0,0.0,0.0,0.0,0.0,0.0,0.0,0.0,0.0,0.0,0.0,0.0,0.0,0.0,0.0,0.0,0.0,0.0,0.0,0.0,0.0,0.0,0.0,0.0,0.0,0.0,0.0,0.0,0.0,0.0,0.0,0.0,0.0,0.0,0.0,0.0,0.0,0.0,0.0,0.0,0.0,0.0,0.0,0.0,0.0,0.0,0.0,0.0,0.0,0.0,0.0,0.0,0.0,0.0,0.0,0.0,0.0,0.0,0.0,0.0,0.0,0.0,0.0,0.0,0.0,0.0,0.0,0.0,0.0,0.0,0.0,0.0,0.0,0.0,0.0,0.0,-0.2256,0.0,-0.2125,-0.2162,-0.2132,-0.2076,0.0,0.0,0.0,0.0,0.0,0.0,0.0,0.0,0.0,0.0,0.0,0.0,0.0,0.0,0.0,0.0,0.0,0.0,0.0,0.0,0.0,0.0,0.0,0.0,0.0,0.0,0.0,0.0,0.0,0.0,0.0,0.0,0.0,0.0,0.0,0.0,0.0,0.0,0.0,0.0,0.0,0.0,0.0,0.0,0.0,0.0,0.0,0.0,0.0,0.0,0.0,0.0,0.0,0.0,0.0,0.0,0.0,0.0,0.0,0.0,0.0,0.0,0.0,0.0,0.0,0.0,0.0,0.0,0.0,0.0,0.0,0.0,0.0,0.0,0.0,0.0,0.0,0.0,0.0,0.0,0.0,0.0,0.0,0.0,0.0,0.0,0.0,0.0,0.0,0.0,0.0,0.0,0.0,0.0,0.0,0.0,0.0,0.0,0.0,0.0,0.0,0.0,0.0,0.0,0.0,0.0,0.0,0.0,-0.2523,-0.2755,-0.2393,-0.2275,-0.2459,-0.2228,-0.2114,0.0,0.0,0.0,0.0,0.0,0.0,0.0,0.0,0.0,0.0,0.0,0.0,0.0,0.0,0.0,0.0,0.0,0.0,0.0,0.0,0.0,0.0,0.0,0.0,0.0,0.0,0.0,0.0,0.0,0.0,0.0,0.0,0.0,0.0,0.0,0.0,0.0,0.0,0.0,0.0,0.0,0.0,0.0,0.0,0.0,0.0,0.0,0.0,0.0,0.0,0.0,0.0,0.0,0.0,0.0,0.0,0.0,0.0,0.0,0.0,0.0,0.0,0.0,0.0,0.0,0.0,0.0,0.0,0.0,0.0,0.0,0.0,0.0,0.0,0.0,0.0,0.0,0.0,0.0,0.0,0.0,0.0,0.0,0.0,0.0,0.0,0.0,0.0,0.0,0.0,0.0,0.0,0.0,0.0,0.0,0.0,0.0,0.0,0.0,0.0,0.0,0.0,0.0,0.0,0.0,0.0,0.0,0.0,0.0,-0.2368,-0.2268,-0.2224,-0.229,-0.222,-0.2159,0.0,0.0,0.0,0.0,0.0,0.0,0.0,0.0,0.0,0.0,0.0,0.0,0.0,0.0,0.0,0.0,0.0,0.0,0.0,0.0,0.0,0.0,0.0,0.0,0.0,0.0,0.0,0.0,0.0,0.0,0.0,0.0,0.0,0.0,0.0,0.0,0.0,0.0,0.0,0.0,0.0,0.0,0.0,0.0,0.0,0.0,0.0,0.0,0.0,0.0,0.0,0.0,0.0,0.0,0.0,0.0,0.0,0.0,0.0,0.0,0.0,0.0,0.0,0.0,0.0,0.0,0.0,0.0,0.0,0.0,0.0,0.0,0.0,0.0,0.0,0.0,0.0,0.0,0.0,0.0,0.0,0.0,0.0,0.0,0.0,0.0,0.0,0.0,0.0,0.0,0.0,0.0,0.0,0.0,0.0,0.0,0.0,0.0,0.0,0.0,0.0,0.0,0.0,0.0,0.0,0.0,0.0,0.0,0.0,-0.2207,-0.2233,-0.228,-0.2357,-0.2239,-0.2194,-0.2206,0.0,0.0,0.0,0.0,0.0,0.0,0.0,0.0,0.0,0.0,0.0,0.0,0.0,0.0,0.0,0.0,0.0,0.0,0.0,0.0,0.0,0.0,0.0,0.0,0.0,0.0,0.0,0.0,0.0,0.0,0.0,0.0,0.0,0.0,0.0,0.0,0.0,0.0,0.0,0.0,0.0,0.0,0.0,0.0,0.0,0.0,0.0,0.0,0.0,0.0,0.0,0.0,0.0,0.0,0.0,0.0,0.0,0.0,0.0,0.0,0.0,0.0,0.0,0.0,0.0,0.0,0.0,0.0,0.0,0.0,0.0,0.0,0.0,0.0,0.0,0.0,0.0,0.0,0.0,0.0,0.0,0.0,0.0,0.0,0.0,0.0,0.0,0.0,0.0,0.0,0.0,0.0,0.0,0.0,0.0,0.0,0.0,0.0,0.0,0.0,0.0,0.0,0.0,0.0,0.0,0.0,0.0,0.0,-0.2197,-0.2259,-0.2373,-0.2565,-0.234,-0.2195,0.0,0.0,0.0,0.0,0.0,0.0,0.0,0.0,0.0,0.0,0.0,0.0,0.0,0.0,0.0,0.0,0.0,0.0,0.0,0.0,0.0,0.0,0.0,0.0,0.0,0.0,0.0,0.0,0.0,0.0,0.0,0.0,0.0,0.0,0.0,0.0,0.0,0.0,0.0,0.0,0.0,0.0,0.0,0.0,0.0,0.0,0.0,0.0,0.0,0.0,0.0,0.0,0.0,0.0,0.0,0.0,0.0,0.0,0.0,0.0,0.0,0.0,0.0,0.0,0.0,0.0,0.0,0.0,0.0,0.0,0.0,0.0,0.0,0.0,0.0,0.0,0.0,0.0,0.0,0.0,0.0,0.0,0.0,0.0,0.0,0.0,0.0,0.0,0.0,0.0,0.0,0.0,0.0,0.0,0.0,0.0,0.0,0.0,0.0,0.0,0.0,0.0,0.0,0.0,0.0,0.0,0.0,0.0,0.0,-0.2271,-0.2283,-0.2303,-0.2317,-0.2229,-0.2204,0.0,0.0,0.0,0.0,0.0,0.0,0.0,0.0,0.0,0.0,0.0,0.0,0.0,0.0,0.0,0.0,0.0,0.0,0.0,0.0,0.0,0.0,0.0,0.0,0.0,0.0,0.0,0.0,0.0,0.0,0.0,0.0,0.0,0.0,0.0,0.0,0.0,0.0,0.0,0.0,0.0,0.0,0.0,0.0,0.0,0.0,0.0,0.0,0.0,0.0,0.0,0.0,0.0,0.0,0.0,0.0,0.0,0.0,0.0,0.0,0.0,0.0,0.0,0.0,0.0,0.0,0.0,0.0,0.0,0.0,0.0,0.0,0.0,0.0,0.0,0.0,0.0,0.0,0.0,0.0,0.0,0.0,0.0,0.0,0.0,0.0,0.0,0.0,0.0,0.0,0.0,0.0,0.0,0.0,0.0,0.0,0.0,0.0,0.0,0.0,0.0,0.0,0.0,0.0,0.0,0.0,0.0,0.0,-0.2279,-0.2279,-0.2279,-0.2283,-0.2233,-0.2223,-0.2197,0.0,0.0,0.0,0.0,0.0,0.0,0.0,0.0,0.0,0.0,0.0,0.0,0.0,0.0,0.0,0.0,0.0,0.0,0.0,0.0,0.0,0.0,0.0,0.0,0.0,0.0,0.0,0.0,0.0,0.0,0.0,0.0,0.0,0.0,0.0,0.0,0.0,0.0,0.0,0.0,0.0,0.0,0.0,0.0,0.0,0.0,0.0,0.0,0.0,0.0,0.0,0.0,0.0,0.0,0.0,0.0,0.0,0.0,0.0,0.0,0.0,0.0,0.0,0.0,0.0,0.0,0.0,0.0,0.0,0.0,0.0,0.0,0.0,0.0,0.0,0.0,0.0,0.0,0.0,0.0,0.0,0.0,0.0,0.0,0.0,0.0,0.0,0.0,0.0,0.0,0.0,0.0,0.0,0.0,0.0,0.0,0.0,0.0,0.0,0.0,0.0,0.0,0.0,0.0,0.0,0.0,0.0,0.0,-0.239,-0.2316,-0.2371,-0.2369,-0.2325,-0.2249,-0.2212,0.0,0.0,0.0,0.0,0.0,0.0,0.0,0.0,0.0,0.0,0.0,0.0,0.0,0.0,0.0,0.0,0.0,0.0,0.0,0.0,0.0,0.0,0.0,0.0,0.0,0.0,0.0,0.0,0.0,0.0,0.0,0.0,0.0,0.0,0.0,0.0,0.0,0.0,0.0,0.0,0.0,0.0,0.0,0.0,0.0,0.0,0.0,0.0,0.0,0.0,0.0,0.0,0.0,0.0,0.0,0.0,0.0,0.0,0.0,0.0,0.0,0.0,0.0,0.0,0.0,0.0,0.0,0.0,0.0,0.0,0.0,0.0,0.0,0.0,0.0,0.0,0.0,0.0,0.0,0.0,0.0,0.0,0.0,0.0,0.0,0.0,0.0,0.0,0.0,0.0,0.0,0.0,0.0,0.0,0.0,0.0,0.0,0.0,0.0,0.0,0.0,0.0,0.0,0.0,0.0,0.0,0.0,0.0,-0.2935,-0.2474,-0.2934,-0.2906,-0.2385,-0.231,-0.2291,0.0,0.0,0.0,0.0,0.0,0.0,0.0,0.0,0.0,0.0,0.0,0.0,0.0,0.0,0.0,0.0,0.0,0.0,0.0,0.0,0.0,0.0,0.0,0.0,0.0,0.0,0.0,0.0,0.0,0.0,0.0,0.0,0.0,0.0,0.0,0.0,0.0,0.0,0.0,0.0,0.0,0.0,0.0,0.0,0.0,0.0,0.0,0.0,0.3802,0.0,0.0,0.0,0.0,0.0,0.0,0.0,0.0,0.0,0.0,0.0,0.0,0.0,0.0,0.0,0.0,0.0,0.0,0.0,0.0,0.0,0.0,0.0,0.0,0.0,0.0,0.0,0.0,0.0,0.0,0.0,0.0,0.0,0.0,0.0,0.0,0.0,0.0,0.0,0.0,0.0,0.0,0.0,0.0,0.0,0.0,0.0,0.0,0.0,0.0,0.0,0.0,0.0,0.0,0.0,0.0,0.0,0.0,0.0,-0.3563,-0.296,-0.3233,-0.3096,-0.2482,-0.2414,-0.2372,0.0,0.0,0.0,0.0,0.0,0.0,0.0,0.0,0.0,0.0,0.0,0.0,0.0,0.0,0.0,0.0,0.0,0.0,0.0,0.0,0.0,0.0,0.0,0.0,0.0,0.0,0.0,0.0,0.0,0.0,0.0,0.0,0.0,0.0,0.0,0.0,0.0,0.0,0.0,0.0,0.0,0.0,0.0,0.0,0.0,0.0,0.0,0.0,0.0,0.0,0.0,0.0,0.0,0.0,0.0,0.0,0.0,0.0,0.0,0.0,0.0,0.0,0.0,0.0,0.0,0.0,0.0,0.0,0.0,0.0,0.0,0.0,0.0,0.0,0.0,0.0,0.0,0.0,0.0,0.0,0.0,0.0,0.0,0.0,0.0,0.0,0.0,0.0,0.0,0.0,0.0,0.0,0.0,0.0,0.0,0.0,0.0,0.0,0.0,0.0,0.0,0.0,0.0,0.0,0.0,0.0,0.0,-0.4187,-0.4226,-0.3602,-0.3563,-0.3253,-0.2666,-0.251,-0.2407,-0.2331,0.0,0.0,0.0,0.0,0.0,0.0,0.0,0.0,0.0,0.0,0.0,0.0,0.0,0.0,0.0,0.0,0.0,0.0,0.0,0.0,0.0,0.0,0.0,0.0,0.0,0.0,0.0,0.0,0.0,0.0,0.0,0.0,0.0,0.0,0.0,0.0,0.0,0.0,0.3229,0.2906,0.0,0.0,0.0,0.0,0.0,0.0,0.0,0.0,0.3006,0.0,0.0,0.0,0.0,0.0,0.0,0.0,0.0,0.0,0.0,0.0,0.0,0.0,0.0,0.0,0.0,0.0,0.0,0.0,0.0,0.0,0.0,0.0,0.0,0.0,0.0,0.0,0.0,0.0,0.0,0.0,0.0,0.0,0.0,0.0,0.0,0.0,0.0,0.0,0.0,0.0,0.0,0.0,0.0,0.0,0.0,0.0,0.0,0.0,0.0,0.0,0.0,0.0,0.0,0.0,0.0,-0.3971,-0.4752,-0.4851,-0.4265,-0.4226,-0.3917,-0.3251,-0.2588,-0.2305,-0.2444,0.0,0.0,0.0,0.0,0.0,0.0,0.0,0.0,0.0,0.0,0.0,0.0,0.0,0.0,0.0,0.0,0.0,0.0,0.0,0.0,0.0,0.0,0.0,0.0,0.0,0.0,0.0,0.0,0.0,0.0,0.0,0.0,0.0,0.0,0.0,0.0,0.0,0.0,0.0,0.2094,0.1808,0.0,0.0,0.0,0.0,0.0,0.0,0.0,0.0,0.2452,0.0,0.0,0.0,0.0,0.0,0.0,0.0,0.0,0.0,0.0,0.0,0.0,0.0,0.0,0.0,0.0,0.0,0.0,0.0,0.0,0.0,0.0,0.0,0.0,0.0,0.0,0.0,0.0,0.0,0.0,0.0,0.0,0.0,0.0,0.0,0.0,0.0,0.0,0.0,0.0,0.0,0.0,0.0,0.0,0.0,0.0,0.0,0.0,0.0,0.0,0.0,0.0,0.0,0.0,0.0,-0.4594,-0.5257,-0.5318,-0.4752,-0.4713,-0.4187,-0.3136,-0.2805,-0.2532,0.0,0.0,0.0,0.0,0.0,0.0,0.0,0.0,0.0,0.0,0.0,0.0,0.0,0.0,0.0,0.0,0.0,0.0,0.0,0.0,0.0,0.0,0.0,0.0,0.0,0.0,0.0,0.0,0.0,0.0,0.0,0.0,0.0,0.0,0.0,0.0,0.0,0.0,0.0,0.0,0.1753,0.1366,0.0736,0.0,0.0,0.0,0.0,0.0,0.0,0.1913,0.239,0.0,0.0,0.0,0.0,0.0,0.0,0.0,0.0,0.0,0.0,0.0,0.0,0.0,0.0,0.0,0.0,0.0,0.0,0.0,0.0,0.0,0.0,0.0,0.0,0.0,0.0,0.0,0.0,0.0,0.0,0.0,0.0,0.0,0.0,0.0,0.0,0.0,0.0,0.0,0.0,0.0,0.0,0.0,0.0,0.0,0.0,0.0,0.0,0.0,0.0,0.0,0.0,0.0,0.0,0.0,-0.5062,-0.5573,-0.5612,-0.5143,-0.5046,-0.4421,-0.3235,-0.3176,-0.2845,0.0,0.0,0.0,0.0,0.0,0.0,0.0,0.0,0.0,0.0,0.0,0.0,0.0,0.0,0.0,0.0,0.0,0.0,0.0,0.0,0.0,0.0,0.0,0.0,0.0,0.0,0.0,0.0,0.0,0.0,0.0,0.0,0.0,0.0,0.0,0.0,0.0,0.0,0.0,0.0,0.0,0.0937,0.0469,0.039,0.0,0.0,0.0,0.0,0.0762,0.1702,0.0,0.0,0.0,0.0,0.0,0.0,0.0,0.0,0.0,0.0,0.0,0.0,0.0,0.0,0.0,0.0,0.0,0.0,0.0,0.0,0.0,0.0,0.0,0.0,0.0,0.0,0.0,0.0,0.0,0.0,0.0,0.0,0.0,0.0,0.0,0.0,0.0,0.0,0.0,0.0,0.0,0.0,0.0,0.0,0.0,0.0,0.0,0.0,0.0,0.0,0.0,0.0,0.0,0.0,0.0,0.0,-0.5259,-0.5518,-0.5595,-0.5521,-0.5185,-0.4832,-0.4484,-0.3761,-0.3233,0.0,0.0,0.0,0.0,0.0,0.0,0.0,0.0,0.0,0.0,0.0,0.0,0.0,0.0,0.0,0.0,0.0,0.0,0.0,0.0,0.0,0.0,0.0,0.0,0.0,0.0,0.0,0.0,0.0,0.0,0.0,0.0,0.0,0.0,0.0,0.0,0.0,0.0,0.0,0.0,0.0,0.049,0.0401,0.0402,0.0447,0.0,0.0,0.0561,0.0695,0.083,0.0,0.0,0.0,0.0,0.0,0.0,0.0,0.0,0.0,0.0,0.0,0.0,0.0,0.0,0.0,0.0,0.0,0.0,0.0,0.0,0.0,0.0,0.0,0.0,0.0,0.0,0.0,0.0,0.0,0.0,0.0,0.0,0.0,0.0,0.0,0.0,0.0,0.0,0.0,0.0,0.0,0.0,0.0,0.0,0.0,0.0,0.0,0.0,0.0,0.0,0.0,0.0,0.0,0.0,0.0,-0.5547,-0.5908,-0.5926,-0.5986,-0.6039,-0.5894,-0.5436,-0.4676,-0.4391,-0.3772,0.0,0.0,0.0,0.0,0.0,0.0,0.0,0.0,0.0,0.0,0.0,0.0,0.0,0.0,0.0,0.0,0.0,0.0,0.0,0.0,0.0,0.0,0.0,0.0,0.0,0.0,0.0,0.0,0.0,0.0,0.0,0.0,0.0,0.0,0.0,0.0,0.0,0.0,0.0,0.0,0.0,0.0,0.0426,0.0493,0.0,0.0,0.0,0.0605,0.0673,0.0,0.0,0.0,0.0,0.0,0.0,0.0,0.0,0.0,0.0,0.0,0.0,0.0,0.0,0.0,0.0,0.0,0.0,0.0,0.0,0.0,0.0,0.0,0.0,0.0,0.0,0.0,0.0,0.0,0.0,0.0,0.0,0.0,0.0,0.0,0.0,0.0,0.0,0.0,0.0,0.0,0.0,0.0,0.0,0.0,0.0,0.0,0.0,0.0,0.0,0.0,0.0,0.0,0.0,0.0,0.0,0.0,-0.6315,-0.6223,-0.6219,-0.6315,-0.6381,-0.5962,-0.5012,-0.5088,0.0,0.0,0.0,0.0,0.0,0.0,0.0,0.0,0.0,0.0,0.0,0.0,0.0,0.0,0.0,0.0,0.0,0.0,0.0,0.0,0.0,0.0,0.0,0.0,0.0,0.0,0.0,0.1529,0.0,0.0,0.0,0.0,0.0,0.0,0.0,0.0,0.0,0.0,0.0,0.0,0.0,0.0,0.0561,0.0404,0.0538,0.0628,0.0,0.0,0.0628,0.0695,0.1009,0.1101,0.0,0.0,0.0,0.0,0.0,0.0,0.0,0.0,0.0,0.0,0.0,0.0,0.0,0.0,0.0,0.0,0.0,0.0,0.0,0.0,0.0,0.0,0.0,0.0,0.0,0.0,0.0,0.0,0.0,0.0,0.0,0.0,0.0,0.0,0.0,0.0,0.0,0.0,0.0,0.0,0.0,0.0,0.0,0.0,0.0,0.0,0.0,0.0,0.0,0.0,0.0,0.0,0.0,0.0,-0.6282,-0.6114,-0.6111,-0.6132,-0.6117,-0.6301,-0.6253,-0.6001,-0.5832,-0.5598,0.0,0.0,0.0,0.0,0.0,0.0,0.0,0.0,0.0,0.0,0.0,0.0,0.0,0.0,0.0,0.0,0.0,0.0,0.0,0.0,0.0,0.0,0.0,0.0,0.0,0.0,0.0,0.0,0.0,0.0,0.0,0.0,0.0,0.0,0.0,0.0,0.0,0.0,0.0,0.0,0.0,0.0426,0.0404,0.0404,0.0493,0.0,0.0538,0.0471,0.0673,0.0718,0.0745,0.069,0.0,0.0,0.0,0.0,0.0,0.0,0.0,0.0,0.0,0.0,0.0,0.0,0.0,0.0,0.0,0.0,0.0,0.0,0.0,0.0,0.0,0.0,0.0,0.0,0.0,0.0,0.0,0.0,0.0,0.0,0.0,0.0,0.0,0.0,0.0,0.0,0.0,0.0,0.0,0.0,0.0,0.0,0.0,0.0,0.0,0.0,0.0,0.0,0.0,0.0,0.0,0.0,0.0,-0.6622,-0.6729,-0.6629,-0.6629,-0.6708,-0.6797,-0.669,-0.6417,-0.6347,-0.6054,0.0,0.0,0.0,0.0,0.0,0.0,0.0,0.0,0.0,0.0,0.0,0.0,0.0,0.0,0.0,0.0,0.0,0.0,0.0,0.0,0.0,0.0,0.0,0.0,0.0,0.0,0.0,0.0,0.0059,0.0079,0.0,0.0,0.0,0.0,0.0,0.0,0.0,0.0,0.0,0.0,0.0,-0.0561,-0.0695,-0.0605,0.0,0.0,-0.0471,-0.0493,-0.0426,-0.0023,0.0229,0.0046,0.0421,0.0,0.0,0.0,0.0,0.0,0.0,0.0,0.0,0.0,0.0,0.0,0.0,0.0,0.0,0.0,0.0,0.0,0.0,0.0,0.0,0.0,0.0,0.0,0.0,0.0,0.0,0.0,0.0,0.0,0.0,0.0,0.0,0.0,0.0,0.0,0.0,0.0,0.0,0.0,0.0,0.0,0.0,0.0,0.0,0.0,0.0,0.0,0.0,0.0,0.0,0.0,0.0,-0.6911,-0.7117,-0.6997,-0.7019,-0.7117,-0.7117,-0.7001,-0.6774,-0.6749,-0.6506,0.0,0.0,0.0,0.0,0.0,0.0,0.0,0.0,0.0,0.0,0.0,0.0,0.0,0.0,0.0,0.0,0.0,0.0,0.0,0.0,0.0,0.0,0.0,0.0,0.0,0.0,0.0,0.0,-0.0638,-0.0666,-0.0656,0.0,0.0,0.0,0.0,0.0,0.0,0.0,0.0,0.0,0.0,-0.1519,-0.1665,-0.1576,-0.1461,-0.137,-0.1439,-0.1461,-0.1393,-0.0994,-0.0771,-0.0964,0.0,0.0,0.0,0.0,0.0,0.0,0.0,0.0,0.0,0.0,0.0,0.0,0.0,0.0,0.0,0.0,0.0,0.0,0.0,0.0,0.0,0.0,0.0,0.0,0.0,0.0,0.0,-1.0438,0.0,0.0,-0.9846,0.0,0.0,0.0,0.0,0.0,0.0,0.0,0.0,0.0,0.0,0.0,0.0,0.0,0.0,0.0,0.0,0.0,0.0,0.0,0.0,0.0,0.0,-0.7114,-0.7121,-0.7124,-0.7098,-0.7124,-0.7121,-0.7102,-0.7098,-0.7092,-0.7092,-0.7037,0.0,0.0,0.0,0.0,0.0,0.0,0.0,0.0,0.0,0.0,0.0,0.0,0.0,0.0,0.0,0.0,0.0,0.0,0.0,0.0,0.0,0.0,0.0,0.0,0.0,0.0,-0.1904,-0.2071,-0.2139,0.0,0.0,0.0,0.0,0.0,0.0,0.0,0.0,0.0,0.0,-0.2261,-0.2302,-0.2393,-0.2376,-0.2302,-0.2041,-0.2208,-0.228,-0.2042,-0.2187,-0.2372,0.0,0.0,0.0,0.0,0.0,0.0,0.0,0.0,0.0,0.0,0.0,0.0,0.0,0.0,0.0,0.0,0.0,0.0,0.0,0.0,0.0,0.0,0.0,0.0,0.0,0.0,0.0,-1.104,-1.0706,0.0,0.0,0.0,0.0,0.0,0.0,0.0,0.0,0.0,0.0,0.0,-0.857,-0.8576,0.0,0.0,0.0,0.0,0.0,0.0,0.0,0.0,0.0,0.0,0.0,0.0,-0.7729,-0.7714,-0.7721,-0.7629,-0.7444,-0.7606,-0.7629,-0.7425,-0.7606,-0.758,-0.7299,0.0,0.0,0.0,0.0,0.0,0.0,0.0,0.0,0.0,0.0,0.0,0.0,0.0,0.0,0.0,0.0,0.0,0.0,0.0,0.0,0.0,0.0,0.0,0.0,0.0,-0.2123,0.0,0.0,0.0,0.0,0.0,0.0,0.0,0.0,0.0,0.0,0.0,-0.2557,-0.2798,-0.2994,-0.3168,-0.338,-0.3409,-0.3361,0.0,0.0,0.0,0.0,0.0,0.0,0.0,0.0,0.0,0.0,0.0,0.0,0.0,0.0,-0.1163,-0.0198,-0.0273,-0.0521,-0.0545,0.0,0.0,0.0,0.0,0.0,0.0,0.0,0.0,0.0,0.0,0.0,0.0,0.0,0.0,-1.1428,0.0,-1.1089,0.0,0.0,0.0,0.0,0.0,0.0,0.0,0.0,-0.9518,-0.9489,-0.9431,-0.9613,-0.9658,0.0,-0.968,-0.9292,0.0,0.0,0.0,0.0,0.0,0.0,0.0,0.0,-0.874,-0.8683,-0.8528,-0.834,-0.8157,-0.8157,-0.802,-0.7762,-0.7808,-0.7736,-0.7478,-0.722,-0.7144,0.0,0.0,0.0,0.0,0.0,0.0,0.0,0.0,0.0,0.0,0.0,0.0,0.0,0.0,0.0,0.0,0.0,0.0,0.0,0.0,0.0,0.0,0.0,-0.3145,0.0,0.0,0.0,0.0,0.0,0.0,0.0,0.0,0.0,-0.3311,-0.3267,-0.3388,-0.3625,-0.3802,-0.3981,-0.4201,0.0,0.0,0.0,0.0,0.0,0.0,0.0,-0.3489,-0.3663,-0.3451,-0.3126,-0.2849,-0.2823,-0.2748,-0.2447,0.0,0.0,-0.106,-0.1136,-0.1363,-0.1363,-0.1363,-0.1338,-0.1363,-0.1363,-0.1358,0.0,0.0,0.0,0.0,0.0,0.0,0.0,0.0,-1.1912,-1.1806,0.0,-1.1582,0.0,0.0,0.0,0.0,-1.0926,-1.0857,0.0,0.0,-1.135,-1.1252,-1.0675,-1.089,-1.0663,-1.003,-1.0531,-1.0746,-1.0696,-1.0042,0.0,0.0,0.0,0.0,0.0,0.0,-1.006,-1.0032,-0.9524,-0.9264,-0.9244,-0.8781,-0.8386,-0.8155,-0.7869,-0.7725,-0.7698,-0.7664,-0.7617,-0.7641,-0.7478,0.0,0.0,0.0,0.0,0.0,0.0,0.0,0.0,0.0,0.0,0.0,0.0,0.0,0.0,0.0,0.0,0.0,0.0,0.0,0.0,-0.4829,0.0,0.0,0.0,0.0,0.0,0.0,0.0,0.0,0.0,0.0,-0.4968,-0.4746,-0.4612,-0.4681,0.0,0.0,0.0,0.0,-0.4709,-0.4458,-0.4611,-0.4682,-0.446,-0.4611,-0.4757,-0.4782,0.0,0.0,-0.3758,-0.3659,-0.3438,-0.2678,-0.2809,-0.2805,-0.2605,-0.245,-0.2396,-0.2396,-0.2396,-0.2422,-0.2424,-0.2402,-0.2401,-1.4914,0.0,0.0,0.0,0.0,-1.267,-1.2435,-1.2204,-1.2204,-1.2054,-1.18,-1.18,0.0,0.0,0.0,0.0,0.0,0.0,-1.1473,-1.1679,-1.167,-1.164,-1.1602,-1.1666,-1.1695,-1.1679,-1.186,-1.1914,-1.1907,-1.1713,-1.1333,-1.0824,0.0,0.0,0.0,0.0,-1.1185,-1.113,-1.0817,-1.0624,-1.0639,-1.0479,-1.0362,-1.029,-0.9751,-0.9465,-0.9441,-0.8632,-0.8263,-0.8434,-0.769,0.0,0.0,0.0,0.0,0.0,0.0,0.0,0.0,0.0,0.0,0.0,0.0,0.0,0.0,0.0,0.0,0.0,0.0,0.0,-0.4915,-0.504,-0.5076,0.0,0.0,0.0,0.0,0.0,0.0,0.0,0.0,0.0,-0.5794,-0.5167,-0.4751,0.0,0.0,-0.4807,-0.4946,-0.4875,-0.4784,-0.4711,-0.4587,0.0,-0.4686,-0.4587,-0.4585,-0.4759,-0.4888,-0.4856,-0.4625,-0.4623,-0.4663,-0.4659,-0.4739,-0.4818,-0.4864,-0.3847,-0.3058,-0.2978,-0.2978,-0.2991,-0.3075,-0.3111,-0.3148,-1.6316,-1.5048,-1.4545,-1.4004,-1.3526,-1.3368,-1.3083,-1.2774,-1.2774,-1.267,-1.2486,-1.2398,-1.2425,-1.2474,-1.2314,0.0,0.0,0.0,-1.1822,-1.2002,-1.194,-1.2006,-1.2175,-1.2344,-1.2537,-1.272,-1.2908,-1.2991,-1.2992,-1.2985,-1.2709,-1.2135,0.0,0.0,-1.1907,-1.2055,-1.2099,-1.2052,-1.1702,-1.1556,-1.1668,-1.1365,-1.1149,-1.1047,-1.0561,-1.0281,-1.0281,-0.9564,-0.9267,-0.9414,-0.8772,-0.8406,0.0,0.0,0.0,0.0,0.0,0.0,0.0,0.0,0.0,0.0,0.0,-0.5617,-0.5507,0.0,0.0,0.0,-0.5379,-0.5446,-0.5423,-0.5519,0.0,0.0,0.0,0.0,0.0,0.0,0.0,-0.5984,-0.5743,-0.5685,-0.5977,-0.5615,-0.5319,-0.5398,-0.5315,-0.5298,-0.5383,0.0,-0.5225,-0.515,-0.4968,-0.4891,-0.4917,-0.4793,-0.4741,-0.4891,-0.4988,-0.505,-0.5054,-0.5073,-0.521,-0.5501,-0.5501,-0.553,-0.5929,-0.4964,-0.4198,-0.4303,-0.4328,-0.4345,-0.4415,-0.4421,-0.4439,-1.7686,-1.7283,-1.638,-1.5369,-1.4405,-1.4353,-1.4081,-1.3674,-1.3667,-1.3624,-1.3546,-1.337,-1.3349,-1.3442,-1.3048,0.0,-1.2715,-1.2237,-1.2076,-1.2144,-1.2337,-1.2459,-1.2542,-1.2975,-1.3201,-1.3282,-1.3675,-1.3906,-1.3914,-1.3915,-1.3948,-1.3911,-1.3015,-1.2693,-1.2902,-1.2937,-1.2972,-1.2964,-1.2456,-1.2294,-1.2521,-1.1805,-1.1296,-1.1076,-1.0777,-1.0654,-1.0609,-1.056,-1.0507,-1.0502,-1.031,-1.0108,-0.9831,0.0,0.0,0.0,0.0,0.0,0.0,0.0,0.0,0.0,0.0,0.0,0.0,0.0,0.0,0.0,-0.6045,0.0,-0.6285,-0.6304,0.0,0.0,0.0,-0.636,-0.6139,-0.6152,-0.6102,-0.5874,0.0,0.0,-0.6012,-0.6264,-0.636,-0.6259,-0.6097,-0.6037,-0.6073,-0.6064,-0.5958,-0.5708,-0.5739,-0.5602,-0.5169,-0.5075,-0.5063,-0.5102,-0.5135,-0.5149,-0.5153,-0.5138,-0.5289,-0.5652,-0.542,-0.5404,-0.5959,-0.5835,-0.5734,-0.5961,-0.5948,-0.5953,-0.5885,-0.59,-0.5887,-1.9653,-1.8718,-1.8582,-1.7537,-1.5954,-1.5733,-1.5433,-1.5109,-1.5102,-1.5035,-1.4915,-1.4873,-1.4601,-1.416,-1.4051,-1.371,-1.3227,-1.31,-1.3178,-1.3364,-1.3414,-1.3492,-1.3536,-1.3654,-1.3727,-1.3734,-1.3852,-1.3998,-1.4186,-1.419,-1.4195,-1.4194,-1.3967,-1.3876,-1.3954,-1.4145,-1.4349,-1.4563,-1.4021,-1.3684,-1.3521,-1.3346,-1.3225,-1.3152,-1.291,-1.2657,-1.2462,-1.1927,-1.1512,-1.1316,-1.0707,-1.0314,-1.0265,-1.0051,0.0,0.0,0.0,0.0,0.0,0.0,0.0,0.0,0.0,-0.7914,-0.7914,0.0,-0.7181,0.0,-0.7889,-0.7946,-0.7915,-0.7967,0.0,0.0,-0.7835,-0.7807,-0.7928,-0.7839,-0.7791,-0.794,-0.7914,-0.7909,-0.7996,-0.8068,-0.8119,-0.8165,-0.7097,-0.6433,-0.6698,-0.6717,-0.6585,-0.6352,-0.6804,-0.6743,-0.5468,-0.5142,-0.5239,-0.5306,-0.5395,-0.5412,-0.5412,-0.5443,-0.5659,-0.6203,-0.6091,-0.6122,-0.6655,-0.6493,-0.6427,-0.6643,-0.6349,-0.6008,-0.6058,-0.6164,-0.624,-2.0813,-2.0176,-2.0254,-1.9503,-1.8204,-1.7236,-1.6609,-1.6323,-1.6316,-1.6263,-1.6173,-1.601,-1.5568,-1.5005,-1.497,-1.4881,-1.4653,-1.4234,-1.4199,-1.4476,-1.4173,-1.4097,-1.4262,-1.4262,-1.4383,-1.462,-1.462,-1.477,-1.504,-1.5064,-1.5056,-1.5069,-1.505,-1.5032,-1.5008,-1.4693,-1.4604,-1.474,-1.4473,-1.4168,-1.3906,-1.3893,-1.3841,-1.3714,-1.3563,-1.3418,-1.3292,-1.2905,-1.2589,-1.2438,-1.2005,-1.1731,-1.1609,-1.1292,-1.1071,0.0,0.0,0.0,0.0,0.0,0.0,0.0,0.0,0.0,0.0,0.0,-0.8081,-0.8666,-0.8635,-0.8664,-0.8813,-0.8728,-0.8674,-0.8653,-0.8621,-0.8643,-0.8816,-0.8794,-0.884,-0.8995,-0.8975,-0.8962,-0.8927,-0.8925,-0.8896,-0.8899,-0.8098,-0.7597,-0.7792,-0.7831,-0.7678,-0.7409,-0.7789,-0.7651,-0.6262,-0.5919,-0.5862,-0.5917,-0.5968,-0.6001,-0.5974,-0.6018,-0.6199,-0.6669,-0.6552,-0.6528,-0.7054,-0.699,-0.6871,-0.7076,-0.6912,-0.6692,-0.6733,-0.6791,-0.6855,-2.143,-2.1482,-2.143,-2.1123,-2.056,-1.8894,-1.7903,-1.7492,-1.7485,-1.7473,-1.7427,-1.7073,-1.6601,-1.6018,-1.6018,-1.6156,-1.6357,-1.5497,-1.5325,-1.5624,-1.5026,-1.4839,-1.5037,-1.5037,-1.524,-1.5628,-1.5618,-1.5766,-1.6092,-1.6055,-1.6062,-1.61,-1.6094,-1.6068,-1.5978,-1.508,-1.4586,-1.4557,-1.4524,-1.437,-1.4105,-1.404,-1.3899,-1.3728,-1.3646,-1.3605,-1.3585,-1.3581,-1.3539,-1.3497,-1.3497,-1.3394,-1.3147,-1.2535,-1.2073,0.0,-1.1145,0.0,0.0,0.0,0.0,0.0,0.0,0.0,0.0,-0.9168,-0.9017,-0.9192,-0.9108,-0.9175,-0.9522,-0.9335,-0.9202,-0.9206,-0.9349,-0.945,-0.9454,-0.9605,-0.9687,-0.9687,-0.9677,-0.9625,-0.9501,-0.9465,-0.9439,-0.934,-0.9295,-0.9281,-0.9247,-0.9099,-0.8872,-0.8706,-0.8584,-0.8258,-0.7715,-0.7214,-0.6859,-0.6789,-0.6774,-0.674,-0.6629,-0.66,-0.6744,-0.7007,-0.6872,-0.684,-0.7389,-0.7244,-0.7154,-0.7405,-0.7413,-0.7418,-0.7418,-0.7455,-0.7511,-2.1593,-2.185,-2.1542,-2.1526,-2.1641,-2.0995,-2.0047,-1.8987,-1.8987,-1.8913,-1.8826,-1.8751,-1.8346,-1.7758,-1.7728,-1.748,-1.7022,-1.6848,-1.6898,-1.7191,-1.7033,-1.69,-1.6827,-1.6788,-1.6671,-1.6395,-1.6225,-1.6303,-1.6563,-1.6336,-1.6361,-1.6577,-1.6571,-1.655,-1.6548,0.0,0.0,0.0,-1.5707,-1.545,-1.5193,-1.4769,-1.4646,-1.4781,-1.4381,0.0,-1.4145,-1.394,-1.3738,-1.3491,-1.3497,0.0,0.0,0.0,0.0,0.0,0.0,0.0,0.0,0.0,0.0,0.0,-1.1966,-1.1414,-1.1463,-1.139,-1.1085,-1.0553,-1.1001,-1.1366,-1.1482,-1.1374,-1.1323,-1.1333,-1.1297,-1.1292,-1.1297,-1.1264,-1.1256,-1.1256,-1.1196,-1.1056,-1.0786,-1.0967,-1.1002,-1.0692,-1.0907,-1.1072,-1.1057,-1.0237,-0.9647,-0.9533,-0.9143,-0.8902,-0.9252,-0.8691,-0.8102,-0.7799,-0.7653,-0.7466,-0.6978,-0.6862,-0.6955,-0.7281,-0.7081,-0.6985,-0.7347,-0.7142,-0.7067,-0.7349,-0.741,-0.7416,-0.7477,-0.76,-0.7665,-2.1826,-2.1687,-2.1466,-2.143,0.0,-2.1422,-2.0915,-2.0155,-2.0269,-2.0042,-1.9648,-1.9787,-1.9471,-1.8844,-1.8973,-1.888,-1.8611,-1.8252,-1.82,-1.8367,-1.801,-1.7803,-1.7683,-1.7707,-1.7656,-1.7527,-1.744,-1.7515,-1.7772,-1.7452,-1.735,-1.7492,-1.7272,-1.708,-1.6955,-1.6955,-1.6798,-1.6494,-1.6243,-1.5976,-1.5704,-1.5469,-1.5275,-1.5095,-1.4966,0.0,0.0,0.0,0.0,0.0,0.0,0.0,0.0,-1.4078,0.0,-1.3905,-1.3626,-1.3557,-1.3676,-1.3239,-1.3039,-1.3269,-1.2965,-1.2541,-1.202,-1.2005,-1.1923,-1.1747,-1.189,-1.2044,-1.2249,-1.2031,-1.1845,-1.1854,-1.1902,-1.1952,-1.1971,-1.2003,-1.2043,-1.2021,-1.2023,-1.1869,-1.1568,-1.1673,-1.1694,-1.153,-1.163,-1.1772,-1.1823,-1.1301,-1.0818,-1.0739,-1.0242,-0.9917,-1.0036,-0.9638,-0.9058,-0.8498,-0.836,-0.8086,-0.7508,-0.7388,-0.7447,-0.76,-0.7508,-0.7477,-0.7566,-0.7508,-0.7447,-0.7597,-0.7658,-0.7662,-0.7684,-0.7774,-0.7804,-2.2078,-2.1652,-2.1583,-2.1462,-2.1356,-2.1533,-2.1512,-2.1283,-2.1298,0.0,0.0,-2.0615,-2.0386,-1.9861,-2.007,-2.0211,-2.0286,-1.965,-1.9401,-1.9461,-1.8805,-1.8458,-1.8427,-1.8411,-1.8512,-1.8681,-1.8647,-1.8776,-1.8946,-1.859,-1.8423,-1.8369,-1.8032,-1.7708,-1.7461,-1.7515,-1.7325,-1.6937,-1.6612,-1.6354,-1.6145,-1.6081,-1.5808,-1.5322,-1.5448,-1.5392,-1.5173,-1.5106,-1.5113,-1.5113,-1.5113,-1.5005,-1.4796,-1.4771,-1.4689,-1.446,-1.42,-1.4072,-1.4098,-1.3802,-1.3629,-1.366,-1.3603,-1.3207,-1.2314,-1.2269,-1.242,-1.2826,-1.2425,-1.2349,-1.273,-1.2373,-1.2082,-1.2082,-1.2221,-1.2329,-1.2338,-1.2467,-1.254,-1.2495,-1.2491,-1.2359,-1.2028,-1.2032,-1.2055,-1.1982,-1.2022,-1.2157,-1.2322,-1.2148,-1.1875,-1.1691,-1.1442,-1.1219,-1.0925,-1.0647,-1.0054,-0.9576,-0.9427,-0.9092,-0.8601,-0.8419,-0.8358,-0.8208,-0.8147,-0.8083,-0.7933,-0.7872,-0.7903,-0.7903,-0.7903,-0.7911,-0.793,-0.7935,-0.7965,-2.2385,-2.2567,-2.2246,-2.2467,-2.3007,-2.2684,-2.2622,-2.2744,-2.2024,-2.1648,-2.1552,-2.1599,-2.1446,-2.1144,-2.1182,-2.1193,-2.1204,-2.0802,-2.0653,-2.0632,-2.0194,-1.9882,-1.9654,-1.9631,-1.9573,-1.9448,-1.9256,-1.9209,-1.9192,-1.897,-1.8819,-1.8802,-1.8741,-1.8612,-1.8438,-1.8686,-1.8476,-1.7741,-1.7311,-1.7061,-1.7009,-1.6516,-1.6231,-1.6128,-1.5716,-1.5484,-1.5459,-1.5234,-1.5113,-1.5113,-1.5113,-1.5081,-1.5056,-1.5037,-1.5031,-1.498,-1.472,-1.4695,-1.4904,-1.4466,-1.418,-1.4154,-1.397,-1.3687,-1.3333,-1.3276,-1.3318,-1.3375,-1.3273,-1.3309,-1.3357,-1.3216,-1.311,-1.3125,-1.3128,-1.3134,-1.3097,-1.31,-1.3044,-1.2849,-1.2854,-1.2609,-1.2191,-1.2223,-1.2334,-1.2321,-1.2505,-1.2815,-1.3009,-1.2809,-1.2413,-1.2248,-1.2432,-1.2484,-1.2153,-1.2269,-1.186,-1.1484,-1.1273,-1.091,-1.024,-1.0152,-0.991,-0.9244,-0.9122,-0.8815,-0.8175,-0.7903,-0.7939,-0.7941,-0.7916,-0.7941,-0.8033,-0.8095,-0.8077,-2.2646,-2.2449,-2.2271,-2.2395,-2.2742,-2.2744,-2.2892,-2.3087,-2.2943,-2.2558,-2.2066,-2.2295,-2.2185,-2.1858,-2.2105,-2.2058,-2.1826,-2.145,-2.113,-2.0872,-2.064,-2.0503,-2.0462,-2.0554,-2.0587,-2.0557,-2.048,-2.0353,-2.0142,-1.9798,-1.9624,-1.9624,-1.9562,-1.9494,-1.9426,-1.957,-1.9466,-1.9082,-1.8274,-1.7648,-1.7199,-1.7062,-1.6839,-1.6544,-1.6423,-1.634,-1.6146,-1.5883,-1.5744,-1.5744,-1.5614,-1.5529,-1.5529,-1.5535,-1.5535,-1.5529,-1.5274,-1.5202,-1.5306,-1.4934,-1.4661,-1.4693,-1.4562,-1.443,-1.4331,-1.3807,-1.3534,-1.3653,-1.3533,-1.3508,-1.3578,-1.3449,-1.3346,-1.3351,-1.3313,-1.3315,-1.3293,-1.3293,-1.3266,-1.3157,-1.3125,-1.3017,-1.2745,-1.2686,-1.2771,-1.2923,-1.315,-1.3368,-1.3518,-1.3348,-1.3107,-1.2822,-1.2929,-1.288,-1.2686,-1.2653,-1.2444,-1.1907,-1.1816,-1.1514,-1.0944,-1.0823,-1.0641,-1.0247,-1.0092,-0.9727,-0.8845,-0.8665,-0.8478,-0.8057,-0.8001,-0.805,-0.8151,-0.8201,-0.825,-2.3148,-2.2649,-2.2536,-2.25,-2.2512,-2.2929,-2.3197,-2.3371,-2.3734,-2.3403,-2.2679,-2.2954,-2.2883,-2.2529,-2.2859,-2.2811,-2.2452,-2.1969,-2.1547,-2.1185,-2.0895,-2.0863,-2.1026,-2.1168,-2.1304,-2.1475,-2.1429,-2.1259,-2.0992,-2.064,-2.0451,-2.0459,-2.0433,-2.0366,-2.0323,-2.0393,-2.0356,-2.0151,-1.9369,-1.8501,-1.7622,-1.7608,-1.7338,-1.6869,-1.706,-1.706,-1.6703,-1.6457,-1.6297,-1.6271,-1.6105,-1.5971,-1.5912,-1.5945,-1.5945,-1.5891,-1.5711,-1.5583,-1.5589,-1.5336,-1.5196,-1.5196,-1.5148,-1.5089,-1.5034,-1.4352,-1.3863,-1.3947,-1.3821,-1.3736,-1.3771,-1.3635,-1.3505,-1.351,-1.3505,-1.3537,-1.351,-1.351,-1.3456,-1.3423,-1.3369,-1.3374,-1.3288,-1.3071,-1.3024,-1.3292,-1.3634,-1.3794,-1.3718,-1.3688,-1.3569,-1.3414,-1.3324,-1.3255,-1.296,-1.293,-1.2754,-1.2268,-1.2268,-1.2122,-1.1726,-1.1514,-1.1299,-1.1209,-1.088,-1.0365,-0.9609,-0.9062,-0.8732,-0.822,-0.8107,-0.8077,-0.8164,-0.838,-0.8467,-2.407,-2.3962,-2.3542,-2.3386,-2.339,-2.3865,-2.4054,-2.407,-2.4134,-2.3992,-2.3626,-2.3721,-2.3545,-2.3315,-2.3347,-2.332,-2.3175,-2.2484,-2.2097,-2.1961,-2.132,-2.1173,-2.1484,-2.134,-2.1406,-2.1707,-2.1567,-2.1439,-2.1371,-2.1285,-2.1278,-2.1285,-2.1289,-2.1181,-2.106,-2.1312,-2.1114,-2.0406,-2.0572,-2.0001,-1.8689,-1.797,-1.7457,-1.7173,-1.7206,-1.704,-1.6789,-1.643,-1.6297,-1.6297,-1.6297,-1.6164,-1.5971,-1.6131,-1.6164,-1.5918,-1.5865,-1.5865,-1.5838,-1.5838,-1.5785,-1.5811,-1.5577,-1.5449,-1.5428,-1.5108,-1.4759,-1.4583,-1.4508,-1.4358,-1.4186,-1.411,-1.4056,-1.4029,-1.4056,-1.411,-1.4083,-1.411,-1.4002,-1.3699,-1.3672,-1.3591,-1.3396,-1.3155,-1.3026,-1.3188,-1.3702,-1.3963,-1.3748,-1.3688,-1.3688,-1.3658,-1.3658,-1.3629,-1.3539,-1.3599,-1.3449,-1.3414,-1.3479,-1.3299,-1.3114,-1.3114,-1.3174,-1.2144,-1.1534,-1.0876,-0.9957,-0.894,-0.8325,-0.8544,-0.8338,-0.8023,-0.8216,-0.8569,-0.8751,-2.4349,-2.4516,-2.4079,-2.3758,-2.3587,-2.4002,-2.4039,-2.3813,-2.4101,-2.4152,-2.4053,-2.4028,-2.387,-2.3646,-2.3795,-2.3653,-2.3186,-2.2688,-2.2208,-2.1827,-2.1399,-2.148,-2.1893,-2.1828,-2.1994,-2.2441,-2.2229,-2.1994,-2.179,-2.1764,-2.1764,-2.179,-2.1994,-2.2056,-2.1999,-2.2119,-2.2021,-2.1687,-2.1329,-2.0858,-2.0259,-1.9483,-1.8781,-1.8206,-1.816,-1.8068,-1.791,-1.7529,-1.751,-1.791,-1.7259,-1.6783,-1.6677,-1.6285,-1.6031,-1.5912,-1.5885,-1.5885,-1.5885,-1.5885,-1.5885,-1.5885,-1.5791,-1.5737,-1.5737,-1.5604,-1.5443,-1.5175,-1.4934,-1.4713,-1.4471,-1.445,-1.4374,-1.4218,-1.4196,-1.4196,-1.4196,-1.4196,-1.4137,-1.4002,-1.4002,-1.3975,-1.3822,-1.3635,-1.3459,-1.3365,-1.3671,-1.3833,-1.3718,-1.3688,-1.3688,-1.3688,-1.3688,-1.3688,-1.3688,-1.3688,-1.3688,-1.3688,-1.3688,-1.3688,-1.3688,-1.3688,-1.3509,-1.3114,-1.2691,-1.2138,-1.1608,-1.0659,-0.9881,-0.9551,-0.893,-0.8652,-0.8718,-0.9076,-0.9246,-2.4526,-2.4728,-2.4351,-2.4012,-2.3715,-2.4048,-2.4012,-2.3758,-2.4058,-2.4211,-2.4211,-2.4211,-2.4078,-2.3954,-2.4102,-2.3825,-2.3238,-2.2831,-2.2371,-2.1808,-2.1703,-2.1906,-2.2354,-2.2381,-2.2666,-2.3109,-2.2954,-2.2623,-2.2315,-2.2273,-2.224,-2.2242,-2.2465,-2.2628,-2.2628,-2.2628,-2.2628,-2.2544,-2.1962,-2.1649,-2.1573,-2.1088,-2.0251,-1.9268,-1.9164,-1.906,-1.88,-1.837,-1.8272,-1.8584,-1.7858,-1.7391,-1.7279,-1.6763,-1.6365,-1.6125,-1.5971,-1.5945,-1.6004,-1.5945,-1.5885,-1.5885,-1.5885,-1.5885,-1.5885,-1.5885,-1.5811,-1.563,-1.539,-1.5116,-1.474,-1.4721,-1.4608,-1.4337,-1.4288,-1.4266,-1.4207,-1.4196,-1.4196,-1.4196,-1.4169,-1.4142,-1.4053,-1.3981,-1.3905,-1.3519,-1.3645,-1.3783,-1.3718,-1.3688,-1.3688,-1.3688,-1.3688,-1.3688,-1.3688,-1.3688,-1.3688,-1.3688,-1.3688,-1.3688,-1.3688,-1.3688,-1.3755,-1.3535,-1.3685,-1.3409,-1.2514,-1.1842,-1.1077,-1.0402,-0.9794,-0.941,-0.9497,-0.9654,-0.9651,-2.4792,-2.4737,-2.4376,-2.4192,-2.4174,-2.4192,-2.4192,-2.4137,-2.4192,-2.4202,-2.4226,-2.4202,-2.4202,-2.4177,-2.4177,-2.3932,-2.3447,-2.3081,-2.2665,-2.2267,-2.2249,-2.2469,-2.2875,-2.3024,-2.3291,-2.3644,-2.3397,-2.3179,-2.2944,-2.2936,-2.282,-2.2619,-2.2636,-2.2628,-2.2628,-2.2628,-2.2628,-2.2603,-2.2493,-2.2502,-2.2493,-2.2451,-2.1623,-2.0285,-2.0053,-1.9691,-1.8956,-1.8572,-1.8134,-1.7411,-1.7799,-1.7852,-1.7641,-1.7753,-1.7404,-1.6703,-1.6178,-1.6025,-1.6191,-1.6051,-1.5912,-1.5885,-1.5885,-1.5885,-1.5885,-1.5885,-1.5885,-1.5865,-1.5811,-1.5571,-1.5085,-1.4962,-1.4822,-1.4597,-1.4522,-1.4396,-1.4229,-1.4229,-1.4196,-1.4213,-1.4223,-1.4085,-1.3739,-1.4084,-1.3979,-1.3674,-1.3842,-1.4022,-1.3778,-1.3688,-1.3688,-1.3688,-1.3688,-1.3688,-1.3688,-1.3688,-1.3688,-1.3688,-1.3688,-1.3688,-1.3688,-1.3712,-1.3811,-1.3763,-1.3409,-1.3137,-1.2943,-1.2328,-1.1421,-1.0785,-1.042,-1.0187,-1.0494,-0.9915,-0.9923,-2.4929,-2.4855,-2.4808,-2.4622,-2.4399,-2.439,-2.4415,-2.4415,-2.4563,-2.4538,-2.4415,-2.439,-2.4325,-2.4211,-2.4211,-2.3932,-2.3508,-2.3343,-2.3068,-2.2712,-2.2684,-2.2895,-2.3246,-2.3169,-2.3367,-2.3692,-2.353,-2.3347,-2.3272,-2.3247,-2.3197,-2.3097,-2.2946,-2.2854,-2.2829,-2.2695,-2.2628,-2.2628,-2.2628,-2.2628,-2.2611,-2.2628,-2.2291,-2.1725,-2.1165,-2.0729,-2.0413,-1.9975,-1.9838,-2.0053,-1.912,-1.8468,-1.8304,-1.7608,-1.7047,-1.673,-1.6518,-1.6391,-1.6297,-1.6191,-1.6078,-1.5918,-1.5885,-1.5885,-1.5885,-1.5885,-1.5885,-1.5885,-1.5885,-1.5705,-1.538,-1.5138,-1.4881,-1.4598,-1.4504,-1.4476,-1.4439,-1.4384,-1.4384,-1.4378,-1.437,-1.4173,-1.3897,-1.3904,-1.3897,-1.366,-1.3765,-1.3833,-1.3748,-1.3688,-1.3688,-1.3688,-1.3688,-1.3688,-1.3688,-1.3688,-1.3688,-1.3688,-1.3688,-1.3688,-1.3688,-1.3712,-1.3797,-1.4005,-1.353,-1.3577,-1.3649,-1.327,-1.2254,-1.1635,-1.1254,-1.1311,-1.1632,-1.1086,-1.103,-2.5186,-2.5138,-2.5067,-2.488,-2.4646,-2.4612,-2.4627,-2.4661,-2.4809,-2.4784,-2.4661,-2.4637,-2.4538,-2.444,-2.4424,-2.4251,-2.3925,-2.365,-2.3288,-2.294,-2.3041,-2.3242,-2.348,-2.349,-2.3598,-2.3868,-2.3755,-2.3596,-2.3546,-2.3522,-2.3481,-2.3381,-2.3155,-2.3021,-2.2971,-2.272,-2.2628,-2.2611,-2.2689,-2.2757,-2.2757,-2.2749,-2.2757,-2.2664,-2.2071,-2.1581,-2.1326,-2.085,-2.0721,-2.085,-1.9838,-1.9138,-1.8866,-1.797,-1.7252,-1.7021,-1.671,-1.6557,-1.6424,-1.6271,-1.6078,-1.5945,-1.5885,-1.5885,-1.5885,-1.5885,-1.5885,-1.5885,-1.5885,-1.5791,-1.5508,-1.5208,-1.4867,-1.4593,-1.4515,-1.447,-1.4411,-1.4395,-1.4427,-1.448,-1.4551,-1.4362,-1.4076,-1.3995,-1.3908,-1.372,-1.3688,-1.3688,-1.3688,-1.3688,-1.3688,-1.3688,-1.3688,-1.3688,-1.3688,-1.3688,-1.3693,-1.3698,-1.3688,-1.3688,-1.3731,-1.375,-1.3859,-1.4036,-1.4248,-1.4387,-1.4309,-1.3978,-1.3414,-1.2717,-1.248,-1.2465,-1.2459,-1.231,-1.1894,-2.5591,-2.5556,-2.5121,-2.4964,-2.4883,-2.4917,-2.4917,-2.4907,-2.4941,-2.4966,-2.4907,-2.4907,-2.4883,-2.4858,-2.4818,-2.4849,-2.4622,-2.3977,-2.3428,-2.3101,-2.3376,-2.3532,-2.3596,-2.3917,-2.4097,-2.4161,-2.4177,-2.4019,-2.382,-2.3805,-2.368,-2.3397,-2.318,-2.3046,-2.3021,-2.2754,-2.2628,-2.2671,-2.2877,-2.3074,-2.3109,-2.3074,-2.3057,-2.304,-2.269,-2.2139,-2.1411,-2.1112,-2.0774,-2.0188,-2.0121,-1.9884,-1.9449,-1.8921,-1.8429,-1.7728,-1.6907,-1.6576,-1.6674,-1.6353,-1.6203,-1.6089,-1.5987,-1.6062,-1.6081,-1.5979,-1.5934,-1.5966,-1.5903,-1.5785,-1.5503,-1.5235,-1.4924,-1.4645,-1.4554,-1.4422,-1.4304,-1.4229,-1.4277,-1.4512,-1.4708,-1.4713,-1.4419,-1.4229,-1.4089,-1.3786,-1.3688,-1.3688,-1.3688,-1.3688,-1.3688,-1.3688,-1.3688,-1.3688,-1.3688,-1.3688,-1.3698,-1.3703,-1.3693,-1.3698,-1.3792,-1.3844,-1.3991,-1.4194,-1.4441,-1.4612,-1.4604,-1.4315,-1.432,-1.3842,-1.3711,-1.3481,-1.3416,-1.312,-1.2025,-2.6685,-2.6137,-2.5783,-2.5469,-2.5205,-2.5186,-2.5186,-2.5186,-2.5367,-2.5357,-2.5211,-2.5186,-2.5088,-2.4941,-2.4892,-2.4917,-2.4849,-2.4389,-2.4122,-2.4014,-2.3993,-2.3975,-2.4002,-2.4146,-2.4211,-2.4211,-2.4211,-2.4152,-2.4078,-2.4053,-2.392,-2.3671,-2.3397,-2.3172,-2.2996,-2.2754,-2.2628,-2.2637,-2.292,-2.3109,-2.3117,-2.3117,-2.3117,-2.3074,-2.2774,-2.2451,-2.2224,-2.2153,-2.2151,-2.2093,-2.1685,-2.1172,-2.0563,-1.9683,-1.9168,-1.9049,-1.8467,-1.7915,-1.7679,-1.7473,-1.7247,-1.7074,-1.6875,-1.6799,-1.6747,-1.6375,-1.6169,-1.616,-1.6006,-1.5791,-1.5529,-1.5422,-1.519,-1.4904,-1.4658,-1.4476,-1.4422,-1.4552,-1.466,-1.4742,-1.4906,-1.4781,-1.44,-1.4237,-1.4109,-1.3814,-1.3718,-1.3688,-1.3688,-1.3688,-1.3688,-1.3688,-1.3688,-1.3688,-1.3688,-1.3721,-1.3764,-1.3802,-1.3807,-1.383,-1.3906,-1.4024,-1.417,-1.4359,-1.4601,-1.4734,-1.473,-1.4702,-1.467,-1.4702,-1.4408,-1.4375,-1.4441,-1.3744,-1.2655,-2.7233,-2.6846,-2.6338,-2.5982,-2.5687,-2.5551,-2.5465,-2.5465,-2.5611,-2.5586,-2.5455,-2.5465,-2.5367,-2.5235,-2.5211,-2.5186,-2.5152,-2.4907,-2.4809,-2.4701,-2.435,-2.4202,-2.4211,-2.4211,-2.4211,-2.4211,-2.4211,-2.4211,-2.4211,-2.4093,-2.3954,-2.378,-2.3456,-2.3172,-2.2962,-2.2745,-2.2628,-2.2654,-2.292,-2.3117,-2.3117,-2.3117,-2.3117,-2.3066,-2.2766,-2.2688,-2.2758,-2.2843,-2.2908,-2.2926,-2.2352,-2.1822,-2.1414,-2.0332,-1.9813,-2.003,-1.9338,-1.8638,-1.8527,-1.8105,-1.7783,-1.7483,-1.7281,-1.7136,-1.6981,-1.6536,-1.6323,-1.6254,-1.6042,-1.5838,-1.5684,-1.5535,-1.5437,-1.534,-1.485,-1.4559,-1.4558,-1.474,-1.4915,-1.4961,-1.5135,-1.5,-1.4704,-1.4381,-1.4232,-1.3963,-1.3783,-1.3688,-1.3688,-1.3688,-1.3688,-1.3688,-1.3688,-1.3688,-1.3688,-1.3745,-1.3825,-1.3896,-1.3958,-1.4014,-1.4085,-1.4246,-1.437,-1.4545,-1.4785,-1.4818,-1.48,-1.4833,-1.4838,-1.4903,-1.4903,-1.48,-1.4637,-1.4207,-1.3284,-2.7324,-2.7565,-2.6768,-2.6416,-2.6274,-2.5869,-2.5659,-2.5684,-2.5693,-2.5693,-2.5684,-2.5659,-2.5659,-2.5684,-2.5611,-2.5611,-2.5635,-2.5357,-2.5211,-2.5039,-2.4621,-2.4276,-2.4226,-2.4211,-2.4211,-2.4211,-2.4211,-2.4211,-2.4211,-2.4003,-2.382,-2.3755,-2.3381,-2.3046,-2.3021,-2.277,-2.2678,-2.2705,-2.2954,-2.3109,-2.3117,-2.3117,-2.3117,-2.31,-2.2792,-2.2706,-2.2929,-2.3006,-2.2996,-2.2778,-2.2425,-2.2176,-2.1953,-2.0961,-2.0716,-2.1275,-1.9664,-1.924,-1.914,-1.8688,-1.794,-1.7672,-1.7525,-1.7139,-1.6961,-1.6698,-1.6414,-1.6305,-1.6036,-1.5885,-1.5838,-1.5684,-1.5653,-1.5732,-1.5173,-1.4729,-1.4601,-1.4805,-1.5013,-1.5204,-1.5432,-1.5448,-1.5056,-1.4793,-1.453,-1.4232,-1.3963,-1.3843,-1.3778,-1.3778,-1.3718,-1.3688,-1.3688,-1.375,-1.3769,-1.3821,-1.3929,-1.418,-1.4218,-1.4246,-1.4257,-1.4403,-1.4554,-1.4733,-1.4847,-1.4884,-1.4903,-1.4903,-1.4903,-1.4903,-1.4903,-1.4903,-1.467,-1.4272,-1.3842,-2.7868,-2.7633,-2.708,-2.6645,-2.6372,-2.5893,-2.5708,-2.5708,-2.5708,-2.5708,-2.5708,-2.5708,-2.5708,-2.5708,-2.5708,-2.5708,-2.5635,-2.543,-2.5308,-2.526,-2.4932,-2.4498,-2.4251,-2.4211,-2.4211,-2.4211,-2.4211,-2.4211,-2.4211,-2.4102,-2.3969,-2.3795,-2.363,-2.3456,-2.3281,-2.3021,-2.2896,-2.2923,-2.3014,-2.31,-2.31,-2.3091,-2.3117,-2.3074,-2.2766,-2.2654,-2.2757,-2.2972,-2.3356,-2.3746,-2.3232,-2.3302,-2.3718,-2.2747,-2.2239,-2.2505,-2.1911,-2.101,-2.0421,-2.0019,-1.952,-1.8896,-1.8457,-1.8224,-1.7701,-1.7213,-1.6784,-1.6411,-1.6069,-1.5885,-1.5891,-1.5862,-1.5854,-1.5828,-1.5504,-1.5176,-1.5062,-1.5088,-1.5217,-1.5437,-1.5558,-1.5437,-1.5205,-1.4997,-1.4828,-1.453,-1.4262,-1.4052,-1.4022,-1.3843,-1.3778,-1.3718,-1.3707,-1.3797,-1.3868,-1.3915,-1.4085,-1.4426,-1.4488,-1.4484,-1.4502,-1.455,-1.4686,-1.4832,-1.4865,-1.4898,-1.4903,-1.4903,-1.4903,-1.4903,-1.4903,-1.487,-1.4702,-1.4403,-1.4076,-2.7819,-2.7379,-2.6934,-2.6611,-2.6338,-2.5893,-2.5708,-2.5708,-2.5708,-2.5708,-2.5708,-2.5708,-2.5708,-2.5708,-2.5708,-2.5708,-2.5684,-2.5528,-2.5455,-2.5416,-2.5064,-2.4686,-2.439,-2.4251,-2.4211,-2.4211,-2.4211,-2.4211,-2.4177,-2.4093,-2.3945,-2.3795,-2.3705,-2.3546,-2.3372,-2.3147,-2.3021,-2.2981,-2.2944,-2.2903,-2.2877,-2.2903,-2.2869,-2.2869,-2.2697,-2.2628,-2.2637,-2.2792,-2.3228,-2.3706,-2.3597,-2.368,-2.4354,-2.3496,-2.3234,-2.3825,-2.3069,-2.2228,-2.1824,-2.1195,-2.0407,-1.9809,-1.9287,-1.8616,-1.8021,-1.7522,-1.6969,-1.6554,-1.6129,-1.5942,-1.5934,-1.6085,-1.6201,-1.6231,-1.6131,-1.5861,-1.5489,-1.5259,-1.5359,-1.5521,-1.5572,-1.5542,-1.5329,-1.521,-1.5032,-1.4828,-1.456,-1.4411,-1.4321,-1.4082,-1.3882,-1.3897,-1.3848,-1.3931,-1.4014,-1.4076,-1.4191,-1.4526,-1.4682,-1.4691,-1.4696,-1.4696,-1.4771,-1.4865,-1.4889,-1.4903,-1.4903,-1.4903,-1.4903,-1.4903,-1.4903,-1.487,-1.4735,-1.4637,-1.4272,-2.7412,-2.6982,-2.6562,-2.6406,-2.6387,-2.5996,-2.5864,-2.5864,-2.5845,-2.5815,-2.5806,-2.5713,-2.5708,-2.5708,-2.5708,-2.5708,-2.5708,-2.5659,-2.5742,-2.56,-2.531,-2.491,-2.484,-2.4365,-2.422,-2.4211,-2.4211,-2.4211,-2.4152,-2.3978,-2.3879,-2.3845,-2.3646,-2.3522,-2.3497,-2.3256,-2.3055,-2.3021,-2.278,-2.2671,-2.2671,-2.2671,-2.268,-2.2663,-2.2645,-2.2628,-2.2628,-2.2663,-2.2937,-2.3572,-2.3368,-2.3633,-2.4002,-2.3414,-2.3651,-2.4221,-2.3463,-2.2795,-2.2826,-2.1481,-2.0493,-2.004,-1.9312,-1.8654,-1.8058,-1.7568,-1.7124,-1.6679,-1.6239,-1.6014,-1.6051,-1.6386,-1.66,-1.6618,-1.6809,-1.6576,-1.6013,-1.5516,-1.5405,-1.5588,-1.5631,-1.5601,-1.5512,-1.5359,-1.517,-1.5151,-1.4913,-1.4734,-1.459,-1.4411,-1.4241,-1.4175,-1.413,-1.408,-1.4137,-1.4215,-1.4403,-1.463,-1.4771,-1.4828,-1.4828,-1.4837,-1.4865,-1.4903,-1.4903,-1.4903,-1.4903,-1.4903,-1.4903,-1.4903,-1.4903,-1.4903,-1.487,-1.48,-1.4572,-2.7412,-2.6947,-2.6562,-2.6582,-2.6777,-2.6435,-2.6435,-2.6654,-2.6377,-2.625,-2.6182,-2.5884,-2.5757,-2.5737,-2.5762,-2.5708,-2.5747,-2.5747,-2.5874,-2.6156,-2.5624,-2.5623,-2.5493,-2.4804,-2.4248,-2.4257,-2.4229,-2.4229,-2.4189,-2.4228,-2.4112,-2.4114,-2.4113,-2.4037,-2.3999,-2.3638,-2.3306,-2.3222,-2.2863,-2.2645,-2.2628,-2.2628,-2.2628,-2.2628,-2.2628,-2.2628,-2.2628,-2.2628,-2.268,-2.2843,-2.3074,-2.3432,-2.391,-2.3948,-2.4144,-2.4359,-2.385,-2.3007,-2.2338,-2.1437,-2.0371,-1.9746,-1.9204,-1.8665,-1.8144,-1.7739,-1.7252,-1.6788,-1.6408,-1.6275,-1.6372,-1.6535,-1.6827,-1.6984,-1.7043,-1.6973,-1.668,-1.6228,-1.5956,-1.5911,-1.5755,-1.5601,-1.5601,-1.5542,-1.5448,-1.5448,-1.5269,-1.5026,-1.4858,-1.4719,-1.4595,-1.4469,-1.4355,-1.4292,-1.435,-1.4427,-1.4573,-1.471,-1.4823,-1.4898,-1.4898,-1.4903,-1.4903,-1.4903,-1.4903,-1.4903,-1.4903,-1.4903,-1.4903,-1.4903,-1.4903,-1.4903,-1.4903,-1.4903,-1.487,-2.7109,-2.6699,-2.6484,-2.6523,-2.6699,-2.6689,-2.6807,-2.6943,-2.6787,-2.668,-2.6641,-2.6391,-2.6313,-2.6313,-2.6303,-2.6235,-2.5981,-2.5806,-2.5985,-2.6234,-2.585,-2.5812,-2.6043,-2.5351,-2.4771,-2.478,-2.479,-2.4746,-2.4755,-2.4728,-2.4792,-2.4771,-2.4762,-2.4776,-2.4721,-2.4303,-2.3995,-2.3649,-2.3276,-2.2927,-2.2662,-2.2628,-2.2628,-2.2628,-2.2628,-2.2628,-2.2628,-2.2628,-2.2628,-2.2645,-2.2774,-2.31,-2.3647,-2.4015,-2.4314,-2.4359,-2.4339,-2.3612,-2.2769,-2.1735,-2.077,-1.9832,-1.9167,-1.8563,-1.8123,-1.7756,-1.7425,-1.7044,-1.6862,-1.6794,-1.7049,-1.721,-1.7407,-1.7463,-1.7494,-1.7403,-1.7168,-1.6696,-1.6229,-1.614,-1.5963,-1.5785,-1.569,-1.5631,-1.5572,-1.5512,-1.5512,-1.5304,-1.5238,-1.506,-1.4877,-1.4729,-1.4576,-1.4545,-1.459,-1.4649,-1.4743,-1.4818,-1.4861,-1.4898,-1.4903,-1.4903,-1.4903,-1.4903,-1.4903,-1.4903,-1.4903,-1.4903,-1.4903,-1.4903,-1.4903,-1.4903,-1.4903,-1.4903,-1.4903,-2.6728,-2.6289,-2.6289,-2.6328,-2.6445,-2.6748,-2.6924,-2.7012,-2.6943,-2.6807,-2.6859,-2.685,-2.6586,-2.6855,-2.6791,-2.667,-2.6367,-2.6079,-2.6165,-2.6512,-2.6126,-2.6182,-2.6349,-2.5966,-2.5581,-2.5572,-2.5361,-2.5324,-2.5315,-2.5388,-2.5232,-2.5343,-2.5361,-2.526,-2.5281,-2.5101,-2.4677,-2.4194,-2.391,-2.3573,-2.309,-2.2944,-2.2815,-2.2628,-2.2628,-2.2628,-2.2628,-2.2628,-2.2628,-2.2628,-2.2628,-2.2749,-2.31,-2.3664,-2.4177,-2.4203,-2.4255,-2.3675,-2.2732,-2.1792,-2.075,-2.006,-1.9084,-1.8364,-1.8008,-1.7774,-1.7541,-1.744,-1.735,-1.7472,-1.7925,-1.7878,-1.7915,-1.7961,-1.7966,-1.7849,-1.7514,-1.6979,-1.6637,-1.6348,-1.614,-1.5933,-1.5785,-1.569,-1.5631,-1.5607,-1.5607,-1.5615,-1.5535,-1.5475,-1.5308,-1.5273,-1.519,-1.5147,-1.5164,-1.4969,-1.5051,-1.5131,-1.5094,-1.5034,-1.5001,-1.4936,-1.4936,-1.4903,-1.4903,-1.4903,-1.4903,-1.4903,-1.4903,-1.4903,-1.4903,-1.4903,-1.4903,-1.4903,-1.4903,-2.6537,-2.5815,-2.5815,-2.603,-2.6377,-2.6475,-2.6719,-2.6914,-2.6709,-2.6504,-2.6504,-2.6137,-2.6332,-2.6504,-2.6514,-2.6455,-2.6455,-2.6313,-2.6508,-2.6827,-2.6595,-2.6763,-2.6905,-2.6558,-2.6342,-2.6205,-2.5847,-2.5508,-2.548,-2.5398,-2.5535,-2.5443,-2.5471,-2.5471,-2.542,-2.5146,-2.5061,-2.4795,-2.4533,-2.4297,-2.4016,-2.3642,-2.3184,-2.2815,-2.2722,-2.2653,-2.2628,-2.2628,-2.2628,-2.2628,-2.2628,-2.2654,-2.2886,-2.346,-2.3905,-2.3967,-2.3745,-2.3233,-2.2277,-2.095,-1.979,-1.8926,-1.8453,-1.8183,-1.8002,-1.7829,-1.7802,-1.7873,-1.7921,-1.7993,-1.7992,-1.8138,-1.8039,-1.8025,-1.8025,-1.7889,-1.7578,-1.7326,-1.7132,-1.6814,-1.6466,-1.6081,-1.5933,-1.5796,-1.5734,-1.5696,-1.5688,-1.579,-1.5853,-1.5858,-1.5827,-1.5846,-1.5918,-1.5864,-1.5833,-1.5534,-1.5421,-1.5574,-1.5551,-1.5398,-1.5295,-1.5066,-1.4964,-1.5094,-1.4996,-1.4903,-1.4903,-1.4903,-1.4968,-1.5001,-1.4968,-1.4903,-1.4968,-1.5001,-1.4903,-2.6982,-2.6391,-2.6381,-2.6387,-2.6426,-2.6631,-2.6816,-2.6976,-2.7057,-2.7076,-2.7086,-2.7051,-2.7158,-2.7334,-2.7373,-2.7168,-2.6787,-2.6709,-2.6836,-2.6971,-2.7009,-2.7104,-2.7348,-2.6962,-2.6745,-2.6535,-2.6196,-2.5994,-2.6031,-2.6049,-2.5985,-2.604,-2.6031,-2.6031,-2.6004,-2.5925,-2.5609,-2.5394,-2.519,-2.4933,-2.4667,-2.4235,-2.3789,-2.3313,-2.3072,-2.2927,-2.2645,-2.2628,-2.2628,-2.2637,-2.2766,-2.2843,-2.3074,-2.3434,-2.3845,-2.3679,-2.3559,-2.316,-2.2348,-2.1379,-2.0597,-1.957,-1.8871,-1.8427,-1.8277,-1.819,-1.8204,-1.8368,-1.8494,-1.8577,-1.873,-1.8679,-1.8577,-1.8282,-1.8187,-1.7967,-1.7649,-1.7535,-1.7373,-1.7226,-1.6903,-1.6495,-1.6081,-1.5961,-1.5856,-1.581,-1.5782,-1.5939,-1.6111,-1.6139,-1.6158,-1.6145,-1.6158,-1.608,-1.6041,-1.5866,-1.5789,-1.5979,-1.5941,-1.5821,-1.5658,-1.5425,-1.5421,-1.5551,-1.5355,-1.5062,-1.4903,-1.4903,-1.5001,-1.5104,-1.5001,-1.4968,-1.5099,-1.5099,-1.4968,-2.7389,-2.6894,-2.6859,-2.6641,-2.6367,-2.6699,-2.6865,-2.6973,-2.7314,-2.7487,-2.7614,-2.7803,-2.7949,-2.8142,-2.8064,-2.7744,-2.7129,-2.708,-2.7002,-2.7013,-2.712,-2.7261,-2.7258,-2.7178,-2.6971,-2.6754,-2.6654,-2.6636,-2.6517,-2.6508,-2.6582,-2.6517,-2.6582,-2.6618,-2.6527,-2.6426,-2.619,-2.5991,-2.5774,-2.545,-2.4977,-2.4782,-2.4481,-2.3825,-2.3694,-2.3322,-2.2952,-2.2696,-2.2688,-2.2766,-2.2929,-2.3108,-2.3306,-2.3794,-2.3819,-2.3451,-2.3852,-2.363,-2.2999,-2.2366,-2.1403,-2.0202,-1.9596,-1.9106,-1.8781,-1.8725,-1.8728,-1.8871,-1.8976,-1.905,-1.9221,-1.9352,-1.9079,-1.8663,-1.841,-1.8225,-1.7811,-1.7568,-1.749,-1.7338,-1.7197,-1.6903,-1.6495,-1.6087,-1.5983,-1.594,-1.5924,-1.6,-1.6188,-1.6311,-1.6329,-1.6265,-1.6214,-1.6167,-1.6099,-1.6099,-1.6142,-1.6364,-1.6266,-1.6109,-1.5979,-1.5816,-1.5876,-1.5871,-1.5611,-1.5355,-1.5127,-1.4968,-1.5066,-1.5099,-1.5034,-1.5066,-1.5234,-1.5132,-1.4936,-2.7223,-2.6465,-2.6475,-2.6211,-2.5942,-2.6318,-2.6475,-2.6562,-2.6982,-2.709,-2.7207,-2.7211,-2.7519,-2.779,-2.7848,-2.7731,-2.7516,-2.7236,-2.706,-2.7048,-2.7172,-2.722,-2.724,-2.7334,-2.7133,-2.6917,-2.6908,-2.6809,-2.6664,-2.6618,-2.6618,-2.6618,-2.6618,-2.6618,-2.6618,-2.6555,-2.6564,-2.6481,-2.6436,-2.6127,-2.5612,-2.5486,-2.511,-2.4517,-2.3964,-2.3581,-2.3339,-2.2953,-2.2774,-2.2997,-2.3091,-2.3279,-2.3571,-2.3692,-2.3734,-2.3725,-2.3876,-2.3842,-2.3174,-2.2732,-2.2032,-2.0961,-2.0278,-1.9834,-1.9466,-1.9298,-1.9237,-1.8911,-1.9167,-1.9343,-1.9426,-1.9395,-1.9181,-1.8909,-1.8571,-1.8331,-1.7967,-1.7703,-1.7619,-1.7485,-1.7338,-1.7197,-1.6938,-1.6471,-1.6103,-1.6073,-1.6074,-1.6162,-1.6312,-1.6444,-1.6583,-1.6535,-1.6427,-1.6338,-1.6331,-1.6304,-1.6396,-1.6688,-1.6591,-1.6434,-1.6336,-1.6201,-1.6071,-1.6001,-1.5806,-1.5709,-1.5556,-1.5425,-1.5262,-1.5197,-1.523,-1.5332,-1.5435,-1.5234,-1.5006,-2.7692,-2.7115,-2.6846,-2.6641,-2.644,-2.6426,-2.6523,-2.6807,-2.7223,-2.7409,-2.7441,-2.7656,-2.7851,-2.8005,-2.8044,-2.7917,-2.7702,-2.7477,-2.7226,-2.7139,-2.7266,-2.7297,-2.7149,-2.7365,-2.7422,-2.6981,-2.689,-2.6836,-2.6691,-2.6618,-2.6618,-2.6618,-2.6618,-2.6618,-2.6582,-2.6409,-2.6473,-2.6518,-2.6564,-2.6436,-2.6227,-2.6117,-2.5837,-2.5173,-2.4508,-2.4025,-2.3582,-2.3186,-2.2954,-2.3168,-2.3416,-2.3784,-2.4025,-2.4187,-2.4324,-2.4342,-2.4461,-2.427,-2.3775,-2.342,-2.2745,-2.2099,-2.1425,-2.0702,-2.0132,-1.9884,-1.9867,-1.971,-1.9625,-1.9613,-1.9562,-1.9482,-1.9223,-1.8959,-1.8735,-1.8394,-1.8123,-1.7948,-1.7761,-1.7638,-1.7485,-1.7344,-1.7168,-1.6731,-1.6345,-1.627,-1.6312,-1.6407,-1.6558,-1.6711,-1.684,-1.6894,-1.6726,-1.6553,-1.6591,-1.6623,-1.6591,-1.678,-1.6877,-1.6748,-1.6688,-1.6586,-1.6423,-1.6294,-1.6164,-1.6039,-1.5979,-1.5724,-1.543,-1.5425,-1.5491,-1.5593,-1.5663,-1.5515,-1.5347,-2.8132,-2.7809,-2.7363,-2.7119,-2.6986,-2.6787,-2.692,-2.7207,-2.7663,-2.7848,-2.7927,-2.8125,-2.8262,-2.8291,-2.8279,-2.8132,-2.7868,-2.7751,-2.7428,-2.7321,-2.7367,-2.735,-2.7247,-2.7453,-2.7512,-2.68,-2.6944,-2.6836,-2.6691,-2.6618,-2.6618,-2.6618,-2.6618,-2.6618,-2.6527,-2.6418,-2.6409,-2.6555,-2.6473,-2.6455,-2.6527,-2.6554,-2.6281,-2.5792,-2.5191,-2.4517,-2.3904,-2.354,-2.3384,-2.3383,-2.381,-2.416,-2.4357,-2.4573,-2.4701,-2.471,-2.4733,-2.4648,-2.4344,-2.4113,-2.3927,-2.3299,-2.2446,-2.1285,-2.0551,-2.0407,-2.0321,-2.0178,-1.991,-1.9815,-1.9764,-1.9562,-1.9321,-1.9123,-1.8928,-1.8548,-1.8221,-1.8048,-1.782,-1.7602,-1.7485,-1.7485,-1.725,-1.6897,-1.664,-1.6481,-1.6505,-1.6627,-1.6789,-1.6984,-1.6974,-1.7001,-1.691,-1.6753,-1.678,-1.6845,-1.6877,-1.6877,-1.6974,-1.6969,-1.6877,-1.6812,-1.6748,-1.6586,-1.6451,-1.6391,-1.6304,-1.5919,-1.5566,-1.5654,-1.5714,-1.5849,-1.5891,-1.5791,-1.5787,-2.8281,-2.8213,-2.7819,-2.7428,-2.708,-2.7457,-2.7604,-2.7673,-2.8073,-2.8203,-2.822,-2.8308,-2.8301,-2.8301,-2.8301,-2.8262,-2.8213,-2.7868,-2.7487,-2.734,-2.7402,-2.7347,-2.7298,-2.7458,-2.7664,-2.7242,-2.708,-2.6836,-2.6664,-2.6618,-2.6618,-2.6618,-2.6618,-2.6618,-2.6591,-2.6527,-2.6473,-2.65,-2.6364,-2.6391,-2.6527,-2.6618,-2.6545,-2.639,-2.5837,-2.5226,-2.457,-2.4149,-2.3808,-2.3649,-2.4059,-2.44,-2.4622,-2.4733,-2.4821,-2.4821,-2.4821,-2.4742,-2.4661,-2.4578,-2.437,-2.3708,-2.2865,-2.1845,-2.0981,-2.0752,-2.0579,-2.0421,-2.0191,-1.9924,-1.9786,-1.9584,-1.9428,-1.9283,-1.9096,-1.8809,-1.8465,-1.8177,-1.7931,-1.7602,-1.7485,-1.7485,-1.7455,-1.7132,-1.6844,-1.6703,-1.6889,-1.6992,-1.7077,-1.72,-1.7044,-1.7007,-1.7001,-1.6942,-1.6942,-1.6969,-1.6942,-1.6942,-1.6969,-1.7001,-1.6969,-1.6942,-1.691,-1.6877,-1.6742,-1.6683,-1.6558,-1.6179,-1.5919,-1.5881,-1.5946,-1.6097,-1.6231,-1.6262,-1.6305,-2.8301,-2.8281,-2.8115,-2.7959,-2.7793,-2.7731,-2.7839,-2.8047,-2.8223,-2.8301,-2.8301,-2.8301,-2.8301,-2.8301,-2.8301,-2.8301,-2.8232,-2.7878,-2.7604,-2.7536,-2.7549,-2.734,-2.729,-2.7398,-2.7584,-2.7089,-2.6944,-2.6863,-2.6609,-2.6618,-2.6618,-2.6618,-2.6618,-2.6618,-2.6618,-2.6582,-2.6473,-2.6391,-2.6382,-2.65,-2.6555,-2.6618,-2.6618,-2.6554,-2.5963,-2.5262,-2.4676,-2.4518,-2.4164,-2.3995,-2.4282,-2.4562,-2.475,-2.4812,-2.4821,-2.4821,-2.4821,-2.4821,-2.4821,-2.4765,-2.4535,-2.4005,-2.3408,-2.2703,-2.1645,-2.1567,-2.1282,-2.0967,-2.0529,-2.0292,-2.0068,-1.9844,-1.9606,-1.9424,-1.9249,-1.9033,-1.8713,-1.8421,-1.8135,-1.7866,-1.7631,-1.7485,-1.7455,-1.7397,-1.7138,-1.6931,-1.7156,-1.7363,-1.7461,-1.74,-1.7238,-1.7071,-1.7034,-1.7001,-1.7001,-1.7001,-1.7001,-1.7001,-1.7001,-1.7001,-1.7001,-1.7001,-1.6974,-1.7001,-1.7001,-1.6877,-1.6688,-1.6401,-1.6239,-1.6169,-1.6232,-1.6338,-1.651,-1.6711,-1.6781,-2.8301,-2.8301,-2.8301,-2.8301,-2.8252,-2.8005,-2.8044,-2.8252,-2.8291,-2.8301,-2.8301,-2.8301,-2.8301,-2.8301,-2.8301,-2.8301,-2.8232,-2.8034,-2.7839,-2.778,-2.7747,-2.7518,-2.7393,-2.7353,-2.7449,-2.6926,-2.6773,-2.6745,-2.6618,-2.6618,-2.6618,-2.6618,-2.6618,-2.6618,-2.6582,-2.6473,-2.6354,-2.6354,-2.6327,-2.6527,-2.6555,-2.6618,-2.6618,-2.6573,-2.6145,-2.5567,-2.5094,-2.4861,-2.4601,-2.435,-2.4393,-2.4753,-2.4821,-2.4821,-2.4821,-2.4821,-2.4821,-2.4821,-2.4821,-2.4765,-2.4535,-2.3977,-2.3865,-2.3247,-2.2683,-2.2371,-2.2088,-2.1518,-2.1131,-2.0723,-2.0414,-1.9982,-1.9642,-1.9453,-1.9533,-1.9352,-1.8968,-1.8648,-1.8392,-1.8129,-1.7895,-1.7673,-1.7675,-1.7688,-1.7661,-1.7439,-1.7413,-1.7662,-1.7917,-1.7728,-1.74,-1.7233,-1.7104,-1.7034,-1.7001,-1.7001,-1.7001,-1.7001,-1.7001,-1.7001,-1.7001,-1.7001,-1.7001,-1.7001,-1.7001,-1.7001,-1.6882,-1.6666,-1.6569,-1.6466,-1.656,-1.6701,-1.7193,-1.7404,-1.7329,-2.8301,-2.8301,-2.8301,-2.8301,-2.8291,-2.8281,-2.8281,-2.8301,-2.8301,-2.8301,-2.8301,-2.8301,-2.8301,-2.8301,-2.8301,-2.8301,-2.8291,-2.8232,-2.8066,-2.7907,-2.8054,-2.7962,-2.7704,-2.7527,-2.7395,-2.7279,-2.6954,-2.6664,-2.6618,-2.6618,-2.6618,-2.6618,-2.6618,-2.6618,-2.6555,-2.6263,-2.6291,-2.65,-2.6263,-2.6382,-2.6527,-2.6618,-2.6618,-2.6564,-2.6409,-2.5847,-2.5236,-2.5242,-2.4917,-2.4363,-2.4556,-2.4776,-2.4821,-2.4821,-2.4821,-2.4821,-2.4821,-2.4821,-2.4821,-2.4821,-2.4515,-2.4144,-2.4116,-2.3697,-2.3191,-2.2937,-2.274,-2.2144,-2.1581,-2.101,-2.05,-2.0068,-1.9815,-1.9591,-1.9671,-1.9613,-1.9229,-1.8845,-1.859,-1.8421,-1.82,-1.7991,-1.7966,-1.7982,-1.8082,-1.7994,-1.7845,-1.7943,-1.8244,-1.8115,-1.7755,-1.74,-1.7233,-1.7098,-1.7034,-1.7001,-1.7001,-1.7001,-1.7001,-1.7001,-1.7001,-1.7001,-1.7001,-1.7001,-1.7012,-1.7017,-1.7023,-1.6996,-1.6972,-1.7005,-1.6976,-1.7167,-1.7716,-1.8009,-1.7861,-2.8301,-2.8301,-2.8301,-2.8301,-2.8301,-2.8301,-2.8301,-2.8301,-2.8301,-2.8301,-2.8301,-2.8301,-2.8301,-2.8301,-2.8301,-2.8301,-2.8301,-2.8291,-2.8135,-2.8125,-2.8242,-2.807,-2.7834,-2.7586,-2.7341,-2.708,-2.6763,-2.6636,-2.6618,-2.6636,-2.6609,-2.6618,-2.6618,-2.6618,-2.6591,-2.6473,-2.6527,-2.6564,-2.65,-2.65,-2.6591,-2.6618,-2.6609,-2.6582,-2.6418,-2.5928,-2.5209,-2.5382,-2.4974,-2.4403,-2.4622,-2.4776,-2.4821,-2.4821,-2.4821,-2.4821,-2.4821,-2.4821,-2.4821,-2.4793,-2.4738,-2.4543,-2.4395,-2.4144,-2.3697,-2.3613,-2.3275,-2.276,-2.215,-2.1553,-2.101,-2.0637,-2.0299,-1.9815,-1.9758,-1.9758,-1.949,-1.9084,-1.8765,-1.8648,-1.848,-1.8351,-1.8292,-1.83,-1.8404,-1.8518,-1.836,-1.8318,-1.8524,-1.8431,-1.8147,-1.7664,-1.7368,-1.7201,-1.7104,-1.7104,-1.7039,-1.7001,-1.7001,-1.7001,-1.7001,-1.7001,-1.7001,-1.7001,-1.7023,-1.7039,-1.7179,-1.7335,-1.7528,-1.7572,-1.7536,-1.7545,-1.79,-1.8172,-1.8226,-2.8301,-2.8301,-2.8301,-2.8301,-2.8301,-2.8301,-2.8301,-2.8301,-2.8301,-2.8301,-2.8301,-2.8301,-2.8301,-2.8301,-2.8301,-2.8301,-2.8301,-2.8301,-2.8301,-2.8301,-2.8291,-2.8191,-2.7977,-2.7691,-2.7476,-2.7152,-2.6981,-2.6854,-2.6646,-2.6718,-2.6691,-2.6646,-2.6618,-2.6618,-2.6591,-2.6591,-2.6591,-2.6591,-2.6555,-2.6582,-2.6618,-2.6618,-2.6618,-2.6527,-2.6273,-2.5837,-2.5421,-2.5166,-2.4951,-2.4628,-2.4614,-2.4821,-2.4821,-2.4821,-2.4821,-2.4821,-2.4821,-2.4821,-2.4821,-2.4821,-2.4765,-2.4765,-2.4821,-2.4627,-2.4284,-2.4228,-2.3689,-2.3183,-2.2724,-2.2121,-2.1517,-2.1174,-2.0924,-2.0472,-2.0241,-2.0234,-1.9982,-1.957,-1.912,-1.8997,-1.8787,-1.868,-1.8624,-1.8656,-1.8694,-1.8822,-1.8925,-1.885,-1.8728,-1.8617,-1.8507,-1.8083,-1.7664,-1.7523,-1.7362,-1.7271,-1.7168,-1.7034,-1.7001,-1.7001,-1.7001,-1.7001,-1.7001,-1.7039,-1.7136,-1.7265,-1.7475,-1.763,-1.7807,-1.7958,-1.802,-1.8073,-1.8207,-1.8264,-1.8393,-2.8301,-2.8301,-2.8301,-2.8301,-2.8301,-2.8301,-2.8301,-2.8301,-2.8301,-2.8301,-2.8301,-2.8301,-2.8301,-2.8301,-2.8301,-2.8301,-2.8301,-2.8301,-2.8301,-2.8301,-2.8301,-2.8237,-2.8184,-2.796,-2.7664,-2.7476,-2.7296,-2.7035,-2.67,-2.6745,-2.6745,-2.6673,-2.6618,-2.6618,-2.6618,-2.6618,-2.6618,-2.6618,-2.6618,-2.6618,-2.6618,-2.6618,-2.6564,-2.6446,-2.6172,-2.5844,-2.5526,-2.5277,-2.5027,-2.4825,-2.4812,-2.4821,-2.4821,-2.4821,-2.4821,-2.4821,-2.4821,-2.4821,-2.4821,-2.4821,-2.4821,-2.4821,-2.4821,-2.4793,-2.4738,-2.4599,-2.4172,-2.3689,-2.3259,-2.2595,-2.1985,-2.1907,-2.1773,-2.1402,-2.1052,-2.0859,-2.0608,-2.0184,-1.9671,-1.9343,-1.9063,-1.8948,-1.8998,-1.902,-1.8959,-1.8992,-1.9047,-1.9013,-1.89,-1.8784,-1.8667,-1.8507,-1.8147,-1.7878,-1.7685,-1.7497,-1.7335,-1.7201,-1.7039,-1.7007,-1.7001,-1.7087,-1.712,-1.7234,-1.7336,-1.7514,-1.7706,-1.7895,-1.8073,-1.8202,-1.8253,-1.828,-1.8285,-1.8312,-1.8398,-2.8301,-2.8301,-2.8301,-2.8301,-2.8301,-2.8301,-2.8301,-2.8301,-2.8301,-2.8301,-2.8301,-2.8301,-2.8301,-2.8301,-2.8301,-2.8301,-2.8301,-2.8301,-2.8301,-2.8301,-2.8301,-2.8301,-2.8211,-2.805,-2.7853,-2.7691,-2.7503,-2.7269,-2.6926,-2.6872,-2.6745,-2.6618,-2.6618,-2.6618,-2.6618,-2.6618,-2.6618,-2.6618,-2.6618,-2.6618,-2.6618,-2.6618,-2.65,-2.63,-2.6044,-2.5761,-2.545,-2.5155,-2.4942,-2.4849,-2.4821,-2.4821,-2.4821,-2.4821,-2.4821,-2.4821,-2.4821,-2.4821,-2.4821,-2.4821,-2.4821,-2.4793,-2.4765,-2.4793,-2.4793,-2.4738,-2.4571,-2.4108,-2.3829,-2.3279,-2.2793,-2.2595,-2.2482,-2.2256,-2.1822,-2.1345,-2.106,-2.0716,-2.022,-1.9822,-1.9535,-1.9374,-1.9395,-1.9274,-1.9197,-1.9204,-1.9168,-1.9136,-1.9072,-1.895,-1.8822,-1.8693,-1.8565,-1.827,-1.7948,-1.7723,-1.7529,-1.7368,-1.7265,-1.7201,-1.7303,-1.7363,-1.7331,-1.7495,-1.7718,-1.7852,-1.7954,-1.8155,-1.8354,-1.832,-1.8396,-1.8382,-1.8398,-1.8398,-1.8398,-2.8301,-2.8301,-2.8301,-2.8301,-2.8301,-2.8301,-2.8301,-2.8301,-2.8301,-2.8301,-2.8301,-2.8301,-2.8301,-2.8301,-2.8301,-2.8301,-2.8301,-2.8301,-2.8301,-2.8301,-2.8301,-2.8301,-2.8211,-2.813,-2.8014,-2.7879,-2.7745,-2.7539,-2.7107,-2.6773,-2.6646,-2.6763,-2.6691,-2.6618,-2.6618,-2.6618,-2.6618,-2.6618,-2.6618,-2.6618,-2.6618,-2.6618,-2.6464,-2.6263,-2.599,-2.5679,-2.5395,-2.5164,-2.5034,-2.4896,-2.4868,-2.4896,-2.4849,-2.4821,-2.4821,-2.4821,-2.4821,-2.4821,-2.4821,-2.4821,-2.4821,-2.4738,-2.4627,-2.4599,-2.4738,-2.4765,-2.4571,-2.4256,-2.4228,-2.408,-2.3652,-2.3279,-2.3167,-2.3054,-2.2425,-2.183,-2.1509,-2.1224,-2.0816,-2.0407,-2.0112,-1.99,-1.9738,-1.9561,-1.9487,-1.9541,-1.9456,-1.9258,-1.9168,-1.9072,-1.8982,-1.8886,-1.8822,-1.8661,-1.8308,-1.8013,-1.7884,-1.7755,-1.7653,-1.762,-1.7626,-1.7725,-1.7776,-1.7973,-1.8177,-1.833,-1.85,-1.8515,-1.8675,-1.8643,-1.8538,-1.8433,-1.8433,-1.8398,-1.8398,-2.8301,-2.8301,-2.8301,-2.8301,-2.8301,-2.8301,-2.8301,-2.8301,-2.8301,-2.8301,-2.8301,-2.8301,-2.8301,-2.8301,-2.8301,-2.8301,-2.8301,-2.8301,-2.8301,-2.8301,-2.8301,-2.8301,-2.8301,-2.8264,-2.8157,-2.8094,-2.7987,-2.7782,-2.7161,-2.6791,-2.6691,-2.6935,-2.6736,-2.6618,-2.6618,-2.6618,-2.6618,-2.6618,-2.6618,-2.6618,-2.6618,-2.6618,-2.6582,-2.6473,-2.6218,-2.5907,-2.5715,-2.555,-2.5385,-2.5109,-2.4942,-2.497,-2.4868,-2.4821,-2.4821,-2.4821,-2.4821,-2.4821,-2.4821,-2.4821,-2.4821,-2.4627,-2.4312,-2.4451,-2.4682,-2.4404,-2.4061,-2.434,-2.434,-2.4144,-2.3773,-2.3512,-2.3372,-2.3175,-2.2716,-2.2284,-2.2042,-2.1816,-2.1614,-2.1169,-2.0812,-2.0595,-2.0573,-2.0462,-1.9903,-1.996,-1.9743,-1.945,-1.929,-1.92,-1.9104,-1.9072,-1.8976,-1.8886,-1.8726,-1.8437,-1.8302,-1.8173,-1.8018,-1.8007,-1.8013,-1.8142,-1.8262,-1.8404,-1.8553,-1.8902,-1.9111,-1.9061,-1.9023,-1.8988,-1.8848,-1.8573,-1.8468,-1.8468,-1.8398,-2.8301,-2.8301,-2.8301,-2.8301,-2.8301,-2.8301,-2.8301,-2.8301,-2.8301,-2.8301,-2.8301,-2.8301,-2.8301,-2.8301,-2.8301,-2.8301,-2.8301,-2.8301,-2.8301,-2.8301,-2.8301,-2.8301,-2.8301,-2.8291,-2.8237,-2.8237,-2.8157,-2.7916,-2.735,-2.6926,-2.6618,-2.6691,-2.6618,-2.6618,-2.6618,-2.6618,-2.6618,-2.6618,-2.6618,-2.6618,-2.6618,-2.6564,-2.6537,-2.6282,-2.599,-2.5852,-2.5633,-2.5302,-2.521,-2.5072,-2.4915,-2.4868,-2.4821,-2.4821,-2.4821,-2.4821,-2.4821,-2.4821,-2.4821,-2.4802,-2.4819,-2.4827,-2.4652,-2.4691,-2.4487,-2.3837,-2.3705,-2.4153,-2.4312,-2.4116,-2.3865,-2.3641,-2.3436,-2.3155,-2.2986,-2.2765,-2.258,-2.2503,-2.2368,-2.2062,-2.1657,-2.1475,-2.149,-2.1117,-2.0519,-2.0112,-1.9807,-1.9545,-1.9456,-1.936,-1.9264,-1.92,-1.9104,-1.9008,-1.8904,-1.8849,-1.8712,-1.8527,-1.8366,-1.8343,-1.841,-1.8497,-1.8605,-1.8745,-1.8908,-1.9278,-1.9496,-1.9495,-1.9442,-1.9372,-1.9157,-1.8883,-1.8679,-1.8643,-1.8503,-2.8301,-2.8301,-2.8301,-2.8301,-2.8301,-2.8301,-2.8301,-2.8301,-2.8301,-2.8301,-2.8301,-2.8301,-2.8301,-2.8301,-2.8301,-2.8301,-2.8301,-2.8301,-2.8301,-2.8301,-2.8301,-2.8301,-2.8301,-2.8301,-2.8291,-2.8264,-2.797,-2.7674,-2.7458,-2.6963,-2.6618,-2.6691,-2.6691,-2.6618,-2.6618,-2.6618,-2.6618,-2.6618,-2.6618,-2.6618,-2.6618,-2.6591,-2.6537,-2.6272,-2.619,-2.5971,-2.577,-2.5495,-2.5459,-2.5284,-2.5045,-2.4915,-2.484,-2.4821,-2.4821,-2.4821,-2.4821,-2.4821,-2.4821,-2.4827,-2.4879,-2.4947,-2.4752,-2.469,-2.5119,-2.4531,-2.3825,-2.416,-2.4113,-2.3921,-2.3388,-2.307,-2.2816,-2.2562,-2.2901,-2.3062,-2.3283,-2.348,-2.3599,-2.3708,-2.3203,-2.2637,-2.2516,-2.2147,-2.1494,-2.0688,-2.0278,-1.9903,-1.9775,-1.9607,-1.9499,-1.9421,-1.9356,-1.9275,-1.9251,-1.9204,-1.9113,-1.8915,-1.8729,-1.8774,-1.8876,-1.8868,-1.8936,-1.9183,-1.9406,-1.969,-1.9853,-1.986,-1.9831,-1.9796,-1.9512,-1.9192,-1.9023,-1.8819,-1.8679,-2.8301,-2.8301,-2.8301,-2.8301,-2.8301,-2.8301,-2.8301,-2.8301,-2.8301,-2.8301,-2.8301,-2.8301,-2.8301,-2.8301,-2.8301,-2.8301,-2.8301,-2.8301,-2.8301,-2.8301,-2.8301,-2.8301,-2.8301,-2.8301,-2.8301,-2.805,-2.7701,-2.7691,-2.7691,-2.7062,-2.6691,-2.6836,-2.6763,-2.6618,-2.6618,-2.6618,-2.6618,-2.6618,-2.6618,-2.6618,-2.6618,-2.6618,-2.6582,-2.6582,-2.6491,-2.6272,-2.6136,-2.599,-2.5935,-2.5651,-2.5229,-2.5017,-2.4868,-2.4821,-2.4821,-2.4821,-2.4821,-2.4821,-2.4838,-2.4924,-2.5095,-2.5145,-2.482,-2.4935,-2.5435,-2.5193,-2.4499,-2.4146,-2.4084,-2.371,-2.3146,-2.265,-2.2395,-2.2293,-2.2805,-2.3315,-2.3756,-2.4129,-2.4454,-2.4749,-2.4255,-2.3604,-2.3279,-2.2913,-2.223,-2.1418,-2.0894,-2.0552,-2.0259,-2.0041,-1.986,-1.9787,-1.9713,-1.9638,-1.9583,-1.9525,-1.9465,-1.9432,-1.931,-1.9309,-1.9275,-1.9238,-1.9364,-1.975,-1.9967,-2.0108,-2.0216,-2.03,-2.0249,-2.015,-1.9866,-1.9547,-1.9297,-1.9093,-1.8883,-2.8301,-2.8301,-2.8301,-2.8301,-2.8301,-2.8301,-2.8301,-2.8301,-2.8301,-2.8301,-2.8301,-2.8301,-2.8301,-2.8301,-2.8301,-2.8301,-2.8301,-2.8301,-2.8301,-2.8301,-2.8301,-2.8301,-2.8264,-2.8237,-2.8264,-2.7996,-2.7593,-2.7341,-2.7422,-2.6954,-2.6609,-2.6691,-2.6691,-2.6618,-2.6618,-2.6618,-2.6618,-2.6618,-2.6618,-2.6618,-2.6618,-2.6618,-2.6618,-2.65,-2.6318,-2.6354,-2.6309,-2.6026,-2.5962,-2.5789,-2.5486,-2.5155,-2.4942,-2.4821,-2.4821,-2.4821,-2.4821,-2.4821,-2.4864,-2.5061,-2.5303,-2.5437,-2.5297,-2.5613,-2.59,-2.5908,-2.5277,-2.482,-2.4585,-2.3938,-2.337,-2.2764,-2.2404,-2.2394,-2.2702,-2.3163,-2.363,-2.3963,-2.4294,-2.4376,-2.4213,-2.3809,-2.3583,-2.3106,-2.2449,-2.1734,-2.1229,-2.0901,-2.0738,-2.049,-2.0262,-2.0227,-2.0151,-2.0016,-1.9963,-1.9854,-1.9775,-1.9808,-1.9805,-1.9672,-1.9576,-1.9527,-1.97,-2.0026,-2.0219,-2.0325,-2.0464,-2.0561,-2.0561,-2.0422,-2.0179,-1.9936,-1.9651,-1.9407,-1.9267]},{"header":{"parameterUnit":"m.s-1","parameterCategory":1,"la1":31.0,"la2":29.5877,"lo1":-88.7671,"lo2":-86.6584,"dy":0.0162,"dx":0.0185,"nx":115,"ny":88,"refTime":"2023-04-15T06:00:00:Z","depth":0,"parameterNumber":3,"parameterNumberName":"V-component_of_WINDS"},"data":[0.0,0.0,0.0,0.0,0.0,0.0,0.0,0.0,0.0,0.0,0.0,0.0,0.0,0.0,0.0,0.0,0.0,0.0,0.0,0.0,0.0,0.0,0.0,0.0,0.0,0.0,0.0,0.0,0.0,0.0,0.0,0.0,0.0,0.0,0.0,0.0,0.0,0.0,0.0,0.0,0.0,0.0,0.0,0.0,0.0,0.0,0.0,0.0,0.0,0.0,0.0,0.0,0.0,0.0,0.0,0.0,0.0,0.0,0.0,0.0,0.0,0.0,0.0,0.0,0.0,0.0,0.0,0.0,0.0,0.0,0.0,0.0,0.0,0.0,0.0,0.0,0.0,0.0,0.0,0.0,0.0,0.0,0.0,0.0,0.0,0.0,0.0,0.0,0.0,0.0,0.0,0.0,0.0,0.0,0.0,0.0,0.0,0.0,0.0,0.0,0.0,0.0,0.0,0.0,0.0,0.0,0.0,0.0,0.0,0.0,0.0,0.0,0.0,0.0,0.0,0.0,0.0,0.0,0.0,0.0,0.0,0.0,0.0,0.0,0.0,0.0,0.0,0.0,0.0,0.0,0.0,0.0,0.0,0.0,0.0,0.0,0.0,0.0,0.0,0.0,0.0,0.0,0.0,0.0,0.0,0.0,0.0,0.0,0.0,0.0,0.0,0.0,0.0,0.0,0.0,0.0,0.0,0.0,0.0,0.0,0.0,0.0,0.0,0.0,0.0,0.0,0.0,0.0,0.0,0.0,0.0,0.0,0.0,0.0,0.0,0.0,0.0,0.0,0.0,0.0,0.0,0.0,0.0,0.0,0.0,0.0,0.0,0.0,0.0,0.0,0.0,0.0,0.0,0.0,0.0,0.0,0.0,0.0,0.0,0.0,0.0,0.0,0.0,0.0,0.0,0.0,0.0,0.0,0.0,0.0,0.0,0.0,0.0,0.0,0.0,0.0,0.0,0.0,0.0,0.0,0.0,0.0,0.0,0.0,0.0,0.0,0.0,0.0,0.0,0.0,0.0,0.0,0.0,0.0,0.0,0.0,0.0,0.0,0.0,0.0,0.0,0.0,0.0,0.0,0.0,0.0,0.0,0.0,0.0,0.0,0.0,0.0,0.0,0.0,0.0,0.0,0.0,0.0,0.0,0.0,0.0,0.0,0.0,0.0,0.0,0.0,0.0,0.0,0.0,0.0,0.0,0.0,0.0,0.0,0.0,0.0,0.0,0.0,0.0,0.0,0.0,0.0,0.0,0.0,0.0,0.0,0.0,0.0,0.0,0.0,0.0,0.0,0.0,0.0,0.0,0.0,0.0,0.0,0.0,0.0,0.0,0.0,0.0,0.0,0.0,0.0,0.0,0.0,0.0,0.0,0.0,0.0,0.0,0.0,0.0,0.0,0.0,0.0,0.0,0.0,0.0,0.0,0.0,0.0,0.0,0.0,0.0,0.0,0.0,0.0,0.0,0.0,0.0,0.0,0.0,0.0,0.0,0.0,0.0,0.0,0.0,0.0,0.0,0.0,0.0,0.0,0.0,0.0,0.0,0.0,0.0,0.0,0.0,0.0,0.0,0.0,0.0,0.0,0.0,0.0,0.0,0.0,0.0,0.0,0.0,0.0,0.0,0.0,0.0,0.0,0.0,0.0,0.0,0.0,0.0,0.0,0.0,0.0,0.0,0.0,0.0,0.0,0.0,0.0,0.0,0.0,0.0,0.0,0.0,0.0,0.0,0.0,0.0,0.0,0.0,0.0,0.0,0.0,0.0,0.0,0.0,0.0,0.0,0.0,0.0,0.0,0.0,0.0,0.0,0.0,0.0,0.0,0.0,0.0,0.0,0.0,0.0,0.0,0.0,0.0,0.0,0.0,0.0,0.0,0.0,0.0,0.0,0.0,0.0,0.0,0.0,0.0,0.0,0.0,0.0,0.0,0.0,0.0,0.0,0.0,0.0,0.0,0.0,0.0,0.0,0.0,0.0,0.0,0.0,0.0,0.0,0.0,0.0,0.0,0.0,0.0,0.0,0.0,0.0,0.0,0.0,0.0,0.0,0.0,0.0,0.0,0.0,0.0,0.0,0.0,0.0,0.0,0.0,0.0,0.0,0.0,0.0,0.0,0.0,0.0,0.0,0.0,0.0,0.0,0.0,0.0,0.0,0.0,0.0,0.0,0.0,0.0,0.0,0.0,0.0,0.0,0.0,0.0,0.0,0.0,0.0,0.0,0.0,0.0,0.0,0.0,0.0,0.0,0.0,0.0,0.0,0.0,0.0,0.0,0.0,0.0,0.0,0.0,0.0,0.0,0.0,0.0,0.0,0.0,0.0,0.0,0.0,0.0,0.0,0.0,0.0,0.0,0.0,0.0,0.0,0.0,0.0,0.0,0.0,0.0,0.0,0.0,0.0,0.0,0.0,0.0,0.0,0.0,0.0,0.0,0.0,0.0,0.0,0.0,0.0,0.0,0.0,0.0,0.0,0.0,0.0,0.0,0.0,0.0,0.0,0.0,0.0,0.0,0.0,0.0,0.0,0.0,0.0,0.0,0.0,0.0,0.0,0.0,0.0,0.0,0.0,0.0,0.0,0.0,0.0,0.0,0.0,0.0,0.0,0.0,0.0,0.0,0.0,0.0,0.0,0.0,0.0,0.0,0.0,0.0,0.0,0.0,0.0,0.0,0.0,0.0,0.0,0.0,0.0,0.0,0.0,0.0,0.0,0.0,0.0,0.0,0.0,0.0,0.0,0.0,0.0,0.0,0.0,0.0,0.0,0.0,0.0,0.0,0.0,0.0,0.0,0.0,0.0,0.0,0.0,0.0,0.0,0.0,0.0,0.0,0.0,0.0,0.0,0.0,0.0,0.0,0.0,0.0,0.0,0.0,0.0,0.0,0.0,0.0,0.0,0.0,0.0,0.0,0.0,0.0,0.0,0.0,0.0,0.0,0.0,0.0,0.0,0.0,0.0,0.0,0.0,0.0,0.0,0.0,0.0,0.0,0.0,0.0,0.0,0.0,0.0,0.0,0.0,0.0,0.0,0.0,0.0,0.0,0.0,0.0,0.0,0.0,0.0,0.0,0.0,0.0,0.0,0.0,0.0,0.0,0.0,0.0,0.0,0.0,0.0,0.0,0.0,0.0,0.0,0.0,0.0,0.0,0.0,0.0,0.0,0.0,0.0,0.0,0.0,0.0,0.0,0.0,0.0,0.0,0.0,0.0,0.0,0.0,0.0,0.0,0.0,0.0,0.0,0.0,0.0,0.0,0.0,0.0,0.0,0.0,0.0,0.0,0.0,0.0,0.0,0.0,0.0,0.0,0.0,0.0,0.0,0.0,0.0,0.0,0.0,0.0,0.0,0.0,0.0,0.0,0.0,0.0,0.0,0.0,0.0,0.0,0.0,0.0,0.0,0.0,0.0,0.0,0.0,0.0,0.0,0.0,0.0,0.0,0.0,0.0,0.0,0.0,0.0,0.0,0.0,0.0,0.0,0.0,0.0,0.0,0.0,0.0,0.0,0.0,0.0,0.0,0.0,0.0,0.0,0.0,0.0,0.0,0.0,0.0,0.0,0.0,0.0,0.0,0.0,0.0,0.0,0.0,0.0,0.0,0.0,0.0,0.0,0.0,0.0,0.0,0.0,0.0,0.0,0.0,0.0,0.0,0.0,0.0,0.0,0.0,0.0,0.0,0.0,0.0,0.0,0.0,0.0,0.0,0.0,0.0,0.0,0.0,0.0,0.0,0.0,0.0,0.0,0.0,0.0,0.0,0.0,0.0,0.0,0.0,0.0,0.0,0.0,0.0,0.0,0.0,0.0,0.0,0.0,0.0,0.0,0.0,0.0,0.0,0.0,0.0,0.0,0.0,0.0,0.0,0.0,0.0,0.0,0.0,0.0,0.0,0.0,0.0,0.0,0.0,0.0,0.0,0.0,0.0,0.0,0.0,0.0,0.0,0.0,0.0,0.0,0.0,0.0,0.0,0.0,0.0,0.0,0.0,0.0,0.0,0.0,0.0,0.0,0.0,0.0,0.0,0.0,0.0,0.0,0.0,0.0,0.0,0.0,0.0,0.0,0.0,0.0,0.0,0.0,0.0,0.0,0.0,0.0,0.0,0.0,0.0,0.0,0.0,0.0,0.0,0.0,0.0,0.0,0.0,0.0,0.0,0.0,0.0,0.0,0.0,0.0,0.0,0.0,0.0,0.0,0.0,0.0,0.0,0.0,0.0,0.0,0.0,0.0,0.0,0.0,0.0,0.0,0.0,0.0,0.0,0.0,0.0,2.5604,0.0,0.0,0.0,0.0,0.0,0.0,0.0,0.0,0.0,0.0,0.0,0.0,0.0,0.0,0.0,0.0,0.0,0.0,0.0,0.0,0.0,0.0,0.0,0.0,0.0,0.0,0.0,0.0,0.0,0.0,0.0,0.0,0.0,0.0,0.0,0.0,0.0,0.0,0.0,0.0,0.0,0.0,0.0,0.0,0.0,0.0,0.0,0.0,0.0,0.0,0.0,0.0,0.0,0.0,0.0,0.0,0.0,0.0,0.0,0.0,0.0,0.0,0.0,0.0,0.0,0.0,0.0,0.0,0.0,0.0,0.0,0.0,0.0,0.0,0.0,0.0,0.0,0.0,0.0,0.0,0.0,0.0,0.0,0.0,0.0,0.0,0.0,0.0,0.0,0.0,0.0,0.0,0.0,0.0,0.0,0.0,0.0,0.0,0.0,0.0,0.0,0.0,0.0,0.0,0.0,0.0,0.0,0.0,0.0,0.0,2.5601,2.5604,2.5606,2.5602,2.5595,0.0,0.0,0.0,0.0,0.0,0.0,0.0,0.0,0.0,0.0,0.0,0.0,0.0,0.0,0.0,0.0,0.0,0.0,0.0,0.0,0.0,0.0,0.0,0.0,0.0,0.0,0.0,0.0,0.0,0.0,0.0,0.0,0.0,0.0,0.0,0.0,0.0,0.0,0.0,0.0,0.0,0.0,0.0,0.0,0.0,0.0,0.0,0.0,0.0,0.0,0.0,0.0,0.0,0.0,0.0,0.0,0.0,0.0,0.0,0.0,0.0,0.0,0.0,0.0,0.0,0.0,0.0,0.0,0.0,0.0,0.0,0.0,0.0,0.0,0.0,0.0,0.0,0.0,0.0,0.0,0.0,0.0,0.0,0.0,0.0,0.0,0.0,0.0,0.0,0.0,0.0,0.0,0.0,0.0,0.0,0.0,0.0,0.0,0.0,0.0,0.0,0.0,0.0,0.0,0.0,0.0,0.0,0.0,0.0,0.0,0.0,0.0,2.5596,2.561,2.5612,0.0,0.0,0.0,0.0,0.0,0.0,0.0,0.0,0.0,0.0,0.0,0.0,0.0,0.0,0.0,0.0,0.0,0.0,0.0,0.0,0.0,0.0,0.0,0.0,0.0,0.0,0.0,0.0,0.0,0.0,0.0,0.0,0.0,0.0,0.0,0.0,0.0,0.0,0.0,0.0,0.0,0.0,0.0,0.0,0.0,0.0,0.0,0.0,0.0,0.0,0.0,0.0,0.0,0.0,0.0,0.0,0.0,0.0,0.0,0.0,0.0,0.0,0.0,0.0,0.0,0.0,0.0,0.0,0.0,0.0,0.0,0.0,0.0,0.0,0.0,0.0,0.0,0.0,0.0,0.0,0.0,0.0,0.0,0.0,0.0,0.0,0.0,0.0,0.0,0.0,0.0,0.0,0.0,0.0,0.0,0.0,0.0,0.0,0.0,0.0,0.0,0.0,0.0,0.0,0.0,0.0,0.0,0.0,0.0,0.0,2.5629,2.5677,2.5639,0.0,2.5604,0.0,0.0,0.0,0.0,0.0,0.0,0.0,0.0,0.0,0.0,0.0,0.0,0.0,0.0,0.0,0.0,0.0,0.0,0.0,0.0,0.0,0.0,0.0,0.0,0.0,0.0,0.0,0.0,0.0,0.0,0.0,0.0,0.0,0.0,0.0,0.0,0.0,0.0,0.0,0.0,0.0,0.0,0.0,0.0,0.0,0.0,0.0,0.0,0.0,0.0,0.0,0.0,0.0,0.0,0.0,0.0,0.0,0.0,0.0,0.0,0.0,0.0,0.0,0.0,0.0,0.0,0.0,0.0,0.0,0.0,0.0,0.0,0.0,0.0,0.0,0.0,0.0,0.0,0.0,0.0,0.0,0.0,0.0,0.0,0.0,0.0,0.0,0.0,0.0,0.0,0.0,0.0,0.0,0.0,0.0,0.0,0.0,0.0,0.0,0.0,0.0,0.0,0.0,0.0,0.0,0.0,0.0,0.0,0.0,0.0,2.639,2.6419,2.6385,2.6127,0.0,0.0,0.0,0.0,0.0,0.0,0.0,0.0,0.0,0.0,0.0,0.0,0.0,0.0,0.0,0.0,0.0,0.0,0.0,0.0,0.0,0.0,0.0,0.0,0.0,0.0,0.0,0.0,0.0,0.0,0.0,0.0,0.0,0.0,0.0,0.0,0.0,0.0,0.0,0.0,0.0,0.0,0.0,0.0,0.0,0.0,0.0,0.0,0.0,0.0,0.0,0.0,0.0,0.0,0.0,0.0,0.0,0.0,0.0,0.0,0.0,0.0,0.0,0.0,0.0,0.0,0.0,0.0,0.0,0.0,0.0,0.0,0.0,0.0,0.0,0.0,0.0,0.0,0.0,0.0,0.0,0.0,0.0,0.0,0.0,0.0,0.0,0.0,0.0,0.0,0.0,0.0,0.0,0.0,0.0,0.0,0.0,0.0,0.0,0.0,0.0,0.0,0.0,0.0,0.0,0.0,0.0,0.0,0.0,0.0,2.6934,2.7132,2.6904,2.6684,2.6388,2.5979,0.0,0.0,0.0,0.0,0.0,0.0,0.0,0.0,0.0,0.0,0.0,0.0,0.0,0.0,0.0,0.0,0.0,0.0,0.0,0.0,0.0,0.0,0.0,0.0,0.0,0.0,0.0,0.0,0.0,0.0,0.0,0.0,0.0,0.0,0.0,0.0,0.0,0.0,0.0,0.0,0.0,0.0,0.0,0.0,0.0,0.0,0.0,0.0,0.0,0.0,0.0,0.0,0.0,0.0,0.0,0.0,0.0,0.0,0.0,0.0,0.0,0.0,0.0,0.0,0.0,0.0,0.0,0.0,0.0,0.0,0.0,0.0,0.0,0.0,0.0,0.0,0.0,0.0,0.0,0.0,0.0,0.0,0.0,0.0,0.0,0.0,0.0,0.0,0.0,0.0,0.0,0.0,0.0,0.0,0.0,0.0,0.0,0.0,0.0,0.0,0.0,0.0,0.0,0.0,0.0,0.0,0.0,0.0,2.8092,2.8131,2.7743,2.6945,2.6167,2.6107,0.0,0.0,0.0,0.0,0.0,0.0,0.0,0.0,0.0,0.0,0.0,0.0,0.0,0.0,0.0,0.0,0.0,0.0,0.0,0.0,0.0,0.0,0.0,0.0,0.0,0.0,0.0,0.0,0.0,0.0,0.0,0.0,0.0,0.0,0.0,0.0,0.0,0.0,0.0,0.0,0.0,0.0,0.0,0.0,0.0,0.0,0.0,0.0,0.0,0.0,0.0,0.0,0.0,0.0,0.0,0.0,0.0,0.0,0.0,0.0,0.0,0.0,0.0,0.0,0.0,0.0,0.0,0.0,0.0,0.0,0.0,0.0,0.0,0.0,0.0,0.0,0.0,0.0,0.0,0.0,0.0,0.0,0.0,0.0,0.0,0.0,0.0,0.0,0.0,0.0,0.0,0.0,0.0,0.0,0.0,0.0,0.0,0.0,0.0,0.0,0.0,0.0,0.0,0.0,0.0,0.0,0.0,0.0,0.0,2.8308,2.8756,2.8618,2.7783,2.7976,2.8015,0.0,0.0,0.0,0.0,0.0,0.0,0.0,0.0,0.0,0.0,0.0,0.0,0.0,0.0,0.0,0.0,0.0,0.0,0.0,0.0,0.0,0.0,0.0,0.0,0.0,0.0,0.0,0.0,0.0,0.0,0.0,0.0,0.0,0.0,0.0,0.0,0.0,0.0,0.0,0.0,0.0,0.0,0.0,0.0,0.0,0.0,0.0,0.0,0.0,0.0,0.0,0.0,0.0,0.0,0.0,0.0,0.0,0.0,0.0,0.0,0.0,0.0,0.0,0.0,0.0,0.0,0.0,0.0,0.0,0.0,0.0,0.0,0.0,0.0,0.0,0.0,0.0,0.0,0.0,0.0,0.0,0.0,0.0,0.0,0.0,0.0,0.0,0.0,0.0,0.0,0.0,0.0,0.0,0.0,0.0,0.0,0.0,0.0,0.0,0.0,0.0,0.0,0.0,0.0,0.0,0.0,0.0,0.0,0.0,2.9484,0.0,2.9925,2.9099,2.9337,2.9223,0.0,0.0,0.0,0.0,0.0,0.0,0.0,0.0,0.0,0.0,0.0,0.0,0.0,0.0,0.0,0.0,0.0,0.0,0.0,0.0,0.0,0.0,0.0,0.0,0.0,0.0,0.0,0.0,0.0,0.0,0.0,0.0,0.0,0.0,0.0,0.0,0.0,0.0,0.0,0.0,0.0,0.0,0.0,0.0,0.0,0.0,0.0,0.0,0.0,0.0,0.0,0.0,0.0,0.0,0.0,0.0,0.0,0.0,0.0,0.0,0.0,0.0,0.0,0.0,0.0,0.0,0.0,0.0,0.0,0.0,0.0,0.0,0.0,0.0,0.0,0.0,0.0,0.0,0.0,0.0,0.0,0.0,0.0,0.0,0.0,0.0,0.0,0.0,0.0,0.0,0.0,0.0,0.0,0.0,0.0,0.0,0.0,0.0,0.0,0.0,0.0,0.0,0.0,0.0,0.0,0.0,0.0,0.0,3.1187,3.1893,3.1961,3.1539,3.082,2.9976,2.9534,0.0,0.0,0.0,0.0,0.0,0.0,0.0,0.0,0.0,0.0,0.0,0.0,0.0,0.0,0.0,0.0,0.0,0.0,0.0,0.0,0.0,0.0,0.0,0.0,0.0,0.0,0.0,0.0,0.0,0.0,0.0,0.0,0.0,0.0,0.0,0.0,0.0,0.0,0.0,0.0,0.0,0.0,0.0,0.0,0.0,0.0,0.0,0.0,0.0,0.0,0.0,0.0,0.0,0.0,0.0,0.0,0.0,0.0,0.0,0.0,0.0,0.0,0.0,0.0,0.0,0.0,0.0,0.0,0.0,0.0,0.0,0.0,0.0,0.0,0.0,0.0,0.0,0.0,0.0,0.0,0.0,0.0,0.0,0.0,0.0,0.0,0.0,0.0,0.0,0.0,0.0,0.0,0.0,0.0,0.0,0.0,0.0,0.0,0.0,0.0,0.0,0.0,0.0,0.0,0.0,0.0,0.0,0.0,0.0,3.118,3.1207,3.1073,3.0813,3.0544,3.0392,0.0,0.0,0.0,0.0,0.0,0.0,0.0,0.0,0.0,0.0,0.0,0.0,0.0,0.0,0.0,0.0,0.0,0.0,0.0,0.0,0.0,0.0,0.0,0.0,0.0,0.0,0.0,0.0,0.0,0.0,0.0,0.0,0.0,0.0,0.0,0.0,0.0,0.0,0.0,0.0,0.0,0.0,0.0,0.0,0.0,0.0,0.0,0.0,0.0,0.0,0.0,0.0,0.0,0.0,0.0,0.0,0.0,0.0,0.0,0.0,0.0,0.0,0.0,0.0,0.0,0.0,0.0,0.0,0.0,0.0,0.0,0.0,0.0,0.0,0.0,0.0,0.0,0.0,0.0,0.0,0.0,0.0,0.0,0.0,0.0,0.0,0.0,0.0,0.0,0.0,0.0,0.0,0.0,0.0,0.0,0.0,0.0,0.0,0.0,0.0,0.0,0.0,0.0,0.0,0.0,0.0,0.0,0.0,0.0,3.0839,3.1444,3.1617,3.1259,3.1287,3.1134,3.082,0.0,0.0,0.0,0.0,0.0,0.0,0.0,0.0,0.0,0.0,0.0,0.0,0.0,0.0,0.0,0.0,0.0,0.0,0.0,0.0,0.0,0.0,0.0,0.0,0.0,0.0,0.0,0.0,0.0,0.0,0.0,0.0,0.0,0.0,0.0,0.0,0.0,0.0,0.0,0.0,0.0,0.0,0.0,0.0,0.0,0.0,0.0,0.0,0.0,0.0,0.0,0.0,0.0,0.0,0.0,0.0,0.0,0.0,0.0,0.0,0.0,0.0,0.0,0.0,0.0,0.0,0.0,0.0,0.0,0.0,0.0,0.0,0.0,0.0,0.0,0.0,0.0,0.0,0.0,0.0,0.0,0.0,0.0,0.0,0.0,0.0,0.0,0.0,0.0,0.0,0.0,0.0,0.0,0.0,0.0,0.0,0.0,0.0,0.0,0.0,0.0,0.0,0.0,0.0,0.0,0.0,0.0,0.0,3.0938,3.2558,3.2903,3.1928,3.1965,3.1643,0.0,0.0,0.0,0.0,0.0,0.0,0.0,0.0,0.0,0.0,0.0,0.0,0.0,0.0,0.0,0.0,0.0,0.0,0.0,0.0,0.0,0.0,0.0,0.0,0.0,0.0,0.0,0.0,0.0,0.0,0.0,0.0,0.0,0.0,0.0,0.0,0.0,0.0,0.0,0.0,0.0,0.0,0.0,0.0,0.0,0.0,0.0,0.0,0.0,0.0,0.0,0.0,0.0,0.0,0.0,0.0,0.0,0.0,0.0,0.0,0.0,0.0,0.0,0.0,0.0,0.0,0.0,0.0,0.0,0.0,0.0,0.0,0.0,0.0,0.0,0.0,0.0,0.0,0.0,0.0,0.0,0.0,0.0,0.0,0.0,0.0,0.0,0.0,0.0,0.0,0.0,0.0,0.0,0.0,0.0,0.0,0.0,0.0,0.0,0.0,0.0,0.0,0.0,0.0,0.0,0.0,0.0,0.0,0.0,3.2734,3.3164,3.2673,3.1183,3.1151,3.1035,0.0,0.0,0.0,0.0,0.0,0.0,0.0,0.0,0.0,0.0,0.0,0.0,0.0,0.0,0.0,0.0,0.0,0.0,0.0,0.0,0.0,0.0,0.0,0.0,0.0,0.0,0.0,0.0,0.0,0.0,0.0,0.0,0.0,0.0,0.0,0.0,0.0,0.0,0.0,0.0,0.0,0.0,0.0,0.0,0.0,0.0,0.0,0.0,0.0,0.0,0.0,0.0,0.0,0.0,0.0,0.0,0.0,0.0,0.0,0.0,0.0,0.0,0.0,0.0,0.0,0.0,0.0,0.0,0.0,0.0,0.0,0.0,0.0,0.0,0.0,0.0,0.0,0.0,0.0,0.0,0.0,0.0,0.0,0.0,0.0,0.0,0.0,0.0,0.0,0.0,0.0,0.0,0.0,0.0,0.0,0.0,0.0,0.0,0.0,0.0,0.0,0.0,0.0,0.0,0.0,0.0,0.0,0.0,3.3379,3.3379,3.3379,3.2909,3.1934,3.1543,3.1173,0.0,0.0,0.0,0.0,0.0,0.0,0.0,0.0,0.0,0.0,0.0,0.0,0.0,0.0,0.0,0.0,0.0,0.0,0.0,0.0,0.0,0.0,0.0,0.0,0.0,0.0,0.0,0.0,0.0,0.0,0.0,0.0,0.0,0.0,0.0,0.0,0.0,0.0,0.0,0.0,0.0,0.0,0.0,0.0,0.0,0.0,0.0,0.0,0.0,0.0,0.0,0.0,0.0,0.0,0.0,0.0,0.0,0.0,0.0,0.0,0.0,0.0,0.0,0.0,0.0,0.0,0.0,0.0,0.0,0.0,0.0,0.0,0.0,0.0,0.0,0.0,0.0,0.0,0.0,0.0,0.0,0.0,0.0,0.0,0.0,0.0,0.0,0.0,0.0,0.0,0.0,0.0,0.0,0.0,0.0,0.0,0.0,0.0,0.0,0.0,0.0,0.0,0.0,0.0,0.0,0.0,0.0,0.0,3.3646,3.3651,3.3647,3.3608,3.3513,3.2677,3.1876,0.0,0.0,0.0,0.0,0.0,0.0,0.0,0.0,0.0,0.0,0.0,0.0,0.0,0.0,0.0,0.0,0.0,0.0,0.0,0.0,0.0,0.0,0.0,0.0,0.0,0.0,0.0,0.0,0.0,0.0,0.0,0.0,0.0,0.0,0.0,0.0,0.0,0.0,0.0,0.0,0.0,0.0,0.0,0.0,0.0,0.0,0.0,0.0,0.0,0.0,0.0,0.0,0.0,0.0,0.0,0.0,0.0,0.0,0.0,0.0,0.0,0.0,0.0,0.0,0.0,0.0,0.0,0.0,0.0,0.0,0.0,0.0,0.0,0.0,0.0,0.0,0.0,0.0,0.0,0.0,0.0,0.0,0.0,0.0,0.0,0.0,0.0,0.0,0.0,0.0,0.0,0.0,0.0,0.0,0.0,0.0,0.0,0.0,0.0,0.0,0.0,0.0,0.0,0.0,0.0,0.0,0.0,0.0,3.5327,3.5382,3.5308,3.4977,3.437,3.3553,3.3026,0.0,0.0,0.0,0.0,0.0,0.0,0.0,0.0,0.0,0.0,0.0,0.0,0.0,0.0,0.0,0.0,0.0,0.0,0.0,0.0,0.0,0.0,0.0,0.0,0.0,0.0,0.0,0.0,0.0,0.0,0.0,0.0,0.0,0.0,0.0,0.0,0.0,0.0,0.0,0.0,0.0,0.0,0.0,0.0,0.0,0.0,0.0,0.0,3.5795,0.0,0.0,0.0,0.0,0.0,0.0,0.0,0.0,0.0,0.0,0.0,0.0,0.0,0.0,0.0,0.0,0.0,0.0,0.0,0.0,0.0,0.0,0.0,0.0,0.0,0.0,0.0,0.0,0.0,0.0,0.0,0.0,0.0,0.0,0.0,0.0,0.0,0.0,0.0,0.0,0.0,0.0,0.0,0.0,0.0,0.0,0.0,0.0,0.0,0.0,0.0,0.0,0.0,0.0,0.0,0.0,0.0,0.0,0.0,3.578,3.5855,3.5831,3.5608,3.5225,3.4799,3.4195,0.0,0.0,0.0,0.0,0.0,0.0,0.0,0.0,0.0,0.0,0.0,0.0,0.0,0.0,0.0,0.0,0.0,0.0,0.0,0.0,0.0,0.0,0.0,0.0,0.0,0.0,0.0,0.0,0.0,0.0,0.0,0.0,0.0,0.0,0.0,0.0,0.0,0.0,0.0,0.0,0.0,0.0,0.0,0.0,0.0,0.0,0.0,0.0,0.0,0.0,0.0,0.0,0.0,0.0,0.0,0.0,0.0,0.0,0.0,0.0,0.0,0.0,0.0,0.0,0.0,0.0,0.0,0.0,0.0,0.0,0.0,0.0,0.0,0.0,0.0,0.0,0.0,0.0,0.0,0.0,0.0,0.0,0.0,0.0,0.0,0.0,0.0,0.0,0.0,0.0,0.0,0.0,0.0,0.0,0.0,0.0,0.0,0.0,0.0,0.0,0.0,0.0,0.0,0.0,0.0,0.0,0.0,3.5712,3.5708,3.5776,3.578,3.5829,3.5878,3.5889,3.525,3.3865,0.0,0.0,0.0,0.0,0.0,0.0,0.0,0.0,0.0,0.0,0.0,0.0,0.0,0.0,0.0,0.0,0.0,0.0,0.0,0.0,0.0,0.0,0.0,0.0,0.0,0.0,0.0,0.0,0.0,0.0,0.0,0.0,0.0,0.0,0.0,0.0,0.0,0.0,3.6008,3.6172,0.0,0.0,0.0,0.0,0.0,0.0,0.0,0.0,3.8457,0.0,0.0,0.0,0.0,0.0,0.0,0.0,0.0,0.0,0.0,0.0,0.0,0.0,0.0,0.0,0.0,0.0,0.0,0.0,0.0,0.0,0.0,0.0,0.0,0.0,0.0,0.0,0.0,0.0,0.0,0.0,0.0,0.0,0.0,0.0,0.0,0.0,0.0,0.0,0.0,0.0,0.0,0.0,0.0,0.0,0.0,0.0,0.0,0.0,0.0,0.0,0.0,0.0,0.0,0.0,0.0,3.5717,3.5642,3.5648,3.5703,3.5708,3.5763,3.581,3.5883,3.5766,3.5502,0.0,0.0,0.0,0.0,0.0,0.0,0.0,0.0,0.0,0.0,0.0,0.0,0.0,0.0,0.0,0.0,0.0,0.0,0.0,0.0,0.0,0.0,0.0,0.0,0.0,0.0,0.0,0.0,0.0,0.0,0.0,0.0,0.0,0.0,0.0,0.0,0.0,0.0,0.0,3.7598,3.8082,0.0,0.0,0.0,0.0,0.0,0.0,0.0,0.0,3.8379,0.0,0.0,0.0,0.0,0.0,0.0,0.0,0.0,0.0,0.0,0.0,0.0,0.0,0.0,0.0,0.0,0.0,0.0,0.0,0.0,0.0,0.0,0.0,0.0,0.0,0.0,0.0,0.0,0.0,0.0,0.0,0.0,0.0,0.0,0.0,0.0,0.0,0.0,0.0,0.0,0.0,0.0,0.0,0.0,0.0,0.0,0.0,0.0,0.0,0.0,0.0,0.0,0.0,0.0,0.0,3.5643,3.5571,3.5581,3.5642,3.5647,3.5712,3.584,3.5887,3.5926,0.0,0.0,0.0,0.0,0.0,0.0,0.0,0.0,0.0,0.0,0.0,0.0,0.0,0.0,0.0,0.0,0.0,0.0,0.0,0.0,0.0,0.0,0.0,0.0,0.0,0.0,0.0,0.0,0.0,0.0,0.0,0.0,0.0,0.0,0.0,0.0,0.0,0.0,0.0,0.0,3.8241,3.8511,3.8548,0.0,0.0,0.0,0.0,0.0,0.0,3.9817,3.9791,0.0,0.0,0.0,0.0,0.0,0.0,0.0,0.0,0.0,0.0,0.0,0.0,0.0,0.0,0.0,0.0,0.0,0.0,0.0,0.0,0.0,0.0,0.0,0.0,0.0,0.0,0.0,0.0,0.0,0.0,0.0,0.0,0.0,0.0,0.0,0.0,0.0,0.0,0.0,0.0,0.0,0.0,0.0,0.0,0.0,0.0,0.0,0.0,0.0,0.0,0.0,0.0,0.0,0.0,0.0,3.5599,3.5562,3.5556,3.5607,3.5621,3.5684,3.585,3.5856,3.5903,0.0,0.0,0.0,0.0,0.0,0.0,0.0,0.0,0.0,0.0,0.0,0.0,0.0,0.0,0.0,0.0,0.0,0.0,0.0,0.0,0.0,0.0,0.0,0.0,0.0,0.0,0.0,0.0,0.0,0.0,0.0,0.0,0.0,0.0,0.0,0.0,0.0,0.0,0.0,0.0,0.0,3.9032,3.9099,3.9705,0.0,0.0,0.0,0.0,4.1106,4.1039,0.0,0.0,0.0,0.0,0.0,0.0,0.0,0.0,0.0,0.0,0.0,0.0,0.0,0.0,0.0,0.0,0.0,0.0,0.0,0.0,0.0,0.0,0.0,0.0,0.0,0.0,0.0,0.0,0.0,0.0,0.0,0.0,0.0,0.0,0.0,0.0,0.0,0.0,0.0,0.0,0.0,0.0,0.0,0.0,0.0,0.0,0.0,0.0,0.0,0.0,0.0,0.0,0.0,0.0,0.0,0.0,3.559,3.559,3.5578,3.561,3.5621,3.5651,3.5716,3.5779,3.5831,0.0,0.0,0.0,0.0,0.0,0.0,0.0,0.0,0.0,0.0,0.0,0.0,0.0,0.0,0.0,0.0,0.0,0.0,0.0,0.0,0.0,0.0,0.0,0.0,0.0,0.0,0.0,0.0,0.0,0.0,0.0,0.0,0.0,0.0,0.0,0.0,0.0,0.0,0.0,0.0,0.0,4.0798,4.0818,4.0896,4.0954,0.0,0.0,4.1109,4.1107,4.1105,0.0,0.0,0.0,0.0,0.0,0.0,0.0,0.0,0.0,0.0,0.0,0.0,0.0,0.0,0.0,0.0,0.0,0.0,0.0,0.0,0.0,0.0,0.0,0.0,0.0,0.0,0.0,0.0,0.0,0.0,0.0,0.0,0.0,0.0,0.0,0.0,0.0,0.0,0.0,0.0,0.0,0.0,0.0,0.0,0.0,0.0,0.0,0.0,0.0,0.0,0.0,0.0,0.0,0.0,0.0,3.604,3.6913,3.6514,3.6505,3.6951,3.6955,3.6788,3.6439,3.6416,3.6269,0.0,0.0,0.0,0.0,0.0,0.0,0.0,0.0,0.0,0.0,0.0,0.0,0.0,0.0,0.0,0.0,0.0,0.0,0.0,0.0,0.0,0.0,0.0,0.0,0.0,0.0,0.0,0.0,0.0,0.0,0.0,0.0,0.0,0.0,0.0,0.0,0.0,0.0,0.0,0.0,0.0,0.0,4.1111,4.111,0.0,0.0,0.0,4.1109,4.1108,0.0,0.0,0.0,0.0,0.0,0.0,0.0,0.0,0.0,0.0,0.0,0.0,0.0,0.0,0.0,0.0,0.0,0.0,0.0,0.0,0.0,0.0,0.0,0.0,0.0,0.0,0.0,0.0,0.0,0.0,0.0,0.0,0.0,0.0,0.0,0.0,0.0,0.0,0.0,0.0,0.0,0.0,0.0,0.0,0.0,0.0,0.0,0.0,0.0,0.0,0.0,0.0,0.0,0.0,0.0,0.0,0.0,3.7994,3.7435,3.7416,3.7994,3.8003,3.7775,3.7282,3.7232,0.0,0.0,0.0,0.0,0.0,0.0,0.0,0.0,0.0,0.0,0.0,0.0,0.0,0.0,0.0,0.0,0.0,0.0,0.0,0.0,0.0,0.0,0.0,0.0,0.0,0.0,0.0,3.5924,0.0,0.0,0.0,0.0,0.0,0.0,0.0,0.0,0.0,0.0,0.0,0.0,0.0,0.0,4.1109,4.1111,4.111,4.1108,0.0,0.0,4.1108,4.1107,4.1101,4.1177,0.0,0.0,0.0,0.0,0.0,0.0,0.0,0.0,0.0,0.0,0.0,0.0,0.0,0.0,0.0,0.0,0.0,0.0,0.0,0.0,0.0,0.0,0.0,0.0,0.0,0.0,0.0,0.0,0.0,0.0,0.0,0.0,0.0,0.0,0.0,0.0,0.0,0.0,0.0,0.0,0.0,0.0,0.0,0.0,0.0,0.0,0.0,0.0,0.0,0.0,0.0,0.0,0.0,0.0,3.7921,3.8067,3.8047,3.8044,3.8086,3.8036,3.8005,3.8025,3.8032,3.8028,0.0,0.0,0.0,0.0,0.0,0.0,0.0,0.0,0.0,0.0,0.0,0.0,0.0,0.0,0.0,0.0,0.0,0.0,0.0,0.0,0.0,0.0,0.0,0.0,0.0,0.0,0.0,0.0,0.0,0.0,0.0,0.0,0.0,0.0,0.0,0.0,0.0,0.0,0.0,0.0,0.0,4.1111,4.1111,4.1111,4.111,0.0,4.111,4.111,4.1108,4.1107,4.138,4.2182,0.0,0.0,0.0,0.0,0.0,0.0,0.0,0.0,0.0,0.0,0.0,0.0,0.0,0.0,0.0,0.0,0.0,0.0,0.0,0.0,0.0,0.0,0.0,0.0,0.0,0.0,0.0,0.0,0.0,0.0,0.0,0.0,0.0,0.0,0.0,0.0,0.0,0.0,0.0,0.0,0.0,0.0,0.0,0.0,0.0,0.0,0.0,0.0,0.0,0.0,0.0,0.0,0.0,3.8537,3.9549,3.909,3.909,3.9552,3.9557,3.9318,3.8868,3.884,3.863,0.0,0.0,0.0,0.0,0.0,0.0,0.0,0.0,0.0,0.0,0.0,0.0,0.0,0.0,0.0,0.0,0.0,0.0,0.0,0.0,0.0,0.0,0.0,0.0,0.0,0.0,0.0,0.0,3.6015,3.6328,3.7187,0.0,0.0,0.0,0.0,0.0,0.0,0.0,0.0,0.0,0.0,4.1109,4.1107,4.1109,0.0,0.0,4.111,4.111,4.1111,4.1562,4.2011,4.2344,4.2849,0.0,0.0,0.0,0.0,0.0,0.0,0.0,0.0,0.0,0.0,0.0,0.0,0.0,0.0,0.0,0.0,0.0,0.0,0.0,0.0,0.0,0.0,0.0,0.0,0.0,0.0,0.0,0.0,0.0,0.0,0.0,0.0,0.0,0.0,0.0,0.0,0.0,0.0,0.0,0.0,0.0,0.0,0.0,0.0,0.0,0.0,0.0,0.0,0.0,0.0,0.0,0.0,3.9319,4.0492,3.9938,3.9935,4.0492,4.0492,4.0215,3.968,3.9664,3.9408,0.0,0.0,0.0,0.0,0.0,0.0,0.0,0.0,0.0,0.0,0.0,0.0,0.0,0.0,0.0,0.0,0.0,0.0,0.0,0.0,0.0,0.0,0.0,0.0,0.0,0.0,0.0,0.0,3.6576,3.6986,3.7592,0.0,0.0,0.0,0.0,0.0,0.0,0.0,0.0,0.0,0.0,4.1554,4.1803,4.1845,4.1849,4.1852,4.185,4.183,4.1852,4.2371,4.2845,4.3095,0.0,0.0,0.0,0.0,0.0,0.0,0.0,0.0,0.0,0.0,0.0,0.0,0.0,0.0,0.0,0.0,0.0,0.0,0.0,0.0,0.0,0.0,0.0,0.0,0.0,0.0,0.0,3.4409,0.0,0.0,3.4623,0.0,0.0,0.0,0.0,0.0,0.0,0.0,0.0,0.0,0.0,0.0,0.0,0.0,0.0,0.0,0.0,0.0,0.0,0.0,0.0,0.0,0.0,4.0473,4.0512,4.0531,4.0516,4.0531,4.0512,4.0535,4.0516,4.0477,4.0477,4.0427,0.0,0.0,0.0,0.0,0.0,0.0,0.0,0.0,0.0,0.0,0.0,0.0,0.0,0.0,0.0,0.0,0.0,0.0,0.0,0.0,0.0,0.0,0.0,0.0,0.0,0.0,3.71,3.7932,3.8417,0.0,0.0,0.0,0.0,0.0,0.0,0.0,0.0,0.0,0.0,4.2264,4.2594,4.3391,4.3529,4.3474,4.3487,4.3499,4.3514,4.3507,4.3539,4.3881,0.0,0.0,0.0,0.0,0.0,0.0,0.0,0.0,0.0,0.0,0.0,0.0,0.0,0.0,0.0,0.0,0.0,0.0,0.0,0.0,0.0,0.0,0.0,0.0,0.0,0.0,0.0,3.4815,3.4347,0.0,0.0,0.0,0.0,0.0,0.0,0.0,0.0,0.0,0.0,0.0,3.759,3.819,0.0,0.0,0.0,0.0,0.0,0.0,0.0,0.0,0.0,0.0,0.0,0.0,4.1573,4.2132,4.217,4.2187,4.222,4.2191,4.2187,4.2243,4.2191,4.1918,4.1393,0.0,0.0,0.0,0.0,0.0,0.0,0.0,0.0,0.0,0.0,0.0,0.0,0.0,0.0,0.0,0.0,0.0,0.0,0.0,0.0,0.0,0.0,0.0,0.0,0.0,3.7753,0.0,0.0,0.0,0.0,0.0,0.0,0.0,0.0,0.0,0.0,0.0,4.2188,4.3054,4.3158,4.3263,4.356,4.3617,4.3621,0.0,0.0,0.0,0.0,0.0,0.0,0.0,0.0,0.0,0.0,0.0,0.0,0.0,0.0,4.5376,4.541,4.5429,4.5446,4.5426,0.0,0.0,0.0,0.0,0.0,0.0,0.0,0.0,0.0,0.0,0.0,0.0,0.0,0.0,3.5634,0.0,3.5168,0.0,0.0,0.0,0.0,0.0,0.0,0.0,0.0,3.6474,3.7107,3.8269,3.8828,3.9098,0.0,3.9937,4.015,0.0,0.0,0.0,0.0,0.0,0.0,0.0,0.0,4.225,4.28,4.2871,4.2908,4.2963,4.2963,4.3009,4.3056,4.3047,4.2783,4.2273,4.1743,4.1439,0.0,0.0,0.0,0.0,0.0,0.0,0.0,0.0,0.0,0.0,0.0,0.0,0.0,0.0,0.0,0.0,0.0,0.0,0.0,0.0,0.0,0.0,0.0,3.8877,0.0,0.0,0.0,0.0,0.0,0.0,0.0,0.0,0.0,4.2665,4.2707,4.305,4.3913,4.4016,4.4118,4.4391,0.0,0.0,0.0,0.0,0.0,0.0,0.0,4.5276,4.5282,4.5768,4.6144,4.6162,4.6164,4.6168,4.6205,0.0,0.0,4.6257,4.6275,4.6269,4.6269,4.6269,4.627,4.6269,4.6269,4.6093,0.0,0.0,0.0,0.0,0.0,0.0,0.0,0.0,3.673,3.6744,0.0,3.6733,0.0,0.0,0.0,0.0,3.5669,3.4831,0.0,0.0,3.6907,3.7835,3.9582,3.9604,3.9706,3.9951,4.063,4.0998,4.0991,4.0371,0.0,0.0,0.0,0.0,0.0,0.0,4.2517,4.2604,4.2741,4.2778,4.2802,4.2919,4.3018,4.3083,4.3116,4.3122,4.3107,4.3054,4.3062,4.3058,4.2273,0.0,0.0,0.0,0.0,0.0,0.0,0.0,0.0,0.0,0.0,0.0,0.0,0.0,0.0,0.0,0.0,0.0,0.0,0.0,0.0,3.9156,0.0,0.0,0.0,0.0,0.0,0.0,0.0,0.0,0.0,0.0,4.3605,4.3551,4.3879,4.4775,0.0,0.0,0.0,0.0,4.601,4.6035,4.6039,4.5993,4.6054,4.6039,4.5985,4.5982,0.0,0.0,4.6136,4.6164,4.6259,4.627,4.6341,4.6282,4.6313,4.6263,4.6207,4.6207,4.6207,4.6206,4.6245,4.6324,4.6305,3.9108,0.0,0.0,0.0,0.0,3.8352,3.8059,3.7559,3.7559,3.7238,3.6725,3.6725,0.0,0.0,0.0,0.0,0.0,0.0,3.6665,3.7685,3.7728,3.8371,3.9483,3.9464,3.9802,4.0396,4.0608,4.104,4.1611,4.1443,4.1569,4.1946,0.0,0.0,0.0,0.0,4.3446,4.4025,4.4204,4.425,4.4207,4.4285,4.4332,4.4349,4.3871,4.3594,4.3599,4.3149,4.2883,4.2889,4.2791,0.0,0.0,0.0,0.0,0.0,0.0,0.0,0.0,0.0,0.0,0.0,0.0,0.0,0.0,0.0,0.0,0.0,0.0,0.0,4.0031,4.0862,4.1153,0.0,0.0,0.0,0.0,0.0,0.0,0.0,0.0,0.0,4.5945,4.5135,4.4964,0.0,0.0,4.598,4.681,4.6385,4.6002,4.6029,4.6061,0.0,4.6032,4.6061,4.6042,4.6004,4.6502,4.6937,4.696,4.7471,4.7879,4.784,4.7852,4.7844,4.778,4.6913,4.6266,4.6213,4.6213,4.6408,4.6911,4.7065,4.7239,4.0193,3.9329,3.9559,3.9754,3.9919,3.9952,3.9532,3.8811,3.8811,3.8352,3.759,3.7598,3.761,3.7553,3.7276,0.0,0.0,0.0,3.721,3.7993,3.8013,3.8667,3.9821,3.983,4.022,4.1043,4.1332,4.1756,4.2247,4.2637,4.2903,4.3028,0.0,0.0,4.3862,4.3841,4.4093,4.4591,4.4745,4.4783,4.4714,4.4852,4.4926,4.4931,4.4526,4.4311,4.4311,4.3932,4.3716,4.3704,4.3479,4.3372,0.0,0.0,0.0,0.0,0.0,0.0,0.0,0.0,0.0,0.0,0.0,3.9189,3.9185,0.0,0.0,0.0,4.0346,4.0849,4.1719,4.2278,0.0,0.0,0.0,0.0,0.0,0.0,0.0,4.5073,4.5144,4.5683,4.6985,4.636,4.6238,4.7605,4.7339,4.7184,4.7705,0.0,4.6996,4.7023,4.7023,4.7031,4.7029,4.7081,4.7086,4.7031,4.7453,4.78,4.7839,4.8269,4.8549,4.8517,4.8517,4.8534,4.8506,4.7731,4.7098,4.7108,4.7106,4.7281,4.7765,4.7823,4.8018,4.1166,4.0531,4.0863,4.1107,4.1248,4.1246,4.0823,4.0137,4.0119,3.9638,3.8859,3.8899,3.8906,3.8833,3.8163,0.0,3.7863,3.7178,3.7375,3.8153,3.8111,3.8995,4.0627,4.0533,4.0932,4.1808,4.2482,4.2879,4.3062,4.3882,4.4322,4.4374,4.3851,4.3905,4.4536,4.4566,4.4597,4.466,4.4724,4.4708,4.4584,4.4738,4.4889,4.4944,4.4997,4.5026,4.5057,4.5068,4.5061,4.5042,4.4325,4.389,4.3893,0.0,0.0,0.0,0.0,0.0,0.0,0.0,0.0,0.0,0.0,0.0,0.0,0.0,0.0,0.0,4.1693,0.0,4.3178,4.3313,0.0,0.0,0.0,4.4548,4.456,4.5386,4.5964,4.5974,0.0,0.0,4.7256,4.7381,4.7703,4.8563,4.8564,4.8512,4.8587,4.8509,4.8522,4.8454,4.849,4.8466,4.8416,4.8544,4.8683,4.8796,4.8852,4.8988,4.9027,4.9146,4.9032,4.9129,4.8998,4.9098,4.8975,4.9068,4.8903,4.8994,4.8661,4.8483,4.859,4.8706,4.8826,4.3565,4.3699,4.3056,4.195,4.0632,4.0655,4.0269,3.9619,3.9601,3.9104,3.8291,3.8308,3.8412,3.8577,3.8409,3.8449,3.8618,3.8455,3.882,3.9582,3.9586,4.0178,4.1275,4.1256,4.1705,4.2504,4.2712,4.3486,4.4738,4.5003,4.5452,4.6066,4.5952,4.5653,4.52,4.512,4.5424,4.6012,4.5506,4.4935,4.4311,4.4344,4.438,4.4401,4.4473,4.4505,4.456,4.4706,4.4815,4.4864,4.4813,4.4785,4.4796,4.4644,0.0,0.0,0.0,0.0,0.0,0.0,0.0,0.0,0.0,4.2313,4.2313,0.0,4.2483,0.0,4.3092,4.34,4.2968,4.3515,0.0,0.0,4.3737,4.4278,4.4256,4.562,4.656,4.6515,4.7133,4.7906,4.8763,4.887,4.9178,4.9962,4.9138,4.8659,4.9214,4.8758,4.8382,4.8452,4.8411,4.836,4.8698,4.9185,4.9843,5.0484,5.1063,5.1494,5.1494,5.206,5.2469,5.2408,5.244,5.2456,5.2313,5.2412,5.2341,5.2216,5.0343,4.8713,4.9336,4.9973,5.0593,4.4192,4.44,4.3871,4.2797,4.1495,4.1484,4.1044,4.0338,4.032,3.9814,3.8985,3.8651,3.841,3.8214,3.8249,3.8514,3.8998,3.9174,3.9685,4.0457,4.0585,4.1086,4.1938,4.1938,4.2598,4.3775,4.3775,4.4466,4.5694,4.5768,4.5997,4.6465,4.6492,4.6436,4.6362,4.6073,4.6142,4.6571,4.5815,4.5194,4.4785,4.4401,4.4233,4.4252,4.4278,4.4322,4.434,4.4454,4.4544,4.4566,4.4705,4.4757,4.4789,4.487,4.4925,0.0,0.0,0.0,0.0,0.0,0.0,0.0,0.0,0.0,0.0,0.0,4.3077,4.3321,4.3785,4.4058,4.3929,4.4384,4.4494,4.4001,4.4743,4.5256,4.5223,4.646,4.7266,4.7237,4.7698,4.8356,4.9216,4.9356,4.9659,5.0471,4.9894,4.9538,4.9903,4.962,4.9348,4.9389,4.935,4.953,5.0098,5.0966,5.17,5.2185,5.2631,5.2923,5.2945,5.3333,5.3627,5.359,5.3605,5.3647,5.3581,5.3549,5.3545,5.3302,5.2063,5.1047,5.1357,5.1803,5.2287,4.3939,4.4044,4.3939,4.3611,4.3166,4.2941,4.2305,4.1397,4.1379,4.0854,3.9959,3.9325,3.8699,3.814,3.814,3.8527,3.9247,3.9595,4.0185,4.0969,4.1213,4.1758,4.2537,4.2537,4.3336,4.4752,4.488,4.5386,4.6162,4.6299,4.64,4.6511,4.6492,4.6914,4.7667,4.72,4.6885,4.6792,4.6065,4.5663,4.5603,4.4784,4.4419,4.4554,4.4375,4.4326,4.4434,4.4334,4.4285,4.4318,4.4318,4.4329,4.4383,4.4539,4.4667,0.0,4.4907,0.0,0.0,0.0,0.0,0.0,0.0,0.0,0.0,4.3018,4.3349,4.4071,4.4148,4.4474,4.5159,4.5378,4.5485,4.5504,4.6212,4.671,4.6729,4.7475,4.8017,4.8017,4.8099,4.8527,4.9308,4.9414,4.9717,5.0392,5.0459,5.0383,5.0508,5.0475,5.0476,5.0664,5.0783,5.1055,5.2009,5.3007,5.3685,5.3831,5.3951,5.3916,5.3989,5.3993,5.3955,5.3902,5.4018,5.4002,5.3851,5.389,5.3883,5.3967,5.3808,5.363,5.3413,5.3467,5.3656,4.4273,4.4799,4.4167,4.4197,4.4618,4.3954,4.2566,4.0776,4.0776,4.0272,3.947,3.9312,3.9287,3.9363,3.9355,3.9551,3.9921,3.9994,4.0482,4.1312,4.1377,4.1895,4.2786,4.2823,4.3078,4.356,4.4352,4.5175,4.5974,4.678,4.7516,4.8144,4.8125,4.8236,4.8402,0.0,0.0,0.0,4.7201,4.6854,4.6158,4.5454,4.5411,4.6004,4.4758,0.0,4.512,4.455,4.4244,4.43,4.4318,0.0,0.0,0.0,0.0,0.0,0.0,0.0,0.0,0.0,0.0,0.0,4.4271,4.4335,4.4323,4.4342,4.4459,4.4709,4.4641,4.465,4.4802,4.5514,4.5949,4.5987,4.672,4.7263,4.7282,4.8073,4.8636,4.8636,4.9231,4.9743,4.9942,4.9983,5.0015,5.0302,5.0236,5.02,5.0263,5.0456,5.0513,5.0514,5.1202,5.1977,5.2809,5.3735,5.4617,5.5273,5.5549,5.5535,5.5579,5.5633,5.5641,5.554,5.5665,5.5637,5.5571,5.5657,5.5548,5.559,5.5582,5.5168,5.3839,5.4078,5.4542,4.4441,4.4466,4.4074,4.3939,0.0,4.3921,4.306,4.167,4.1615,4.0922,3.9788,3.9741,3.9592,3.9397,3.9335,3.9639,4.0197,4.034,4.0877,4.1743,4.192,4.2262,4.2757,4.2747,4.3022,4.3517,4.3993,4.4678,4.5479,4.6522,4.7268,4.7653,4.8189,4.8486,4.855,4.855,4.8357,4.7987,4.768,4.7317,4.6935,4.6148,4.5986,4.6457,4.5636,0.0,0.0,0.0,0.0,0.0,0.0,0.0,0.0,4.5427,0.0,4.548,4.5544,4.5585,4.5529,4.5699,4.5756,4.5711,4.5778,4.5511,4.4762,4.4705,4.4889,4.5319,4.5362,4.5544,4.5914,4.6415,4.6745,4.6783,4.7516,4.8047,4.8123,4.882,4.9332,4.9358,4.9719,5.0037,5.0108,5.0063,5.0279,5.0698,5.0755,5.0862,5.1211,5.1109,5.1034,5.149,5.2387,5.3185,5.3659,5.4486,5.5239,5.5822,5.5941,5.5981,5.6082,5.6117,5.609,5.6069,5.6082,5.6086,5.6054,5.6082,5.609,5.605,5.6042,5.5844,5.4894,5.5099,5.5528,4.4404,4.4026,4.3886,4.3641,4.3366,4.3845,4.3682,4.3098,4.2894,0.0,0.0,4.0789,4.0446,3.9944,3.9818,4.0206,4.0911,4.1025,4.1488,4.2214,4.2361,4.245,4.2442,4.247,4.2831,4.3481,4.3665,4.4099,4.4769,4.5868,4.6398,4.6483,4.7284,4.776,4.7893,4.8039,4.8171,4.8246,4.7822,4.7663,4.7734,4.6869,4.657,4.6896,4.6505,4.6421,4.6698,4.6576,4.6513,4.6513,4.6513,4.6527,4.6573,4.6581,4.6587,4.6658,4.6718,4.6756,4.6749,4.6877,4.6948,4.696,4.6956,4.644,4.5168,4.5099,4.5362,4.5958,4.617,4.6493,4.7099,4.7416,4.7572,4.7572,4.8342,4.8879,4.8917,4.9428,4.9833,4.9885,4.9866,4.9918,4.9979,4.9998,5.0334,5.1134,5.1306,5.1755,5.2459,5.2098,5.1821,5.2463,5.3257,5.4083,5.4302,5.4935,5.5602,5.5726,5.5771,5.5827,5.5885,5.5913,5.5922,5.5964,5.5973,5.5962,5.6003,5.6012,5.6008,5.6008,5.6008,5.6066,5.6201,5.624,5.6452,4.4053,4.453,4.3838,4.4274,4.5336,4.4821,4.4458,4.422,4.3754,4.3418,4.3226,4.3202,4.3191,4.3231,4.3191,4.3272,4.3354,4.2768,4.258,4.2655,4.2042,4.1801,4.1909,4.192,4.2034,4.2307,4.3123,4.3592,4.3813,4.4759,4.5225,4.5253,4.5384,4.5564,4.5635,4.625,4.6755,4.706,4.7885,4.8347,4.8366,4.7628,4.7643,4.8378,4.7054,4.6699,4.7489,4.6884,4.6513,4.6513,4.6513,4.6502,4.651,4.6537,4.6519,4.6535,4.6597,4.6605,4.6559,4.6677,4.6744,4.6752,4.6787,4.6769,4.6688,4.6684,4.6733,4.6838,4.6868,4.6898,4.7067,4.7756,4.819,4.8246,4.8994,4.9558,4.9528,4.9648,4.9764,4.9795,4.9814,4.9876,4.994,4.9952,5.0287,5.1074,5.1592,5.1878,5.3037,5.2845,5.2458,5.2657,5.3316,5.3805,5.4121,5.4635,5.5205,5.5364,5.5408,5.548,5.5588,5.5624,5.5668,5.5802,5.5822,5.5852,5.5949,5.6008,5.6042,5.6061,5.6104,5.6278,5.6936,5.7144,5.7245,4.4029,4.3999,4.3651,4.3894,4.4573,4.4637,4.4627,4.4527,4.4667,4.4272,4.3601,4.3463,4.3541,4.3662,4.356,4.3584,4.3657,4.2905,4.2672,4.2734,4.1912,4.1805,4.2303,4.2259,4.2503,4.3038,4.3485,4.3523,4.3255,4.4207,4.4732,4.4797,4.5738,4.6276,4.6326,4.6668,4.6923,4.7081,4.7839,4.8323,4.8485,4.8098,4.8136,4.8651,4.7866,4.7709,4.8167,4.7904,4.7745,4.7745,4.7787,4.7794,4.7794,4.7813,4.7813,4.7794,4.7897,4.794,4.7907,4.8004,4.8047,4.8058,4.8098,4.8137,4.8187,4.7466,4.7199,4.7612,4.7687,4.7897,4.8344,4.8806,4.9057,4.9076,4.947,4.9692,4.9718,4.9718,4.9726,4.9754,4.9743,4.9771,4.9841,4.9836,5.0399,5.159,5.2499,5.3492,5.4219,5.404,5.3817,5.3926,5.4242,5.4434,5.454,5.4808,5.5136,5.5275,5.5294,5.5358,5.5494,5.5517,5.5552,5.5626,5.5635,5.57,5.5847,5.5895,5.6101,5.6656,5.6704,5.7052,5.7768,5.8352,5.87,4.4407,4.3918,4.3756,4.3687,4.3768,4.452,4.48,4.4775,4.5291,4.4957,4.4034,4.3803,4.384,4.3979,4.3853,4.3878,4.3887,4.3059,4.2748,4.2841,4.1851,4.1845,4.2636,4.2631,4.3022,4.3787,4.3875,4.3588,4.3219,4.3949,4.4361,4.4507,4.5827,4.6561,4.6601,4.6762,4.6885,4.6973,4.7491,4.7962,4.8333,4.8296,4.8373,4.856,4.8513,4.8513,4.8596,4.8742,4.8796,4.8804,4.8839,4.8883,4.8881,4.8891,4.8891,4.8909,4.8988,4.9049,4.9068,4.9106,4.9129,4.9129,4.9164,4.9162,4.9077,4.8161,4.7755,4.8341,4.8499,4.8807,4.9345,4.9585,4.9641,4.966,4.9641,4.9653,4.966,4.966,4.9675,4.9663,4.9678,4.9697,4.9699,4.9757,5.0475,5.2101,5.3807,5.4814,5.4894,5.4901,5.4931,5.4949,5.4971,5.4947,5.5038,5.5045,5.5106,5.5196,5.5196,5.5248,5.5314,5.5358,5.5382,5.5401,5.5486,5.5585,5.574,5.5832,5.6122,5.6692,5.6787,5.7245,5.8318,5.9155,5.9774,4.5268,4.5126,4.4509,4.4216,4.428,4.5001,4.5299,4.5268,4.5389,4.542,4.5325,4.5386,4.5411,4.5574,4.5513,4.5461,4.536,4.4068,4.3367,4.3217,4.1899,4.1667,4.2451,4.2568,4.2993,4.3716,4.3915,4.3957,4.3816,4.3945,4.3991,4.3945,4.4138,4.4406,4.4528,4.5187,4.5668,4.5967,4.6684,4.7334,4.7826,4.8142,4.8372,4.8494,4.8503,4.8541,4.8587,4.8751,4.8796,4.8796,4.8796,4.884,4.8883,4.883,4.884,4.89,4.8917,4.8917,4.8926,4.8926,4.8943,4.8935,4.903,4.9091,4.9118,4.9034,4.9038,4.9131,4.9174,4.9259,4.9471,4.9513,4.9528,4.9536,4.9528,4.9513,4.9521,4.9513,4.9544,4.9608,4.9615,4.9638,4.967,4.9856,5.0596,5.2288,5.383,5.4852,5.4886,5.4901,5.4901,5.4909,5.4909,5.4916,5.4938,5.4923,5.496,5.4949,5.4953,5.4997,5.5021,5.5021,5.5007,5.5203,5.5454,5.5626,5.5758,5.5851,5.6124,5.6743,5.6853,5.6859,5.8232,5.9326,5.9891,4.5673,4.6048,4.5285,4.4682,4.4419,4.5083,4.5152,4.4785,4.5207,4.5423,4.5476,4.5489,4.555,4.5667,4.5589,4.5377,4.4959,4.3875,4.3178,4.2781,4.1661,4.1818,4.2967,4.3131,4.3813,4.5009,4.5201,4.5033,4.4676,4.4624,4.4624,4.4676,4.5033,4.5285,4.5356,4.5667,4.591,4.6047,4.6601,4.6985,4.7225,4.755,4.7832,4.8053,4.8092,4.8085,4.8143,4.8325,4.8353,4.8143,4.8402,4.8569,4.8605,4.8759,4.8884,4.8881,4.889,4.889,4.889,4.889,4.889,4.889,4.8962,4.8979,4.8979,4.9022,4.9073,4.9156,4.923,4.9276,4.9348,4.9374,4.9417,4.9482,4.9509,4.9509,4.9509,4.9509,4.9505,4.9544,4.9544,4.9551,4.9736,5.0557,5.1694,5.2989,5.4201,5.4845,5.4894,5.4901,5.4901,5.4901,5.4901,5.4901,5.4901,5.4901,5.4901,5.4901,5.4901,5.4901,5.4901,5.4901,5.4946,5.5021,5.5521,5.5904,5.6116,5.6821,5.7318,5.7652,5.866,5.9215,5.9896,6.0277,6.0509,4.6065,4.6445,4.5738,4.51,4.466,4.5169,4.51,4.4682,4.5186,4.5414,4.5414,4.5414,4.5463,4.5528,4.545,4.5044,4.4404,4.3625,4.2918,4.2286,4.1636,4.2081,4.3345,4.3748,4.4545,4.5722,4.5975,4.5812,4.5376,4.5353,4.5348,4.5477,4.5933,4.6202,4.6202,4.6202,4.6202,4.6221,4.65,4.6625,4.6661,4.6882,4.7207,4.7616,4.7658,4.77,4.7803,4.8012,4.807,4.7866,4.8163,4.8354,4.8374,4.8596,4.8732,4.8812,4.8883,4.8891,4.8892,4.8891,4.889,4.889,4.889,4.889,4.889,4.889,4.8935,4.9013,4.9089,4.9154,4.9268,4.9498,4.9613,4.9488,4.9624,4.9753,4.9546,4.9509,4.9509,4.9509,4.9516,4.9626,5.0037,5.1171,5.2466,5.3474,5.4348,5.4898,5.4894,5.4901,5.4901,5.4901,5.4901,5.4901,5.4901,5.4901,5.4901,5.4901,5.4901,5.4901,5.4901,5.4901,5.5166,5.5442,5.5928,5.6396,5.6742,5.7564,5.8173,5.8992,5.9729,6.0266,6.0173,6.0524,6.0722,4.6565,4.6462,4.5725,4.538,4.5345,4.538,4.538,4.5276,4.538,4.5397,4.5384,4.5397,4.5397,4.541,4.541,4.501,4.4272,4.3582,4.2852,4.2156,4.2011,4.2425,4.3249,4.4053,4.4861,4.5602,4.5795,4.5862,4.5893,4.594,4.602,4.6119,4.6154,4.6202,4.6202,4.6202,4.6202,4.6214,4.6246,4.6263,4.6246,4.6288,4.6637,4.7214,4.7313,4.7464,4.7741,4.7913,4.8101,4.8409,4.8247,4.8228,4.8305,4.8285,4.8391,4.8596,4.8794,4.8865,4.8831,4.8856,4.8881,4.889,4.889,4.889,4.889,4.889,4.889,4.8917,4.8935,4.9012,4.9245,4.9813,5.0038,4.9575,5.0126,5.0203,4.9621,4.9621,4.9509,4.9565,4.9704,5.0149,5.0832,5.1548,5.2628,5.3596,5.4379,5.4837,5.4879,5.4901,5.4901,5.4901,5.4901,5.4901,5.4901,5.4901,5.4901,5.4901,5.4901,5.4901,5.4901,5.4996,5.5394,5.5849,5.6256,5.6761,5.7346,5.7841,5.8246,5.8725,5.891,5.9287,6.0087,5.9848,6.0104,4.6093,4.5599,4.5869,4.5704,4.5291,4.5274,4.5261,4.5261,4.518,4.5194,4.5261,4.5274,4.5331,4.5414,4.5414,4.501,4.4328,4.4018,4.35,4.2827,4.2775,4.3172,4.3892,4.433,4.4887,4.5511,4.5749,4.5821,4.5859,4.5871,4.5897,4.5947,4.6023,4.609,4.6102,4.6147,4.6202,4.6202,4.6202,4.6202,4.6232,4.6202,4.6343,4.659,4.6847,4.7041,4.7158,4.7345,4.7382,4.7313,4.7697,4.7953,4.7995,4.8296,4.8476,4.8587,4.866,4.8723,4.8796,4.8831,4.8848,4.89,4.889,4.889,4.889,4.889,4.889,4.889,4.889,4.8969,4.9154,4.9515,4.9837,5.0185,5.0477,5.0587,5.0353,5.0267,5.0267,5.035,5.0739,5.1544,5.2205,5.281,5.3377,5.4284,5.4701,5.4845,5.4886,5.4901,5.4901,5.4901,5.4901,5.4901,5.4901,5.4901,5.4901,5.4901,5.4901,5.4901,5.4901,5.4996,5.5337,5.6171,5.6629,5.738,5.8106,5.8794,5.9074,5.9339,5.9452,5.9401,6.0016,6.0,6.0248,4.5908,4.5467,4.5751,4.5586,4.5157,4.5154,4.5123,4.5127,4.5046,4.5059,4.5127,4.514,4.5194,4.5247,4.5278,4.5016,4.4526,4.4363,4.3914,4.3258,4.3448,4.3828,4.4276,4.4647,4.5031,4.5485,4.5632,4.5693,4.5718,4.5731,4.5774,4.5825,4.5939,4.5985,4.601,4.6135,4.6202,4.6232,4.6454,4.6595,4.6595,4.6577,4.6595,4.6597,4.66,4.6678,4.6795,4.6967,4.7023,4.6967,4.7382,4.7669,4.7819,4.8142,4.8383,4.8486,4.8615,4.8687,4.8732,4.8804,4.8848,4.8891,4.889,4.889,4.889,4.889,4.889,4.889,4.889,4.8962,4.9093,4.9166,4.9495,5.0167,5.0515,5.0568,5.0361,5.0305,5.0418,5.0707,5.1378,5.2343,5.3229,5.3392,5.3898,5.4773,5.4901,5.4901,5.4901,5.4901,5.4901,5.4901,5.4901,5.4901,5.4901,5.4901,5.492,5.4939,5.4901,5.4901,5.5072,5.5148,5.5583,5.6425,5.7278,5.8109,5.8892,5.9654,6.0043,6.0314,6.0164,5.9928,6.0229,6.0339,6.0482,4.6108,4.5927,4.532,4.5094,4.5005,4.5009,4.5009,4.4991,4.4995,4.4981,4.4991,4.4991,4.5005,4.5019,4.5063,4.5002,4.4881,4.4565,4.4061,4.3505,4.4022,4.4315,4.4436,4.504,4.532,4.5441,4.541,4.5472,4.5576,4.5607,4.5671,4.5795,4.5927,4.5972,4.5985,4.614,4.6202,4.6354,4.6906,4.7309,4.738,4.7309,4.7274,4.7239,4.665,4.6416,4.6778,4.6935,4.7214,4.7488,4.7474,4.749,4.7838,4.7881,4.801,4.8461,4.867,4.8743,4.8771,4.8962,4.9136,4.9152,4.9021,4.9161,4.9217,4.9086,4.9039,4.9049,4.8946,4.8943,4.9074,4.9158,4.9294,4.9439,5.0239,5.0399,4.9884,4.9621,4.9892,5.082,5.1719,5.2387,5.3117,5.3572,5.3993,5.4655,5.4901,5.4901,5.4901,5.4901,5.4901,5.4901,5.4901,5.4901,5.4901,5.4901,5.4939,5.4958,5.492,5.4939,5.5318,5.5527,5.6114,5.6929,5.8055,5.8878,5.9262,5.9915,5.9934,6.0106,6.0136,6.0188,6.0203,6.0268,6.0456,4.6748,4.5846,4.5688,4.5304,4.4892,4.4858,4.4858,4.4858,4.4779,4.4762,4.4845,4.4858,4.4913,4.4995,4.5022,4.5009,4.5002,4.4919,4.4775,4.4634,4.4888,4.5031,4.5083,4.5294,4.5414,4.5414,4.5414,4.5423,4.5463,4.5476,4.5524,4.5654,4.5795,4.5909,4.5998,4.614,4.6202,4.6284,4.6993,4.738,4.7397,4.7397,4.7397,4.7309,4.663,4.6288,4.6397,4.7037,4.7706,4.827,4.8562,4.8766,4.8814,4.8186,4.8351,4.9383,4.9228,4.9473,5.0097,5.0211,5.0268,5.0389,5.0435,5.0481,5.0416,5.0025,4.9763,4.9643,4.9262,4.8962,4.9066,4.91,4.9397,5.0116,5.0494,5.0587,5.0399,5.0748,5.155,5.2379,5.3185,5.3868,5.4214,5.4317,5.4432,5.4769,5.4894,5.4901,5.4901,5.4901,5.4901,5.4901,5.4901,5.4901,5.4901,5.5034,5.5204,5.5356,5.5375,5.547,5.5773,5.6247,5.6834,5.7592,5.8699,5.9371,5.9774,5.9942,5.995,5.9942,6.0013,6.0021,6.0005,6.0129,6.0347,4.7109,4.6498,4.6024,4.5575,4.5114,4.4876,4.4723,4.4723,4.464,4.4654,4.4706,4.4723,4.4779,4.4831,4.4845,4.4858,4.4855,4.4991,4.5046,4.5083,4.5318,4.5397,4.5414,4.5414,4.5414,4.5414,4.5414,4.5414,4.5414,4.5432,4.5528,4.5619,4.5787,4.5909,4.5993,4.6122,4.6202,4.6319,4.6993,4.7397,4.7397,4.7397,4.7397,4.7292,4.6612,4.6389,4.666,4.7226,4.7759,4.8269,4.8624,4.9014,4.9321,4.8339,4.828,4.9499,4.9648,4.9685,5.056,5.0775,5.1013,5.1137,5.1185,5.1213,5.1121,5.0609,5.0144,5.0023,4.9373,4.8926,4.8996,4.9084,4.9525,5.0372,5.0234,5.0359,5.0665,5.1405,5.2228,5.3048,5.3891,5.4436,5.4638,5.4744,5.4783,5.4852,5.4898,5.4901,5.4901,5.4901,5.4901,5.4901,5.4901,5.4901,5.4901,5.5129,5.5451,5.5735,5.5981,5.6209,5.6493,5.7137,5.7771,5.8472,5.9439,5.9571,5.9918,5.991,5.9929,5.9912,5.9912,5.9918,5.9958,6.0041,6.0232,4.7327,4.7684,4.6363,4.5754,4.5565,4.4919,4.4612,4.4598,4.4615,4.4615,4.4598,4.4612,4.4612,4.4598,4.464,4.464,4.4626,4.4762,4.4845,4.494,4.5171,4.5357,4.5384,4.5414,4.5414,4.5414,4.5414,4.5414,4.5414,4.5502,4.5576,4.5632,4.5825,4.5972,4.5985,4.611,4.6177,4.6295,4.6999,4.738,4.7397,4.7397,4.7397,4.7362,4.6665,4.649,4.7011,4.7299,4.7543,4.7756,4.816,4.8661,4.9019,4.8134,4.8218,4.9743,4.9604,4.9958,5.0436,5.1084,5.1372,5.1506,5.1535,5.1315,5.1436,5.0823,5.0238,5.0089,4.9355,4.889,4.8926,4.8996,4.9457,5.0087,5.0117,5.0228,5.0815,5.163,5.2464,5.3243,5.3929,5.4432,5.4522,5.4614,5.4705,5.4783,5.4852,5.4883,5.4879,5.4879,5.4894,5.4901,5.4901,5.5148,5.5223,5.5432,5.5868,5.6872,5.7024,5.7137,5.7316,5.7903,5.851,5.923,5.9685,5.9837,5.9912,5.9912,5.9912,5.9912,5.9912,5.9912,5.995,6.0026,6.0106,4.8208,4.7802,4.6904,4.6208,4.5621,4.4905,4.4584,4.4584,4.4584,4.4584,4.4584,4.4584,4.4584,4.4584,4.4584,4.4584,4.4626,4.472,4.4789,4.4817,4.4978,4.5238,4.5371,4.5414,4.5414,4.5414,4.5414,4.5414,4.5414,4.545,4.5498,4.5589,4.5697,4.5787,4.5876,4.5985,4.6048,4.6165,4.6926,4.7362,4.7362,4.7345,4.7397,4.7309,4.6612,4.6319,4.6595,4.7099,4.802,4.9025,4.8708,4.9129,5.0077,4.913,4.9083,5.0399,5.0468,5.0723,5.1678,5.2065,5.2296,5.2629,5.2577,5.2555,5.2053,5.1352,5.0713,5.0136,4.9364,4.889,4.8909,4.9,4.9434,5.02,5.0812,5.1441,5.2206,5.2727,5.3178,5.3948,5.4259,5.4395,5.448,5.4538,5.4625,5.4705,5.4775,5.4829,5.4837,5.4883,5.4879,5.4894,5.4977,5.5337,5.5621,5.5811,5.6493,5.7858,5.8244,5.8226,5.8301,5.8491,5.9041,5.9628,5.9761,5.9893,5.9912,5.9912,5.9912,5.9912,5.9912,5.9921,5.9942,5.9994,6.0072,4.8124,4.7363,4.665,4.6092,4.5618,4.4905,4.4584,4.4584,4.4584,4.4584,4.4584,4.4584,4.4584,4.4584,4.4584,4.4584,4.4598,4.4665,4.4706,4.4751,4.4927,4.5113,4.5274,4.5371,4.5414,4.5414,4.5414,4.5414,4.541,4.5432,4.5511,4.5589,4.5658,4.5718,4.5808,4.5922,4.5985,4.6093,4.659,4.6893,4.6906,4.6893,4.6888,4.6823,4.6407,4.6202,4.6284,4.6665,4.7625,4.874,4.8923,4.923,5.0141,4.9469,4.9614,5.102,5.0766,5.0969,5.1886,5.2378,5.2732,5.298,5.3172,5.2935,5.2336,5.1619,5.0898,5.011,4.9365,4.8974,4.9039,4.9503,5.0328,5.1282,5.2152,5.2806,5.314,5.3105,5.3564,5.4127,5.4417,5.4426,5.4466,5.4499,5.4549,5.4625,5.4697,5.4736,5.476,5.4822,5.4913,5.497,5.5284,5.5746,5.6209,5.6455,5.705,5.8396,5.9022,5.9059,5.9078,5.9078,5.9382,5.9761,5.9856,5.9912,5.9912,5.9912,5.9912,5.9912,5.9912,5.9921,5.9934,5.9958,6.0026,4.7479,4.6735,4.6007,4.5737,4.5703,4.5026,4.4855,4.4855,4.4821,4.477,4.4753,4.4649,4.4584,4.4584,4.4584,4.4584,4.4584,4.4612,4.4699,4.4848,4.508,4.5347,4.563,4.5465,4.5432,4.5414,4.5414,4.5414,4.5423,4.5515,4.5567,4.5563,4.5667,4.5731,4.5744,4.5889,4.599,4.5985,4.6192,4.6354,4.6354,4.6354,4.6372,4.6337,4.6302,4.6202,4.6202,4.6337,4.6898,4.8197,4.8448,4.8927,4.9486,4.9227,4.9655,5.0638,5.0822,5.0975,5.1496,5.2261,5.2698,5.2893,5.3059,5.286,5.2075,5.1294,5.0537,4.9759,4.9247,4.9013,4.9309,5.0432,5.1471,5.2306,5.3311,5.3589,5.3311,5.3234,5.3612,5.425,5.44,5.4409,5.4434,5.4458,5.447,5.4516,5.4581,5.463,5.4689,5.4736,5.4942,5.5181,5.5636,5.6212,5.6702,5.7145,5.7903,5.8813,5.9382,5.9609,5.9609,5.9647,5.9761,5.9912,5.9912,5.9912,5.9912,5.9912,5.9912,5.9912,5.9912,5.9912,5.9921,5.9918,5.9974,4.7479,4.6733,4.6007,4.6041,4.638,4.5788,4.5788,4.6225,4.5686,4.5466,4.5348,4.4888,4.4668,4.4635,4.4733,4.4584,4.4651,4.4651,4.4871,4.5475,4.5755,4.6225,4.6408,4.5982,4.5483,4.55,4.5449,4.5449,4.5492,4.5626,4.5467,4.5532,4.571,4.5506,4.5615,4.5957,4.5863,4.5884,4.6108,4.6237,4.6202,4.6202,4.6202,4.6202,4.6202,4.6202,4.6202,4.6202,4.6372,4.677,4.7375,4.8243,4.9227,4.9512,4.9917,5.0572,5.1073,5.1372,5.1837,5.2237,5.2725,5.29,5.2496,5.1985,5.1238,5.0531,4.975,4.9104,4.8861,4.9174,4.9923,5.0794,5.1788,5.2661,5.3442,5.3935,5.3822,5.3919,5.4082,5.4258,5.4385,5.4409,5.4409,5.4426,5.4432,5.4432,5.4483,5.453,5.4616,5.4694,5.5071,5.5448,5.6264,5.6925,5.7554,5.7998,5.8586,5.9135,5.959,5.9893,5.9893,5.9912,5.9912,5.9912,5.9912,5.9912,5.9912,5.9912,5.9912,5.9912,5.9912,5.9912,5.9912,5.9912,5.9921,4.6955,4.6244,4.5872,4.594,4.6244,4.6227,4.643,4.6667,4.6397,4.621,4.6143,4.5768,4.5633,4.5633,4.5616,4.5497,4.5058,4.4753,4.5235,4.6016,4.6277,4.6746,4.7532,4.6997,4.6466,4.6483,4.65,4.6479,4.6496,4.6445,4.6565,4.6466,4.6448,4.6596,4.6493,4.6624,4.6652,4.6477,4.6557,4.6555,4.6272,4.6202,4.6202,4.6202,4.6202,4.6202,4.6202,4.6202,4.6202,4.6302,4.663,4.7362,4.8551,4.9306,4.9921,5.029,5.0885,5.1291,5.167,5.1754,5.1896,5.2346,5.1781,5.1087,5.0478,4.9883,4.9379,4.8892,4.9058,4.9741,5.0954,5.1435,5.2214,5.2957,5.3543,5.386,5.3935,5.4083,5.4245,5.4272,5.4324,5.4376,5.4383,5.44,5.4417,5.4434,5.4434,5.4493,5.4714,5.4885,5.54,5.5945,5.6873,5.7666,5.838,5.8889,5.9268,5.9571,5.9742,5.9893,5.9912,5.9912,5.9912,5.9912,5.9912,5.9912,5.9912,5.9912,5.9912,5.9912,5.9912,5.9912,5.9912,5.9912,5.9912,4.6295,4.5534,4.5534,4.5602,4.5805,4.6329,4.6633,4.6786,4.6667,4.643,4.658,4.6563,4.6107,4.6515,4.6462,4.6194,4.5669,4.5227,4.5605,4.6622,4.6772,4.7478,4.8277,4.8263,4.8048,4.8031,4.7634,4.7565,4.7548,4.7686,4.7393,4.76,4.7634,4.7445,4.761,4.7772,4.753,4.7164,4.7243,4.7151,4.6693,4.6525,4.6392,4.6202,4.6202,4.6202,4.6202,4.6202,4.6202,4.6202,4.6202,4.6577,4.7362,4.8586,4.964,4.9693,5.0427,5.0917,5.1132,5.103,5.0957,5.1253,5.0874,5.037,4.9814,4.9504,4.9193,4.9249,4.9509,5.0562,5.2059,5.2199,5.2682,5.3388,5.3695,5.3734,5.3803,5.3954,5.4101,5.421,5.4272,5.4333,5.4376,5.4383,5.44,5.4428,5.4428,5.4568,5.4854,5.5216,5.5789,5.6507,5.7439,5.8177,5.8899,5.9211,5.9674,5.9714,5.9844,5.988,5.9888,5.9904,5.9904,5.9912,5.9912,5.9912,5.9912,5.9912,5.9912,5.9912,5.9912,5.9912,5.9912,5.9912,5.9912,4.6022,4.477,4.477,4.5142,4.5686,4.5855,4.6278,4.6616,4.6261,4.5906,4.5906,4.5328,4.5667,4.5906,4.5923,4.5821,4.5821,4.5633,4.5971,4.6937,4.7427,4.8407,4.9042,4.9297,4.9413,4.922,4.8548,4.791,4.7858,4.7703,4.7962,4.7789,4.7841,4.7841,4.7934,4.7858,4.8013,4.7821,4.789,4.7814,4.7583,4.7225,4.6755,4.6392,4.633,4.6254,4.6202,4.6202,4.6202,4.6202,4.6202,4.6319,4.6858,4.8034,4.9012,4.9482,5.0064,5.0541,5.0778,5.0579,5.0562,5.062,5.0358,4.9958,4.9545,4.9151,4.9244,4.9696,5.026,5.1167,5.216,5.2399,5.2763,5.3387,5.3675,5.3659,5.37,5.3823,5.3926,5.4046,5.4174,5.4289,5.4333,5.4414,5.4533,5.4626,5.4709,5.5066,5.5515,5.5879,5.6355,5.714,5.8012,5.8694,5.935,5.953,5.9761,5.9681,5.9727,5.9807,5.9814,5.9872,5.9877,5.9844,5.9869,5.9912,5.9912,5.9912,5.9896,5.9888,5.9896,5.9912,5.9896,5.9888,5.9912,4.6735,4.5768,4.5751,4.5703,4.5771,4.6126,4.6447,4.6783,4.6805,4.6838,4.6855,4.6853,4.7039,4.7344,4.7411,4.7056,4.6397,4.6261,4.6481,4.7012,4.7799,4.8709,4.94,4.9723,4.9906,4.9775,4.9203,4.8824,4.8893,4.8927,4.8807,4.891,4.8893,4.8893,4.8907,4.9015,4.874,4.8588,4.8518,4.841,4.8151,4.7757,4.7326,4.6887,4.6658,4.6555,4.6237,4.6202,4.6202,4.6284,4.6612,4.677,4.7244,4.8047,4.8889,4.8818,4.9461,5.0166,5.049,5.0442,5.066,5.0982,5.0474,5.0201,5.0131,4.9976,4.9929,5.0639,5.1071,5.183,5.2708,5.2747,5.2825,5.2907,5.329,5.3406,5.3327,5.357,5.3767,5.3916,5.4019,5.4165,5.4289,5.4427,5.462,5.4796,5.4926,5.547,5.6071,5.6632,5.7053,5.7726,5.8513,5.898,5.9476,5.9604,5.9705,5.9634,5.9624,5.9697,5.974,5.978,5.9761,5.9727,5.9778,5.9853,5.9912,5.9912,5.9888,5.9882,5.9888,5.9896,5.9863,5.9863,5.9896,4.738,4.6583,4.658,4.6143,4.5669,4.6244,4.6532,4.6718,4.731,4.7549,4.7768,4.8156,4.8409,4.8682,4.8546,4.8054,4.6989,4.6904,4.6769,4.6965,4.7691,4.8554,4.9048,4.9538,4.974,4.9857,4.98,4.9964,4.9806,4.9789,4.9927,4.9806,4.9927,4.9996,4.989,4.9766,4.9582,4.94,4.9183,4.8889,4.8431,4.8246,4.7983,4.7396,4.7264,4.6905,4.6543,4.6277,4.6389,4.6612,4.7011,4.7445,4.7783,4.8784,4.8837,4.8082,4.8973,4.9751,5.0175,5.0161,5.0346,5.0798,5.0637,5.0595,5.0737,5.0758,5.1194,5.1848,5.2226,5.2428,5.2989,5.317,5.2957,5.2794,5.309,5.3401,5.3232,5.3374,5.3729,5.386,5.3926,5.4019,5.4165,5.4308,5.4502,5.4799,5.4966,5.5798,5.6455,5.7355,5.7898,5.8402,5.8964,5.93,5.9562,5.9562,5.9591,5.951,5.9536,5.9599,5.9634,5.9678,5.9642,5.9623,5.9691,5.9778,5.9836,5.9896,5.9872,5.9863,5.988,5.9872,5.9849,5.9855,5.9904,4.7092,4.5838,4.5855,4.5399,4.499,4.5585,4.5855,4.6007,4.6735,4.6921,4.7124,4.7189,4.7665,4.8073,4.8174,4.7971,4.7599,4.7175,4.687,4.6967,4.7662,4.8173,4.8454,4.9185,4.9585,4.9769,4.9752,4.9828,4.995,4.9996,4.9996,4.9996,4.9996,4.9996,4.9996,5.0008,4.9959,4.987,4.985,4.9527,4.9004,4.8893,4.856,4.8052,4.7544,4.7168,4.694,4.6608,4.6565,4.7151,4.7345,4.7796,4.8328,4.8508,4.8596,4.8644,4.9157,4.9845,5.0052,4.9954,4.9925,5.0448,5.0347,5.0272,5.0792,5.1357,5.1797,5.1958,5.2572,5.2965,5.3101,5.3196,5.3149,5.3121,5.3179,5.3427,5.3406,5.3392,5.3728,5.3813,5.386,5.3926,5.4028,5.4193,5.4364,5.4699,5.5146,5.6016,5.6887,5.7824,5.8434,5.8874,5.9107,5.9416,5.9519,5.9546,5.9501,5.942,5.9447,5.9511,5.9538,5.9554,5.9589,5.9588,5.964,5.9666,5.9746,5.978,5.9822,5.9839,5.983,5.9824,5.9818,5.9849,5.9907,4.7904,4.6906,4.6498,4.6143,4.5853,4.5771,4.594,4.643,4.7092,4.7413,4.753,4.7902,4.824,4.8445,4.8512,4.8293,4.7921,4.7532,4.7158,4.7005,4.7585,4.8063,4.8415,4.8988,4.9471,4.9757,4.9784,4.9813,4.9935,4.9996,4.9996,4.9996,4.9996,4.9996,4.9993,5.0063,5.0051,5.0005,4.9959,4.985,4.9651,4.951,4.9238,4.8615,4.8035,4.7601,4.7233,4.7081,4.6999,4.7568,4.8077,4.8832,4.9258,4.9592,4.9872,4.9908,5.0153,5.0246,4.9985,5.0153,5.0419,5.0749,5.1015,5.1482,5.177,5.2054,5.2353,5.2454,5.284,5.3074,5.3114,5.3164,5.2905,5.2896,5.3183,5.3137,5.3292,5.3639,5.3763,5.3783,5.3813,5.3879,5.3935,5.4092,5.4415,5.4926,5.5626,5.6636,5.7507,5.8398,5.8849,5.9158,5.9307,5.9437,5.9447,5.9438,5.9447,5.9373,5.9346,5.9383,5.942,5.9428,5.9473,5.9509,5.9544,5.9598,5.9634,5.9723,5.9799,5.978,5.9763,5.9757,5.9759,5.9858,5.9881,4.8665,4.8107,4.7394,4.6972,4.68,4.6397,4.6568,4.7124,4.7853,4.8174,4.831,4.8714,4.8951,4.9001,4.8918,4.8665,4.8208,4.8005,4.7447,4.7261,4.746,4.7853,4.8158,4.8647,4.9443,4.9877,4.9755,4.9813,4.9935,4.9996,4.9996,4.9996,4.9996,4.9996,5.0022,5.008,5.0063,5.0008,5.0051,5.0017,4.9956,4.9942,4.9689,4.9218,4.865,4.8052,4.7553,4.7538,4.7615,4.7941,4.8885,4.9605,5.0009,5.0382,5.0645,5.0662,5.0781,5.0606,5.0471,5.0625,5.1166,5.1498,5.1854,5.2109,5.2508,5.2732,5.2765,5.2736,5.29,5.2999,5.3039,5.3114,5.2994,5.2899,5.299,5.2835,5.2824,5.3358,5.3744,5.3774,5.3813,5.3813,5.3888,5.4,5.4427,5.5087,5.6058,5.7162,5.8071,5.8868,5.9074,5.929,5.9337,5.9401,5.9373,5.9355,5.9346,5.9346,5.9318,5.9299,5.9346,5.9364,5.9383,5.9428,5.9445,5.9482,5.9546,5.9671,5.9784,5.9721,5.9685,5.9669,5.9698,5.9846,6.0231,4.8984,4.8866,4.8124,4.7447,4.6904,4.7498,4.7752,4.787,4.8563,4.8849,4.8817,4.8969,4.9018,4.9018,4.9018,4.8951,4.8866,4.8208,4.7549,4.7295,4.7462,4.7606,4.7882,4.8532,4.9335,4.9592,4.9681,4.9813,4.995,4.9996,4.9996,4.9996,4.9996,4.9996,5.0011,5.0022,5.0051,5.0037,5.0109,5.0094,5.0022,4.9996,4.9924,4.9763,4.9238,4.8654,4.8091,4.8172,4.8211,4.8355,4.9328,5.0096,5.0553,5.0781,5.0891,5.0891,5.0891,5.0799,5.0773,5.0813,5.1021,5.1354,5.1735,5.2174,5.2506,5.2597,5.2665,5.2768,5.2857,5.2937,5.3009,5.3085,5.3017,5.307,5.3096,5.3116,5.3154,5.3356,5.3686,5.3774,5.3813,5.3813,5.3822,5.3926,5.4037,5.4633,5.6005,5.7136,5.8353,5.9131,5.9197,5.9309,5.929,5.9327,5.9327,5.9299,5.9327,5.9327,5.9299,5.929,5.9299,5.9327,5.9337,5.9346,5.9364,5.9401,5.9456,5.9601,5.9671,5.9661,5.9643,5.9684,6.0052,6.0428,6.0983,4.9018,4.8984,4.8697,4.8426,4.8139,4.7971,4.8157,4.8578,4.8883,4.9018,4.9018,4.9018,4.9018,4.9018,4.9018,4.9018,4.89,4.8225,4.7752,4.7633,4.7716,4.7836,4.8112,4.8611,4.9381,4.9698,4.9755,4.9799,4.9979,4.9996,4.9996,4.9996,4.9996,4.9996,4.9996,4.9993,5.0051,5.0094,5.0077,5.0037,5.0008,4.9996,4.9996,4.9942,4.9348,4.8723,4.83,4.8774,4.8732,4.8925,4.9785,5.043,5.0816,5.0873,5.0891,5.0891,5.0891,5.0891,5.0891,5.0918,5.1008,5.1259,5.1513,5.1827,5.2257,5.231,5.2427,5.2554,5.2705,5.2776,5.2883,5.2988,5.3056,5.3185,5.3248,5.3285,5.3398,5.3499,5.3617,5.3687,5.3765,5.3813,5.3822,5.3841,5.3944,5.4214,5.5679,5.7126,5.8362,5.9215,5.9262,5.929,5.9281,5.929,5.929,5.929,5.929,5.929,5.929,5.929,5.929,5.929,5.9318,5.929,5.929,5.9346,5.942,5.952,5.9564,5.9563,5.9667,5.98,6.03,6.1035,6.1684,4.9018,4.9018,4.9018,4.9018,4.8934,4.8445,4.8512,4.8934,4.9001,4.9018,4.9018,4.9018,4.9018,4.9018,4.9018,4.9018,4.89,4.8496,4.8157,4.8056,4.812,4.8207,4.8479,4.8905,4.9456,4.9786,4.9891,4.9906,4.9996,4.9996,4.9996,4.9996,4.9996,4.9996,4.9993,5.0051,5.0092,5.0092,5.0106,5.0022,5.0008,4.9996,4.9996,4.9976,4.9562,4.9115,4.892,4.9257,4.9409,4.9512,5.0013,5.075,5.0891,5.0891,5.0891,5.0891,5.0891,5.0891,5.0891,5.0918,5.1008,5.1272,5.1324,5.1607,5.1858,5.1993,5.2114,5.2352,5.2467,5.2608,5.275,5.2915,5.3063,5.3175,5.3124,5.317,5.3287,5.34,5.3509,5.3599,5.3678,5.3792,5.3997,5.4137,5.4761,5.5099,5.6294,5.7546,5.8489,5.9138,5.9215,5.9244,5.9281,5.9281,5.929,5.929,5.929,5.929,5.929,5.929,5.929,5.929,5.929,5.929,5.929,5.929,5.9365,5.9466,5.9494,5.9502,5.9841,6.0349,6.1347,6.2099,6.2485,4.9018,4.9018,4.9018,4.9018,4.9001,4.8984,4.8984,4.9018,4.9018,4.9018,4.9018,4.9018,4.9018,4.9018,4.9018,4.9018,4.9001,4.89,4.8612,4.8276,4.8529,4.8492,4.8595,4.8965,4.9486,4.9594,4.9772,4.995,4.9996,4.9996,4.9996,4.9996,4.9996,4.9996,5.0008,5.0117,5.0103,5.0037,5.0117,5.0077,5.0022,4.9996,4.9996,4.9959,4.993,4.9586,4.9329,4.9809,4.9907,4.9745,5.0346,5.0869,5.0891,5.0891,5.0891,5.0891,5.0891,5.0891,5.0891,5.0891,5.1039,5.1193,5.1207,5.1402,5.1632,5.1746,5.1833,5.209,5.2262,5.2495,5.2717,5.2883,5.2999,5.3103,5.3053,5.3074,5.3193,5.331,5.342,5.3499,5.3616,5.3769,5.4086,5.4533,5.5446,5.6214,5.7141,5.8011,5.8756,5.9021,5.911,5.9215,5.9244,5.9262,5.9281,5.929,5.929,5.929,5.929,5.929,5.929,5.929,5.929,5.929,5.9328,5.9347,5.9365,5.9393,5.9928,6.0548,6.0698,6.1253,6.2295,6.3065,6.333,4.9018,4.9018,4.9018,4.9018,4.9018,4.9018,4.9018,4.9018,4.9018,4.9018,4.9018,4.9018,4.9018,4.9018,4.9018,4.9018,4.9018,4.9001,4.8731,4.8714,4.8917,4.8926,4.8948,4.9133,4.9515,4.9681,4.9874,4.9964,4.9996,4.9964,4.9979,4.9996,4.9996,4.9996,5.0011,5.0051,5.0022,5.0025,5.0037,5.0037,5.0011,4.9996,4.9979,4.9993,5.008,4.9874,4.9475,5.0154,5.0227,4.9964,5.0553,5.0869,5.0891,5.0891,5.0891,5.0891,5.0891,5.0891,5.0891,5.0904,5.0931,5.1025,5.1074,5.1193,5.1402,5.1441,5.1594,5.1802,5.2024,5.2274,5.2495,5.2642,5.2794,5.2999,5.302,5.302,5.3098,5.3246,5.3359,5.34,5.3479,5.406,5.4472,5.5395,5.6327,5.6783,5.7573,5.8098,5.875,5.8902,5.9011,5.9157,5.9225,5.9253,5.9281,5.9281,5.93,5.929,5.929,5.929,5.929,5.929,5.929,5.929,5.9365,5.9422,5.991,6.0454,6.1252,6.1788,6.192,6.208,6.2812,6.3506,6.3957,4.9018,4.9018,4.9018,4.9018,4.9018,4.9018,4.9018,4.9018,4.9018,4.9018,4.9018,4.9018,4.9018,4.9018,4.9018,4.9018,4.9018,4.9018,4.9018,4.9018,4.9001,4.9014,4.9136,4.932,4.9441,4.9619,4.9757,4.9848,4.9982,4.9921,4.9935,4.9982,4.9996,4.9996,5.0011,5.0011,5.0011,5.0011,5.0008,4.9993,4.9996,4.9996,4.9996,5.0022,5.0068,5.0031,4.9959,5.0132,5.0457,5.0355,5.0535,5.0891,5.0891,5.0891,5.0891,5.0891,5.0891,5.0891,5.0891,5.0891,5.0918,5.0918,5.0891,5.0985,5.1127,5.1154,5.1384,5.1615,5.1797,5.2036,5.2268,5.2408,5.2529,5.2728,5.2817,5.2798,5.2915,5.3048,5.3254,5.3277,5.3517,5.4154,5.5061,5.6265,5.7322,5.7608,5.7924,5.8339,5.8727,5.8823,5.892,5.9031,5.9157,5.9158,5.9206,5.9253,5.9262,5.9281,5.929,5.929,5.929,5.929,5.929,5.9422,5.976,6.021,6.0942,6.1609,6.2229,6.2755,6.3102,6.329,6.3496,6.3825,6.4275,4.9018,4.9018,4.9018,4.9018,4.9018,4.9018,4.9018,4.9018,4.9018,4.9018,4.9018,4.9018,4.9018,4.9018,4.9018,4.9018,4.9018,4.9018,4.9018,4.9018,4.9018,4.9032,4.9063,4.9168,4.9335,4.9441,4.9562,4.9728,4.9952,4.9906,4.9906,4.9967,4.9996,4.9996,4.9996,4.9996,4.9996,4.9996,4.9996,4.9996,4.9996,4.9996,5.0025,5.0066,5.0143,5.0247,5.03,5.0491,5.0681,5.0758,5.0873,5.0891,5.0891,5.0891,5.0891,5.0891,5.0891,5.0891,5.0891,5.0891,5.0891,5.0891,5.0891,5.0904,5.0931,5.0998,5.118,5.1384,5.1559,5.1811,5.203,5.2084,5.2162,5.2315,5.2435,5.2534,5.2654,5.2839,5.3053,5.3235,5.3461,5.4164,5.5469,5.6741,5.7707,5.8128,5.8295,5.8409,5.8712,5.8791,5.8869,5.892,5.9011,5.9052,5.911,5.9187,5.9234,5.9253,5.93,5.9309,5.929,5.9347,5.9459,5.9731,6.0332,6.0952,6.175,6.2407,6.3026,6.3477,6.3787,6.3881,6.39,6.3994,6.4294,4.9018,4.9018,4.9018,4.9018,4.9018,4.9018,4.9018,4.9018,4.9018,4.9018,4.9018,4.9018,4.9018,4.9018,4.9018,4.9018,4.9018,4.9018,4.9018,4.9018,4.9018,4.9018,4.9048,4.914,4.9229,4.932,4.9426,4.9577,4.9786,4.9816,4.9906,4.9996,4.9996,4.9996,4.9996,4.9996,4.9996,4.9996,4.9996,4.9996,4.9996,4.9996,5.0037,5.012,5.0231,5.0355,5.0492,5.0661,5.0788,5.0877,5.0891,5.0891,5.0891,5.0891,5.0891,5.0891,5.0891,5.0891,5.0891,5.0891,5.0891,5.0904,5.0918,5.0904,5.0904,5.0931,5.1012,5.1189,5.132,5.1528,5.1724,5.1811,5.186,5.1957,5.212,5.2338,5.2454,5.259,5.2846,5.3371,5.3581,5.4615,5.5932,5.6882,5.7793,5.8346,5.8667,5.8677,5.8698,5.8758,5.8799,5.884,5.8881,5.8952,5.9051,5.9119,5.9177,5.9225,5.9234,5.9253,5.9244,5.9328,5.9581,6.0144,6.0913,6.1748,6.2613,6.3185,6.3616,6.389,6.4153,6.4238,6.4294,6.4294,6.4294,4.9018,4.9018,4.9018,4.9018,4.9018,4.9018,4.9018,4.9018,4.9018,4.9018,4.9018,4.9018,4.9018,4.9018,4.9018,4.9018,4.9018,4.9018,4.9018,4.9018,4.9018,4.9018,4.9048,4.9094,4.9138,4.9214,4.929,4.9428,4.9666,4.9891,4.9982,4.9874,4.9935,4.9996,4.9996,4.9996,4.9996,4.9996,4.9996,4.9996,4.9996,4.9996,5.0034,5.0117,5.026,5.0397,5.0519,5.0678,5.0764,5.0832,5.0846,5.0832,5.0877,5.0891,5.0891,5.0891,5.0891,5.0891,5.0891,5.0891,5.0891,5.0931,5.0985,5.0998,5.0931,5.0918,5.1012,5.1141,5.1154,5.1202,5.138,5.1528,5.1579,5.1629,5.1884,5.2138,5.225,5.2366,5.2845,5.3422,5.4243,5.5236,5.6226,5.7114,5.782,5.8296,5.8572,5.8617,5.8667,5.8698,5.8748,5.8779,5.8799,5.885,5.8961,5.9032,5.9071,5.911,5.912,5.913,5.9148,5.9363,5.9654,6.0553,6.1613,6.2382,6.3085,6.3651,6.4072,6.4224,6.4254,6.4284,6.4284,6.4294,6.4294,4.9018,4.9018,4.9018,4.9018,4.9018,4.9018,4.9018,4.9018,4.9018,4.9018,4.9018,4.9018,4.9018,4.9018,4.9018,4.9018,4.9018,4.9018,4.9018,4.9018,4.9018,4.9018,4.9018,4.9017,4.9078,4.9092,4.9153,4.9292,4.9637,4.986,4.9935,4.9737,4.9889,4.9996,4.9996,4.9996,4.9996,4.9996,4.9996,4.9996,4.9996,4.9996,4.9993,5.0051,5.0163,5.0302,5.0401,5.0485,5.0568,5.0706,5.0788,5.0774,5.0846,5.0891,5.0891,5.0891,5.0891,5.0891,5.0891,5.0891,5.0891,5.0985,5.1114,5.1048,5.0958,5.1092,5.1233,5.1101,5.1101,5.1193,5.1346,5.1444,5.1508,5.1597,5.1779,5.1945,5.2006,5.2186,5.2587,5.323,5.4041,5.5084,5.6238,5.7088,5.7699,5.8175,5.8476,5.8553,5.8606,5.8656,5.8687,5.8698,5.8729,5.8779,5.883,5.8921,5.8942,5.8982,5.905,5.9013,5.9032,5.9339,5.9732,6.0791,6.1888,6.2681,6.3372,6.3836,6.4092,6.4102,6.4143,6.4244,6.4274,6.4274,6.4294,4.9018,4.9018,4.9018,4.9018,4.9018,4.9018,4.9018,4.9018,4.9018,4.9018,4.9018,4.9018,4.9018,4.9018,4.9018,4.9018,4.9018,4.9018,4.9018,4.9018,4.9018,4.9018,4.9018,4.9001,4.9032,4.9032,4.9078,4.9216,4.9532,4.9786,4.9996,4.9935,4.9996,4.9996,4.9996,4.9996,4.9996,4.9996,4.9996,4.9996,4.9996,5.0025,5.004,5.0152,5.026,5.0331,5.0443,5.061,5.0633,5.0702,5.0801,5.0846,5.0891,5.0891,5.0891,5.0891,5.0891,5.0891,5.0891,5.0922,5.0957,5.0974,5.1038,5.0976,5.1052,5.1337,5.142,5.1211,5.1114,5.1207,5.1324,5.1428,5.15,5.1627,5.1703,5.1736,5.1775,5.2064,5.2377,5.3099,5.3856,5.4957,5.6166,5.6953,5.7545,5.7998,5.8351,5.8521,5.8572,5.8604,5.8635,5.8656,5.8687,5.8719,5.8834,5.8995,5.9121,5.9097,5.9148,5.9073,5.895,5.9455,6.0035,6.1075,6.2087,6.2811,6.3398,6.3766,6.3966,6.3987,6.4031,6.4133,6.4213,6.4224,6.4264,4.9018,4.9018,4.9018,4.9018,4.9018,4.9018,4.9018,4.9018,4.9018,4.9018,4.9018,4.9018,4.9018,4.9018,4.9018,4.9018,4.9018,4.9018,4.9018,4.9018,4.9018,4.9018,4.9018,4.9018,4.9001,4.9017,4.9185,4.9352,4.9473,4.9789,4.9996,4.9935,4.9935,4.9996,4.9996,4.9996,4.9996,4.9996,4.9996,4.9996,4.9996,5.0011,5.004,5.0135,5.0178,5.0291,5.0373,5.0513,5.0509,5.0575,5.0716,5.0801,5.0859,5.0891,5.0891,5.0891,5.0891,5.0891,5.0891,5.0974,5.108,5.122,5.1532,5.1691,5.2222,5.2458,5.2053,5.1812,5.1273,5.1298,5.1543,5.1665,5.1778,5.1889,5.174,5.1647,5.1762,5.1973,5.2541,5.3327,5.425,5.5418,5.6436,5.7043,5.7584,5.792,5.8272,5.8422,5.8465,5.8707,5.8702,5.8789,5.8913,5.9104,5.9359,5.9435,5.9485,5.9425,5.9402,5.9204,5.9192,5.9727,6.0402,6.1307,6.2138,6.2806,6.3328,6.3715,6.3867,6.3878,6.3945,6.4021,6.4092,6.4172,6.4213,4.9018,4.9018,4.9018,4.9018,4.9018,4.9018,4.9018,4.9018,4.9018,4.9018,4.9018,4.9018,4.9018,4.9018,4.9018,4.9018,4.9018,4.9018,4.9018,4.9018,4.9018,4.9018,4.9018,4.9018,4.9018,4.914,4.9337,4.932,4.932,4.9713,4.9935,4.9813,4.9874,4.9996,4.9996,4.9996,4.9996,4.9996,4.9996,4.9996,4.9996,4.9996,4.9993,4.9993,5.002,5.0135,5.0206,5.026,5.0288,5.0411,5.0602,5.0729,5.0846,5.0891,5.0891,5.0891,5.0891,5.0891,5.0926,5.1101,5.1452,5.1841,5.2257,5.2721,5.3175,5.3117,5.2688,5.2378,5.1869,5.1654,5.1909,5.1936,5.2047,5.2281,5.206,5.1833,5.1977,5.2041,5.2666,5.3455,5.4558,5.5693,5.6548,5.716,5.7534,5.7862,5.8095,5.8238,5.8423,5.8828,5.9034,5.9244,5.9454,5.9664,5.9826,6.0091,6.0131,6.0141,6.0099,5.9648,5.9433,5.9876,6.0492,6.1353,6.2144,6.2817,6.3275,6.3658,6.3736,6.3787,6.3856,6.3934,6.399,6.4071,6.4133,4.9018,4.9018,4.9018,4.9018,4.9018,4.9018,4.9018,4.9018,4.9018,4.9018,4.9018,4.9018,4.9018,4.9018,4.9018,4.9018,4.9018,4.9018,4.9018,4.9018,4.9018,4.9018,4.9017,4.9032,4.9017,4.917,4.9398,4.9515,4.9471,4.9772,4.9979,4.9935,4.9935,4.9996,4.9996,4.9996,4.9996,4.9996,4.9996,4.9996,4.9996,4.9996,4.9996,5.0037,5.0089,5.0092,5.0138,5.0263,5.0274,5.0341,5.0495,5.0661,5.0788,5.0891,5.0891,5.0891,5.0891,5.0891,5.0978,5.1382,5.1807,5.2155,5.2592,5.3176,5.3472,5.3489,5.3294,5.3379,5.2949,5.2602,5.2643,5.2355,5.2383,5.2917,5.2999,5.2799,5.2763,5.2505,5.2546,5.3411,5.4384,5.5584,5.676,5.7188,5.7449,5.7745,5.7932,5.8113,5.8462,5.888,5.9372,5.9693,6.0008,5.9929,5.9988,6.0764,6.0975,6.0964,6.0842,6.0433,6.0136,5.9988,6.063,6.1633,6.2227,6.2788,6.3215,6.3635,6.3635,6.368,6.3758,6.3834,6.3902,6.3977,6.4019]}]]